[[{"header":{"parameterUnit":"m.s-1","parameterCategory":1,"la1":30.6,"la2":29.2853,"lo1":-89.7004,"lo2":-87.6739,"dx":0.0162,"dy":0.0183,"nx":112,"ny":82,"refTime":"2023-01-29T18:00:00:Z","depth":0,"parameterNumber":2,"parameterNumberName":"U-component_of_WINDS"},"data":[0.0,0.0,0.0,0.0,0.0,0.0,0.0,0.0,0.0,0.0,0.0,0.0,0.0,0.0,0.0,0.0,0.0,0.0,0.0,0.0,0.0,0.0,0.0,0.0,0.0,0.0,0.0,0.0,0.0,0.0,0.0,0.0,0.0,0.0,0.0,0.0,0.0,0.0,0.0,0.0,0.0,0.0,0.0,0.0,0.0,0.0,0.0,0.0,0.0,0.0,0.0,0.0,0.0,0.0,0.0,0.0,0.0,0.0,0.0,0.0,0.0,0.0,0.0,0.0,0.0,0.0,0.0,0.0,0.0,0.0,0.0,0.0,0.0,0.0,0.0,0.0,0.0,0.0,0.0,0.0,0.0,0.0,0.0,0.0,0.0,0.0,0.0,0.0,0.0,0.0,-0.7073,-0.6848,-0.6706,-0.6546,-0.6328,-0.6269,-0.6215,-0.616,0.0,0.0,0.0,0.0,0.0,0.0,0.0,0.0,0.0,0.0,0.0,0.0,0.0,0.0,0.0,0.0,0.0,0.0,0.0,0.0,0.0,0.0,0.0,0.0,0.0,0.0,0.0,0.0,0.0,0.0,0.0,0.0,0.0,0.0,0.0,0.0,0.0,0.0,0.0,0.0,0.0,0.0,0.0,0.0,0.0,0.0,0.0,0.0,0.0,0.0,0.0,0.0,0.0,0.0,0.0,0.0,0.0,0.0,0.0,0.0,0.0,0.0,0.0,0.0,0.0,0.0,0.0,0.0,0.0,0.0,0.0,0.0,0.0,0.0,0.0,0.0,0.0,0.0,0.0,0.0,0.0,0.0,0.0,0.0,0.0,0.0,0.0,0.0,0.0,0.0,0.0,0.0,0.0,0.0,0.0,0.0,0.0,0.0,0.0,0.0,0.0,0.0,0.0,0.0,-0.6815,-0.6519,-0.635,-0.6168,-0.59,-0.5868,-0.5908,-0.6018,0.0,0.0,0.0,0.0,0.0,0.0,0.0,0.0,0.0,0.0,0.0,0.0,0.0,0.0,0.0,0.0,0.0,0.0,0.0,0.0,0.0,0.0,0.0,0.0,0.0,0.0,0.0,0.0,0.0,0.0,0.0,0.0,0.0,0.0,0.0,0.0,0.0,0.0,0.0,0.0,0.0,0.0,0.0,0.0,0.0,0.0,0.0,0.0,0.0,0.0,0.0,0.0,0.0,0.0,0.0,0.0,0.0,0.0,0.0,0.0,0.0,0.0,0.0,0.0,0.0,0.0,0.0,0.0,0.0,0.0,0.0,0.0,0.0,0.0,0.0,0.0,0.0,0.0,0.0,0.0,0.0,0.0,0.0,0.0,0.0,0.0,0.0,0.0,0.0,0.0,0.0,0.0,0.0,0.0,0.0,0.0,0.0,0.0,0.0,0.0,0.0,0.0,0.0,-0.6354,-0.6288,-0.6152,-0.5915,-0.5755,-0.5703,-0.5513,-0.5517,-0.5763,-0.6109,0.0,0.0,0.0,0.0,0.0,0.0,0.0,0.0,0.0,0.0,0.0,0.0,0.0,0.0,0.0,0.0,0.0,0.0,0.0,0.0,0.0,0.0,0.0,0.0,0.0,0.0,0.0,0.0,0.0,0.0,0.0,0.0,0.0,0.0,0.0,0.0,0.0,0.0,0.0,0.0,0.0,0.0,0.0,0.0,0.0,0.0,0.0,0.0,0.0,0.0,0.0,0.0,0.0,0.0,0.0,0.0,0.0,0.0,0.0,0.0,0.0,0.0,0.0,0.0,0.0,0.0,0.0,0.0,0.0,0.0,0.0,0.0,0.0,0.0,0.0,0.0,0.0,0.0,0.0,0.0,0.0,0.0,0.0,0.0,0.0,0.0,0.0,0.0,0.0,0.0,0.0,0.0,0.0,0.0,0.0,0.0,0.0,0.0,0.0,0.0,0.0,0.0,-0.5888,-0.5888,-0.5822,-0.5566,-0.543,-0.5483,-0.5237,-0.5211,-0.5513,-0.5786,0.0,0.0,0.0,0.0,0.0,0.0,0.0,0.0,0.0,0.0,0.0,0.0,0.0,0.0,0.0,0.0,0.0,0.0,0.0,0.0,0.0,0.0,0.0,0.0,0.0,0.0,0.0,0.0,0.0,0.0,0.0,0.0,0.0,0.0,0.0,0.0,0.0,0.0,0.0,0.0,0.0,0.0,0.0,0.0,0.0,0.0,0.0,0.0,0.0,0.0,0.0,0.0,0.0,0.0,0.0,0.0,0.0,0.0,0.0,0.0,0.0,0.0,0.0,0.0,0.0,0.0,0.0,0.0,0.0,0.0,0.0,0.0,0.0,0.0,0.0,0.0,0.0,0.0,0.0,0.0,0.0,0.0,0.0,0.0,0.0,0.0,0.0,0.0,0.0,0.0,0.0,0.0,0.0,0.0,0.0,0.0,0.0,0.0,0.0,0.0,0.0,0.0,-0.5888,-0.5822,-0.565,-0.55,-0.5339,-0.515,-0.5123,-0.5156,-0.5325,-0.5631,0.0,0.0,0.0,0.0,0.0,0.0,0.0,0.0,0.0,0.0,0.0,0.0,0.0,0.0,0.0,0.0,0.0,0.0,0.0,0.0,0.0,0.0,0.0,0.0,0.0,0.0,0.0,0.0,0.0,0.0,0.0,0.0,0.0,0.0,0.0,0.0,0.0,0.0,0.0,0.0,0.0,0.0,0.0,0.0,0.0,0.0,0.0,0.0,0.0,0.0,0.0,0.0,0.0,0.0,0.0,0.0,0.0,0.0,0.0,0.0,0.0,0.0,0.0,0.0,0.0,0.0,0.0,0.0,0.0,0.0,0.0,0.0,0.0,0.0,0.0,0.0,0.0,0.0,0.0,0.0,0.0,0.0,0.0,0.0,0.0,0.0,0.0,0.0,0.0,0.0,0.0,0.0,0.0,0.0,0.0,0.0,0.0,0.0,0.0,0.0,0.0,0.0,-0.5594,-0.5557,-0.5491,-0.5252,-0.51,-0.509,-0.5034,-0.5042,-0.5156,0.0,0.0,0.0,0.0,0.0,0.0,0.0,0.0,0.0,0.0,0.0,0.0,0.0,0.0,0.0,0.0,0.0,0.0,0.0,0.0,0.0,0.0,0.0,0.0,0.0,0.0,0.0,0.0,0.0,0.0,0.0,0.0,0.0,0.0,0.0,0.0,0.0,0.0,0.0,0.0,0.0,0.0,0.0,0.0,0.0,0.0,0.0,0.0,0.0,0.0,0.0,0.0,0.0,0.0,0.0,0.0,0.0,0.0,0.0,0.0,0.0,0.0,0.0,0.0,0.0,0.0,0.0,0.0,0.0,0.0,0.0,0.0,0.0,0.0,0.0,0.0,0.0,0.0,0.0,0.0,0.0,0.0,0.0,0.0,0.0,0.0,0.0,0.0,0.0,0.0,0.0,0.0,0.0,0.0,0.0,0.0,0.0,0.0,0.0,0.0,0.0,0.0,-0.5395,-0.5395,-0.5395,-0.5395,-0.5135,-0.4996,-0.5039,-0.4995,-0.4984,-0.5046,0.0,0.0,0.0,0.0,0.0,0.0,0.0,0.0,0.0,0.0,0.0,0.0,0.0,0.0,0.0,0.0,0.0,0.0,0.0,0.0,0.0,0.0,0.0,0.0,0.0,0.0,0.0,0.0,0.0,0.0,0.0,0.0,0.0,0.0,0.0,0.0,0.0,0.0,0.0,0.0,0.0,0.0,0.0,0.0,0.0,0.0,0.0,0.0,0.0,0.0,0.0,0.0,0.0,0.0,0.0,0.0,0.0,0.0,0.0,0.0,0.0,0.0,0.0,0.0,0.0,0.0,0.0,0.0,0.0,0.0,0.0,0.0,0.0,0.0,0.0,0.0,0.0,0.0,0.0,0.0,0.0,0.0,0.0,0.0,0.0,0.0,0.0,0.0,0.0,0.0,0.0,0.0,0.0,0.0,0.0,0.0,0.0,0.0,0.0,0.0,0.0,0.0,-0.5395,-0.5395,-0.5395,-0.5395,-0.5223,-0.5042,-0.4901,-0.5011,-0.5051,0.0,0.0,0.0,0.0,0.0,0.0,0.0,0.0,0.0,0.0,0.0,0.0,0.0,0.0,0.0,0.0,0.0,0.0,0.0,0.0,0.0,0.0,0.0,0.0,0.0,0.0,0.0,0.0,0.0,0.0,0.0,0.0,0.0,0.0,0.0,0.0,0.0,0.0,0.0,0.0,0.0,0.0,0.0,0.0,0.0,0.0,0.0,0.0,0.0,0.0,0.0,0.0,0.0,0.0,0.0,0.0,0.0,0.0,0.0,0.0,0.0,0.0,0.0,0.0,0.0,0.0,0.0,0.0,0.0,0.0,0.0,0.0,0.0,0.0,0.0,0.0,0.0,0.0,0.0,0.0,0.0,0.0,0.0,0.0,0.0,0.0,0.0,0.0,0.0,0.0,0.0,0.0,0.0,0.0,0.0,0.0,0.0,0.0,0.0,0.0,0.0,0.0,0.0,-0.5395,-0.5395,-0.5395,-0.5395,-0.5223,-0.5042,-0.4901,-0.5011,-0.5051,-0.4908,0.0,0.0,0.0,0.0,0.0,0.0,0.0,0.0,0.0,0.0,0.0,0.0,0.0,0.0,0.0,0.0,0.0,0.0,0.0,0.0,0.0,0.0,0.0,0.0,0.0,0.0,0.0,0.0,0.0,0.0,0.0,0.0,0.0,0.0,0.0,0.0,0.0,0.0,0.0,0.0,0.0,0.0,0.0,0.0,0.0,0.0,0.0,0.0,0.0,0.0,0.0,0.0,0.0,0.0,0.0,0.0,0.0,0.0,0.0,0.0,0.0,0.0,0.0,0.0,0.0,0.0,0.0,0.0,0.0,0.0,0.0,0.0,0.0,0.0,0.0,0.0,0.0,0.0,0.0,0.0,0.0,0.0,0.0,0.0,0.0,0.0,0.0,0.0,0.0,0.0,0.0,0.0,0.0,0.0,0.0,0.0,0.0,0.0,0.0,0.0,0.0,0.0,-0.5395,-0.5395,-0.5395,-0.5395,-0.5277,-0.5162,-0.4985,-0.5134,-0.5151,-0.4981,0.0,0.0,0.0,0.0,0.0,0.0,0.0,0.0,0.0,0.0,0.0,0.0,0.0,0.0,0.0,0.0,0.0,0.0,0.0,0.0,0.0,0.0,0.0,0.0,0.0,0.0,0.0,0.0,0.0,0.0,0.0,0.0,0.0,0.0,0.0,0.0,0.0,0.0,0.0,0.0,0.0,0.0,0.0,0.0,0.0,0.0,0.0,0.0,0.0,0.0,0.0,0.0,0.0,0.0,0.0,0.0,0.0,0.0,0.0,0.0,0.0,0.0,0.0,0.0,0.0,0.0,0.0,0.0,0.0,0.0,0.0,0.0,0.0,0.0,0.0,0.0,0.0,0.0,0.0,0.0,0.0,0.0,0.0,0.0,0.0,0.0,0.0,0.0,0.0,0.0,0.0,0.0,0.0,0.0,0.0,0.0,0.0,0.0,0.0,0.0,0.0,0.0,-0.5395,-0.5395,-0.5395,-0.5395,-0.5395,-0.533,-0.511,-0.5292,-0.5318,-0.5104,0.0,0.0,0.0,0.0,0.0,0.0,0.0,0.0,0.0,0.0,0.0,0.0,0.0,0.0,0.0,0.0,0.0,0.0,0.0,0.0,0.0,0.0,0.0,0.0,0.0,0.0,0.0,0.0,0.0,0.0,0.0,0.0,0.0,0.0,0.0,0.0,0.0,0.0,0.0,0.0,0.0,0.0,0.0,0.0,0.0,0.0,0.0,0.0,0.0,0.0,0.0,0.0,0.0,0.0,0.0,0.0,0.0,0.0,0.0,0.0,-0.8242,-0.8274,0.0,0.0,0.0,0.0,0.0,0.0,0.0,0.0,0.0,0.0,0.0,0.0,0.0,0.0,0.0,0.0,0.0,0.0,0.0,0.0,0.0,0.0,0.0,0.0,0.0,0.0,0.0,0.0,0.0,0.0,0.0,0.0,0.0,0.0,0.0,0.0,0.0,0.0,0.0,0.0,-0.5395,-0.5395,-0.5395,-0.5395,-0.5395,-0.533,-0.511,-0.5385,-0.5429,-0.5111,-0.569,0.0,0.0,0.0,0.0,0.0,0.0,0.0,0.0,0.0,0.0,0.0,0.0,0.0,0.0,0.0,0.0,0.0,0.0,0.0,0.0,0.0,0.0,0.0,0.0,0.0,0.0,0.0,0.0,0.0,0.0,0.0,0.0,0.0,0.0,0.0,0.0,0.0,0.0,0.0,0.0,0.0,0.0,0.0,0.0,0.0,0.0,0.0,0.0,0.0,0.0,0.0,0.0,0.0,0.0,0.0,0.0,0.0,0.0,0.0,-0.7749,-0.7782,0.0,0.0,0.0,0.0,0.0,0.0,0.0,0.0,0.0,0.0,0.0,0.0,0.0,0.0,0.0,0.0,0.0,0.0,0.0,0.0,0.0,0.0,0.0,0.0,0.0,0.0,0.0,0.0,0.0,0.0,0.0,0.0,0.0,0.0,0.0,0.0,0.0,0.0,0.0,0.0,-0.5395,-0.5395,-0.5395,-0.5395,-0.5395,-0.5394,-0.5341,-0.5488,-0.5564,-0.5491,-0.5969,0.0,0.0,0.0,0.0,0.0,0.0,0.0,0.0,0.0,0.0,0.0,0.0,0.0,0.0,0.0,0.0,0.0,0.0,0.0,0.0,0.0,0.0,0.0,0.0,0.0,0.0,0.0,0.0,0.0,0.0,0.0,0.0,0.0,0.0,0.0,0.0,0.0,0.0,0.0,0.0,0.0,0.0,0.0,0.0,0.0,0.0,0.0,0.0,0.0,0.0,0.0,0.0,0.0,-0.7694,-0.7596,-0.7536,-0.7269,-0.7138,-0.7106,-0.7265,-0.7232,-0.7138,-0.6913,0.0,0.0,0.0,0.0,0.0,0.0,0.0,0.0,0.0,0.0,0.0,0.0,0.0,0.0,0.0,0.0,0.0,0.0,0.0,0.0,0.0,0.0,-0.5395,-0.5395,-0.5395,-0.5395,-0.5395,0.0,0.0,0.0,0.0,0.0,0.0,0.0,0.0,0.0,0.0,0.0,-0.5395,-0.5395,-0.5395,-0.5395,-0.5428,-0.5491,-0.5583,-0.5661,-0.5764,-0.5931,-0.6261,-0.6421,0.0,0.0,0.0,0.0,0.0,0.0,0.0,0.0,0.0,0.0,0.0,0.0,0.0,0.0,0.0,0.0,0.0,0.0,0.0,0.0,0.0,0.0,0.0,0.0,0.0,0.0,0.0,0.0,0.0,0.0,0.0,0.0,-0.9798,-0.9588,0.0,0.0,0.0,0.0,0.0,0.0,0.0,0.0,0.0,0.0,0.0,0.0,0.0,-0.7954,-0.7759,-0.7759,-0.7596,-0.7297,-0.7269,-0.7171,-0.7012,-0.6946,-0.6876,-0.6773,-0.6613,0.0,-0.6913,-0.6585,0.0,0.0,0.0,0.0,0.0,0.0,0.0,0.0,0.0,0.0,0.0,0.0,0.0,0.0,0.0,0.0,0.0,0.0,0.0,0.0,0.0,0.0,-0.5395,-0.5395,-0.5395,-0.5395,-0.5395,-0.5395,-0.5395,-0.5395,-0.5395,-0.5395,0.0,0.0,0.0,0.0,0.0,0.0,-0.5395,-0.5395,-0.5395,-0.5395,-0.5488,-0.5583,-0.5583,-0.5928,-0.6112,-0.6089,-0.6402,-0.6643,-0.6804,-0.7269,0.0,0.0,0.0,0.0,0.0,0.0,0.0,0.0,0.0,0.0,0.0,0.0,0.0,0.0,0.0,0.0,0.0,0.0,0.0,0.0,0.0,0.0,0.0,0.0,0.0,0.0,0.0,0.0,0.0,-0.9664,-0.944,-0.9236,-0.9113,-0.8926,0.0,0.0,0.0,0.0,0.0,0.0,0.0,0.0,0.0,-0.7559,-0.7433,-0.7335,-0.7241,-0.7241,-0.7176,-0.7045,-0.6942,-0.6811,-0.6618,-0.6548,-0.6416,-0.6247,-0.6152,-0.6189,-0.6317,-0.6185,-0.6123,-0.609,0.0,0.0,0.0,0.0,-0.5888,-0.5888,-0.5888,-0.5888,-0.5888,-0.5888,0.0,0.0,0.0,0.0,0.0,0.0,0.0,-0.5488,-0.5425,-0.5395,-0.5395,-0.5395,-0.5395,-0.5395,-0.5395,-0.5395,-0.5395,-0.5395,-0.5395,-0.5395,-0.5395,-0.5395,0.0,0.0,0.0,-0.5395,-0.5395,-0.5395,-0.5428,-0.5488,-0.555,-0.5679,-0.5914,-0.6181,-0.6347,-0.6427,-0.6874,-0.713,-0.717,-0.7654,-0.8001,0.0,0.0,0.0,0.0,0.0,0.0,0.0,0.0,0.0,0.0,0.0,0.0,0.0,0.0,0.0,0.0,0.0,0.0,0.0,0.0,0.0,0.0,0.0,0.0,0.0,0.0,0.0,0.0,-0.9274,-0.9087,-0.8894,-0.8732,-0.8538,0.0,0.0,0.0,0.0,0.0,0.0,-0.7503,-0.7269,-0.7106,-0.7106,-0.6975,-0.6881,-0.6848,-0.6782,-0.6749,-0.6716,-0.6576,-0.6416,-0.6255,-0.6185,-0.605,-0.5888,-0.5855,-0.5822,-0.5822,-0.5822,-0.5822,-0.5822,-0.5789,-0.576,-0.576,-0.576,-0.576,-0.576,-0.576,-0.576,-0.576,-0.576,-0.576,-0.576,-0.576,0.0,0.0,0.0,0.0,-0.5395,-0.5395,-0.5395,-0.5395,-0.5395,-0.5395,-0.5395,-0.5395,-0.5395,-0.5395,-0.5395,-0.5395,-0.5395,-0.5395,-0.5395,0.0,-0.5395,-0.5395,-0.5425,-0.5458,-0.5458,-0.5524,-0.5653,-0.5716,-0.5881,-0.6214,-0.6379,-0.6613,-0.69,-0.7265,-0.7551,-0.7676,-0.8111,-0.8438,-0.864,0.0,0.0,0.0,0.0,0.0,0.0,0.0,0.0,0.0,0.0,0.0,0.0,0.0,0.0,0.0,0.0,0.0,0.0,0.0,0.0,0.0,0.0,0.0,0.0,0.0,0.0,0.0,0.0,0.0,-0.8544,-0.8339,0.0,0.0,0.0,0.0,-0.7265,-0.704,-0.6946,-0.6946,-0.6913,-0.6913,-0.6913,-0.6913,-0.6843,-0.6708,-0.6515,-0.635,-0.6247,-0.602,-0.5921,-0.5921,-0.5921,-0.5925,-0.5888,-0.5686,-0.5617,-0.5617,-0.5617,-0.5617,-0.5617,-0.5491,-0.5428,-0.5428,-0.5428,-0.5428,-0.5428,-0.5428,-0.5428,-0.5428,-0.5428,-0.5428,-0.5428,-0.5428,-0.5428,0.0,0.0,-0.5395,-0.5395,-0.5395,-0.5395,-0.5395,-0.5395,-0.5395,-0.5395,-0.5395,-0.5395,-0.5395,-0.5395,-0.5395,-0.5395,-0.5395,0.0,-0.5395,-0.5395,-0.5395,-0.5458,-0.5583,-0.5583,-0.565,-0.5855,-0.605,-0.6214,-0.6383,-0.6576,-0.6905,-0.7423,-0.7489,-0.7782,-0.8431,-0.8657,-0.8854,-0.9052,-0.9578,0.0,0.0,0.0,0.0,0.0,0.0,0.0,0.0,0.0,0.0,0.0,0.0,0.0,0.0,0.0,0.0,0.0,0.0,0.0,0.0,0.0,0.0,0.0,0.0,0.0,0.0,0.0,0.0,-0.8025,-0.7852,0.0,-0.74,-0.7204,-0.7073,-0.7007,-0.6876,-0.6712,-0.6585,-0.6482,-0.6379,-0.6255,-0.6255,-0.6218,-0.6185,-0.6119,-0.6053,-0.602,-0.5921,-0.5822,-0.5719,-0.5719,-0.5653,-0.5557,-0.5491,-0.5455,-0.5455,-0.5455,-0.5455,-0.5458,-0.5428,-0.5395,-0.5395,-0.5395,-0.5395,-0.5395,-0.5395,-0.5395,-0.5395,-0.5395,-0.5395,-0.5395,-0.5395,-0.5395,-0.5395,-0.5395,-0.5395,-0.5395,-0.5395,-0.5395,-0.5395,-0.5395,-0.5395,-0.5395,-0.5395,-0.5395,-0.5395,-0.5395,-0.5395,-0.5395,-0.5395,-0.5395,-0.5395,-0.5395,-0.5488,-0.5554,-0.5583,-0.5719,-0.5921,-0.6185,-0.6284,-0.6449,-0.6683,-0.7036,-0.7293,-0.7489,-0.7922,-0.8252,-0.8484,-0.8985,-0.9386,-0.9674,-1.012,-1.0564,0.0,0.0,0.0,0.0,0.0,0.0,0.0,0.0,0.0,0.0,0.0,0.0,0.0,0.0,0.0,0.0,0.0,0.0,0.0,0.0,0.0,0.0,0.0,0.0,0.0,-0.8079,-0.7847,-0.7563,-0.7396,-0.7199,-0.6942,-0.6815,-0.6683,-0.6585,-0.6482,-0.6383,-0.6251,-0.6148,-0.605,-0.5892,-0.5888,-0.5888,-0.5888,-0.5822,-0.5789,-0.5789,-0.5756,-0.5657,-0.5521,-0.5521,-0.5491,-0.5395,-0.5395,-0.5395,-0.5395,-0.5395,-0.5395,-0.5395,-0.5395,-0.5395,-0.5395,-0.5395,-0.5395,-0.5395,-0.5395,-0.5395,-0.5395,-0.5395,-0.5395,-0.5395,-0.5395,-0.5395,-0.5395,-0.5395,-0.5395,-0.5395,-0.5395,-0.5395,-0.5395,-0.5395,-0.5395,-0.5395,-0.5395,-0.5395,-0.5395,-0.5395,-0.5395,-0.5395,-0.5395,-0.5425,-0.5458,-0.5458,-0.5587,-0.5716,-0.5782,-0.5954,-0.6185,-0.6482,-0.6613,-0.6778,-0.7073,-0.7461,-0.7722,-0.7819,-0.8317,-0.8673,-0.8829,-0.9268,-0.9716,-1.0174,-1.0688,-1.1279,-1.1934,0.0,0.0,0.0,0.0,0.0,0.0,0.0,0.0,0.0,0.0,0.0,0.0,0.0,0.0,0.0,0.0,0.0,0.0,0.0,0.0,0.0,0.0,0.0,-0.7666,-0.7559,-0.7396,-0.7204,-0.7007,-0.6749,-0.642,-0.6383,-0.6255,-0.5925,-0.5888,-0.5888,-0.5888,-0.5888,-0.5888,-0.5888,-0.5888,-0.5888,-0.5888,-0.5683,-0.5583,-0.5583,-0.5458,-0.5395,-0.5395,-0.5395,-0.5395,-0.5395,-0.5395,-0.5395,-0.5395,-0.5395,-0.5395,-0.5395,-0.5395,-0.5395,-0.5395,-0.5395,-0.5395,-0.5395,-0.5395,-0.5395,-0.5395,-0.5395,-0.5395,-0.5395,-0.5395,-0.5395,-0.5395,-0.5395,-0.5395,-0.5395,-0.5395,-0.5395,-0.5395,-0.5395,-0.5395,-0.5395,-0.5395,-0.5395,-0.5395,-0.5428,-0.5428,-0.5428,-0.5395,-0.5521,-0.5617,-0.5617,-0.5785,0.0,-0.6181,-0.6317,-0.6482,-0.6708,-0.7003,-0.7297,-0.7489,-0.7819,-0.8149,-0.8484,-0.8705,-0.9022,-0.9486,-0.9518,-0.9875,-1.0624,-1.1279,-1.1934,-1.259,0.0,0.0,0.0,0.0,0.0,0.0,0.0,0.0,0.0,0.0,0.0,0.0,0.0,0.0,0.0,0.0,0.0,0.0,0.0,0.0,0.0,-0.7624,-0.7521,-0.7559,-0.7265,-0.6942,-0.6646,-0.6581,-0.642,-0.6057,-0.602,-0.5987,-0.5925,-0.5888,-0.5822,-0.5683,-0.5683,-0.5653,-0.5528,-0.5528,-0.5528,-0.5528,-0.5491,-0.5458,-0.5458,-0.5428,-0.5395,-0.5395,-0.5395,-0.5395,-0.5395,-0.5395,-0.5395,-0.5395,-0.5395,-0.5395,-0.5395,-0.5395,-0.5395,-0.5395,-0.5395,-0.5395,-0.5395,-0.5395,-0.5395,-0.5395,-0.5395,-0.5395,-0.5395,-0.5395,-0.5395,-0.5395,-0.5395,-0.5395,-0.5395,-0.5395,-0.5395,-0.5395,-0.5395,-0.5395,-0.5428,-0.5521,-0.5554,-0.5587,-0.5723,-0.576,-0.5723,-0.5554,-0.5686,-0.5822,-0.5822,-0.6086,-0.6284,-0.635,-0.6585,-0.6909,-0.7232,-0.7363,-0.7587,-0.7972,-0.8214,-0.8511,-0.8829,-0.9145,-0.9466,-0.9849,-1.0136,-1.0618,-1.131,-1.1972,-1.2406,0.0,0.0,0.0,0.0,0.0,0.0,0.0,0.0,0.0,0.0,0.0,0.0,0.0,0.0,0.0,0.0,0.0,0.0,0.0,0.0,0.0,0.0,-0.7232,-0.7036,-0.7036,-0.6843,-0.6585,-0.635,-0.6251,-0.6086,-0.5789,-0.5785,-0.5756,-0.5693,-0.569,-0.5624,-0.5521,-0.5521,-0.5491,-0.5395,-0.5395,-0.5395,-0.5395,-0.5395,-0.5395,-0.5395,-0.5395,-0.5395,-0.5395,-0.5395,-0.5395,-0.5395,-0.5395,-0.5395,-0.5395,-0.5395,-0.5395,-0.5395,0.0,0.0,0.0,0.0,-0.5395,-0.5395,-0.5395,-0.5395,-0.5395,-0.5395,-0.5395,-0.5395,-0.5395,-0.5395,-0.5395,-0.5395,-0.5395,-0.5395,-0.5395,-0.5395,-0.5425,-0.5455,-0.5491,-0.5521,-0.5686,-0.5719,-0.5752,-0.5888,-0.6024,0.0,-0.5951,-0.602,-0.6123,-0.6123,-0.6387,-0.6651,-0.6712,-0.6975,-0.7302,-0.7657,-0.7819,-0.8047,-0.8436,-0.8727,0.0,0.0,0.0,-1.0009,-1.0428,-1.0807,0.0,0.0,0.0,-1.2713,-1.2981,-1.3329,0.0,0.0,-1.4121,-1.4389,0.0,0.0,0.0,0.0,0.0,0.0,0.0,0.0,0.0,0.0,0.0,0.0,0.0,0.0,0.0,0.0,-0.6839,-0.6383,-0.6354,-0.6337,-0.6271,-0.6148,-0.5984,-0.5785,-0.5583,-0.5583,-0.5521,-0.5395,-0.5395,-0.5395,-0.5395,-0.5395,0.0,0.0,0.0,-0.5395,-0.5395,-0.5395,-0.5395,-0.5395,-0.5395,-0.5395,-0.5395,-0.5395,-0.5395,-0.5395,-0.5395,-0.5395,-0.5395,-0.5395,-0.5395,-0.5395,-0.5395,-0.5395,-0.5395,-0.5395,-0.5395,-0.5395,-0.5395,0.0,0.0,-0.5395,-0.5395,-0.5395,-0.5395,-0.5395,-0.5395,-0.5395,-0.5395,-0.5395,-0.5428,-0.5428,-0.5458,-0.5583,-0.565,-0.5683,-0.5888,-0.5954,-0.5958,-0.5987,-0.6251,-0.6453,-0.6482,-0.6482,-0.6453,-0.6486,-0.6749,-0.7045,-0.7237,-0.7461,-0.7684,-0.8019,-0.8349,0.0,-0.8861,-0.9306,-0.9582,-0.962,-1.0136,-1.0649,-1.1153,-1.1498,-1.1903,-1.2336,-1.259,-1.295,-1.3511,-1.3571,-1.3932,-1.4499,-1.4499,-1.4686,0.0,0.0,0.0,0.0,0.0,0.0,0.0,0.0,0.0,0.0,0.0,0.0,0.0,0.0,0.0,-0.6712,-0.6482,-0.6321,-0.602,-0.5936,-0.5864,-0.573,-0.5683,-0.5587,-0.5458,-0.5425,-0.5428,-0.5395,-0.5395,-0.5395,-0.5395,-0.5395,-0.5395,-0.5395,-0.5395,-0.5395,-0.5395,-0.5395,-0.5395,-0.5395,-0.5395,0.0,-0.5395,-0.5395,-0.5395,-0.5395,-0.5395,-0.5395,-0.5395,-0.5395,-0.5395,-0.5395,-0.5395,-0.5395,-0.5395,-0.5395,-0.5395,-0.5395,-0.5395,-0.5395,-0.5395,-0.5395,-0.5395,-0.5395,-0.5395,-0.5395,0.0,-0.5395,-0.5395,-0.5428,-0.5521,-0.555,-0.562,-0.5785,-0.5855,-0.5888,-0.6115,-0.6218,-0.635,-0.6511,-0.6679,-0.6848,-0.7007,-0.6909,-0.6848,-0.7007,-0.7232,-0.7428,-0.7596,-0.7884,-0.8139,-0.8382,-0.87,-0.9017,-0.9332,-0.969,-1.004,-1.0364,-1.0996,-1.1404,-1.1498,-1.2096,-1.2436,-1.2529,-1.3064,-1.339,-1.3511,-1.4052,-1.438,-1.4499,-1.4499,-1.4745,0.0,0.0,0.0,0.0,0.0,0.0,0.0,0.0,0.0,0.0,0.0,-0.848,-0.7793,0.0,-0.6968,-0.6563,-0.6348,-0.618,-0.6024,-0.5891,-0.5773,-0.5718,-0.5703,-0.5679,-0.5617,-0.5617,-0.5617,-0.5617,-0.5617,-0.5617,-0.5617,-0.5617,-0.5617,-0.5617,-0.5617,-0.5617,-0.5617,-0.5617,-0.5617,-0.5617,-0.5542,-0.5511,-0.5508,-0.5429,-0.5395,-0.5395,-0.5395,-0.5395,-0.5395,-0.5395,-0.5395,-0.5395,-0.5395,-0.5395,-0.5395,-0.5395,-0.5395,-0.5395,-0.5395,-0.5395,-0.5395,-0.5395,-0.5395,-0.5395,-0.5395,-0.5395,-0.5395,-0.5395,-0.5458,-0.5521,-0.5583,-0.5683,-0.5785,-0.6017,-0.6086,-0.6218,-0.6412,-0.6548,-0.6712,-0.6905,-0.7068,-0.7269,-0.7433,-0.7493,-0.7526,-0.7466,-0.7689,-0.7917,-0.809,-0.8344,-0.863,-0.8952,-0.9139,-0.9428,-0.9881,-1.0301,-1.0713,-1.109,-1.156,-1.1934,-1.2089,-1.256,-1.2889,-1.3033,-1.3459,-1.3782,-1.3992,-1.435,-1.4627,-1.4843,-1.4922,-1.5069,0.0,0.0,0.0,0.0,0.0,0.0,0.0,-1.0619,-1.0007,-0.9371,-0.8645,-0.7947,-0.7466,-0.7001,-0.6643,-0.6515,-0.6264,-0.6095,-0.6043,-0.5938,-0.5835,-0.5821,-0.5816,-0.58,-0.58,-0.58,-0.58,-0.58,-0.58,-0.58,-0.58,-0.58,-0.58,-0.58,-0.58,-0.58,-0.58,-0.58,-0.58,-0.58,-0.5684,-0.563,-0.5627,-0.5539,-0.5481,-0.5481,-0.545,-0.5423,-0.5395,-0.5395,-0.5395,-0.5395,-0.5395,-0.5395,-0.5395,-0.5395,-0.5395,-0.5395,-0.5395,-0.5395,-0.5395,-0.5395,-0.5395,-0.5395,-0.5395,-0.5428,-0.5425,-0.5425,-0.5554,-0.565,-0.5716,-0.5851,-0.6053,-0.6247,-0.6416,-0.6548,-0.6741,-0.6909,-0.7077,-0.7269,-0.7493,-0.7689,-0.7829,-0.8112,-0.8209,-0.7889,-0.8112,-0.8404,-0.8641,-0.8829,-0.9087,-0.9524,-0.9652,-0.9939,-1.0491,-1.0965,-1.1341,-1.1716,-1.2034,-1.2344,-1.2652,-1.295,-1.3246,-1.3541,-1.3821,-1.4121,-1.4499,-1.4617,-1.4863,-1.5235,-1.543,-1.5478,-1.2305,-1.2305,-1.2224,-1.1818,-1.1706,-1.1558,0.0,-1.0508,-0.9977,-0.9195,-0.8541,-0.788,-0.7109,-0.6777,-0.6515,-0.6203,-0.612,-0.604,-0.5871,-0.5918,-0.5963,-0.5979,-0.5874,-0.58,-0.58,-0.58,-0.58,-0.58,-0.58,-0.58,-0.58,-0.58,-0.58,-0.58,-0.58,-0.58,-0.58,-0.58,-0.58,-0.58,-0.5786,-0.5779,-0.5776,-0.5759,-0.5752,-0.5745,-0.5616,-0.5521,-0.5395,-0.5395,-0.5395,-0.5395,-0.5395,-0.5395,-0.5395,-0.5395,-0.5395,-0.5395,-0.5395,-0.5395,-0.5395,-0.5395,-0.5395,-0.5395,-0.5395,-0.5491,-0.5583,-0.5583,-0.5719,-0.5921,-0.6083,-0.6247,-0.6383,-0.6609,-0.6745,-0.6913,-0.7106,-0.7297,-0.7461,-0.7629,-0.7917,-0.8172,-0.8382,-0.8576,-0.8673,-0.8447,-0.8608,-0.8861,-0.9177,-0.9332,-0.9524,-0.9734,-1.018,-1.0744,-1.1404,-1.1498,-1.1747,-1.2182,-1.2428,-1.2683,-1.2928,-1.3277,-1.3541,-1.3761,-1.421,-1.444,-1.4499,-1.503,-1.5323,-1.5391,-1.5701,-1.5788,-1.2305,-1.2305,-1.2187,-1.1781,-1.1706,-1.1521,-1.0775,-1.0289,-0.9731,-0.8992,-0.8269,-0.7603,-0.7167,-0.6763,-0.6472,-0.6391,-0.6295,-0.6187,-0.6095,-0.6125,-0.6166,-0.6166,-0.6108,-0.6105,-0.6105,-0.6105,-0.6105,-0.6105,-0.6105,-0.6105,-0.6105,-0.6105,-0.6105,-0.6105,-0.6105,-0.6105,-0.6105,-0.6105,-0.6105,-0.6105,-0.5976,-0.5899,-0.5932,-0.584,-0.58,-0.5796,-0.5739,-0.563,-0.5528,-0.5528,-0.5477,-0.5395,-0.5395,-0.5395,-0.5395,-0.5395,-0.5395,-0.5395,-0.5395,-0.5395,-0.5395,-0.5395,-0.5395,-0.5425,-0.5488,-0.555,-0.5617,-0.5752,-0.5987,-0.6222,-0.6284,-0.6515,-0.6745,-0.6942,-0.7134,-0.7302,-0.7466,-0.7722,-0.7944,-0.8122,-0.8376,-0.8635,-0.8926,-0.9113,-0.921,-0.9253,-0.9215,-0.9306,-0.9568,-0.9824,-1.0104,-1.0523,-1.0933,-1.1373,-1.184,-1.2058,-1.2305,-1.2582,-1.292,-1.3186,-1.3277,-1.3812,-1.4112,-1.421,-1.4597,-1.4872,-1.503,-1.5264,-1.5507,-1.5701,-1.6029,-1.6144,-1.2305,-1.2305,-1.2187,-1.1781,-1.1706,-1.1484,-1.0663,-1.0136,-0.9572,-0.8871,-0.8074,-0.7489,-0.7231,-0.6796,-0.6489,-0.6589,-0.6439,-0.6318,-0.6282,-0.63,-0.63,-0.63,-0.63,-0.63,-0.63,-0.63,-0.63,-0.63,-0.63,-0.63,-0.63,-0.63,-0.63,-0.63,-0.63,-0.63,-0.63,-0.63,-0.63,-0.6296,-0.6146,-0.6095,-0.6091,-0.5976,-0.5905,-0.5864,-0.5864,-0.5783,-0.5647,-0.5647,-0.5559,-0.5457,-0.5457,-0.5433,-0.5395,-0.5395,-0.5395,-0.5395,-0.5395,-0.5395,-0.5395,-0.5395,-0.5428,-0.5488,-0.5583,-0.5683,-0.5815,-0.5987,-0.6251,-0.6515,-0.6581,-0.6843,-0.7106,-0.7302,-0.7526,-0.7749,-0.7889,-0.8144,-0.8436,-0.8668,-0.8861,-0.9087,-0.9376,-0.9562,-0.9722,-0.9989,-0.9888,-0.9849,-0.9989,-1.0333,-1.0744,-1.1185,-1.1529,-1.1872,-1.222,-1.2529,-1.2805,-1.2981,-1.3368,-1.3631,-1.3782,-1.4231,-1.4558,-1.4686,-1.4961,-1.5225,-1.5478,-1.5594,-1.5807,-1.6058,-1.6374,-1.6545,-1.2305,-1.2305,-1.2187,-1.1781,-1.1706,-1.1484,-1.0663,-1.0136,-0.9572,-0.8871,-0.8157,-0.7598,-0.7257,-0.6857,-0.6578,-0.6589,-0.6422,-0.6293,-0.63,-0.63,-0.63,-0.63,-0.63,-0.63,-0.63,-0.63,-0.63,-0.63,-0.63,-0.63,-0.63,-0.63,-0.63,-0.63,-0.63,-0.63,-0.63,-0.63,-0.63,-0.63,-0.6293,-0.6293,-0.6293,-0.6286,-0.6166,-0.5986,-0.5986,-0.5935,-0.5793,-0.5793,-0.5711,-0.5583,-0.5583,-0.5525,-0.5395,-0.5395,-0.5395,-0.5395,-0.5395,-0.5395,-0.5395,-0.5395,-0.5491,-0.5583,-0.5617,-0.5881,-0.6214,-0.635,-0.6548,-0.6773,-0.7101,-0.733,-0.7526,-0.7661,-0.7949,-0.8236,-0.8447,-0.8641,-0.8894,-0.921,-0.9396,-0.9556,-0.9734,-0.9894,-1.011,-1.053,-1.0561,-1.0561,-1.0561,-1.0965,-1.1334,-1.156,-1.1872,-1.222,-1.2567,-1.2836,-1.3133,-1.345,-1.367,-1.401,-1.444,-1.4499,-1.4715,-1.5186,-1.5313,-1.5478,-1.5701,-1.6144,-1.6374,-1.6374,-1.6648,-1.6959,-1.2305,-1.2305,-1.2187,-1.1781,-1.1706,-1.1484,-1.0663,-1.0136,-0.9572,-0.8871,-0.8166,-0.7649,-0.7434,-0.6949,-0.666,-0.6768,-0.6531,-0.63,-0.63,-0.63,-0.63,-0.63,-0.63,-0.63,-0.63,-0.63,-0.63,-0.63,-0.63,-0.63,-0.63,-0.63,-0.63,-0.63,-0.63,-0.63,-0.63,-0.63,-0.63,-0.63,-0.63,-0.63,-0.63,-0.63,-0.6272,-0.6183,-0.6183,-0.6095,-0.5915,-0.5915,-0.5864,-0.5732,-0.5732,-0.564,-0.5545,-0.5545,-0.5548,-0.5521,-0.5425,-0.5458,-0.5521,-0.5521,-0.5653,-0.5818,-0.5951,-0.6148,-0.6383,-0.6548,-0.6905,-0.726,-0.7363,-0.7684,-0.8009,-0.8187,-0.8414,-0.8635,-0.8797,-0.9049,-0.93,-0.9428,-0.9652,-0.9951,-1.0276,-1.0371,-1.0586,-1.1185,-1.1153,-1.1122,-1.1247,-1.1466,-1.1778,-1.222,-1.2375,-1.2644,-1.3155,-1.3277,-1.3519,-1.3941,-1.4151,-1.438,-1.4617,-1.4942,-1.5186,-1.5332,-1.5614,-1.5875,-1.6173,-1.6316,-1.6545,-1.6797,-1.7043,-1.7239,-1.2305,-1.2305,-1.2187,-1.1781,-1.1706,-1.1484,-1.0663,-1.0136,-0.9572,-0.8871,-0.8225,-0.775,-0.7535,-0.7078,-0.6745,-0.6884,-0.6563,-0.63,-0.63,-0.63,-0.63,-0.63,-0.63,-0.632,-0.6371,-0.6375,-0.6354,-0.6303,-0.63,-0.63,-0.63,-0.63,-0.63,-0.63,-0.63,-0.63,-0.63,-0.63,-0.63,-0.63,-0.63,-0.63,-0.63,-0.63,-0.63,-0.63,-0.63,-0.6242,-0.6112,-0.6112,-0.602,-0.5881,-0.5881,-0.5832,-0.5772,-0.5772,-0.5776,-0.5765,-0.5542,-0.5587,-0.5719,-0.5719,-0.5885,-0.609,-0.6214,-0.6416,-0.6651,-0.6905,-0.7232,-0.7554,-0.7787,-0.8079,-0.8371,-0.8603,-0.8861,-0.9081,-0.9177,-0.9428,-0.9684,-0.9779,-1.0009,-1.0301,-1.0618,-1.0839,-1.109,-1.1529,-1.1685,-1.1778,-1.184,-1.1996,-1.2243,-1.2713,-1.2858,-1.3094,-1.3571,-1.3752,-1.3992,-1.43,-1.4597,-1.4804,-1.4942,-1.5303,-1.5594,-1.5739,-1.5972,-1.623,-1.6545,-1.6658,-1.6846,-1.7106,-1.7396,-1.759,-1.2305,-1.2305,-1.2187,-1.1781,-1.1706,-1.1484,-1.0663,-1.0136,-0.9572,-0.8871,-0.8322,-0.7889,-0.7557,-0.7195,-0.693,-0.6899,-0.6563,-0.63,-0.63,-0.63,-0.63,-0.63,-0.6306,-0.6364,-0.6501,-0.6518,-0.6467,-0.6334,-0.6317,-0.631,-0.631,-0.6303,-0.63,-0.63,-0.63,-0.63,-0.63,-0.63,-0.63,-0.63,-0.63,-0.63,-0.63,-0.63,-0.63,-0.63,-0.63,-0.63,-0.63,-0.63,-0.6211,-0.604,-0.604,-0.6063,-0.6108,-0.6108,-0.6153,-0.6165,-0.5795,-0.5767,-0.5921,-0.5921,-0.6152,-0.6416,-0.6449,-0.6683,-0.7007,-0.7396,-0.7526,-0.7689,-0.8349,-0.8517,-0.8641,-0.8952,-0.9268,-0.9518,-0.9518,-0.9786,-1.0079,-1.0276,-1.0498,-1.0688,-1.0807,-1.1279,-1.1654,-1.1654,-1.2189,-1.2529,-1.2336,-1.2498,-1.2744,-1.2989,-1.3338,-1.3601,-1.383,-1.424,-1.4529,-1.4529,-1.4961,-1.5293,-1.5439,-1.5643,-1.5943,-1.6402,-1.6431,-1.6573,-1.6846,-1.7155,-1.7334,-1.7362,-1.7717,-1.7991,-1.2305,-1.2305,-1.2187,-1.1781,-1.1706,-1.1484,-1.0663,-1.0136,-0.9572,-0.8871,-0.831,-0.7896,-0.7566,-0.7285,-0.7066,-0.6919,-0.6676,-0.649,-0.6338,-0.63,-0.63,-0.63,-0.6395,-0.647,-0.6508,-0.6576,-0.6627,-0.659,-0.6521,-0.6457,-0.6457,-0.6358,-0.63,-0.63,-0.63,-0.63,-0.63,-0.63,-0.63,-0.63,-0.63,-0.63,-0.63,-0.63,-0.63,-0.63,-0.63,-0.63,-0.63,-0.6451,-0.65,-0.6465,-0.6614,-0.6591,-0.6493,-0.6493,-0.6498,-0.6569,-0.662,-0.6397,-0.6148,-0.6251,-0.6416,-0.6679,-0.6909,-0.7167,-0.7396,-0.7596,-0.7922,-0.8284,-0.8452,-0.8861,-0.9268,-0.9364,-0.9626,-0.9888,-0.9888,-1.0174,-1.0466,-1.0498,-1.0965,-1.1373,-1.1404,-1.1809,-1.2182,-1.2313,-1.259,-1.2683,-1.2529,-1.2858,-1.3186,-1.3368,-1.367,-1.4001,-1.43,-1.4529,-1.4795,-1.5147,-1.5274,-1.5507,-1.5912,-1.6105,-1.6306,-1.6552,-1.674,-1.6948,-1.7166,-1.7368,-1.759,-1.7904,-1.8002,-1.8193,-1.2305,-1.2305,-1.2231,-1.1892,-1.1781,-1.149,-1.0745,-1.0164,-0.9579,-0.881,-0.8299,-0.7903,-0.7557,-0.7321,-0.7173,-0.7034,-0.6791,-0.6563,-0.6451,-0.6374,-0.6323,-0.6385,-0.6463,-0.6566,-0.6661,-0.6749,-0.6827,-0.6888,-0.6695,-0.6573,-0.6573,-0.6474,-0.6395,-0.6395,-0.633,-0.63,-0.63,-0.63,-0.63,-0.63,-0.63,-0.63,-0.63,-0.63,-0.63,-0.63,-0.6374,-0.6412,-0.6451,-0.6637,-0.6714,-0.6753,-0.6865,-0.6923,-0.6995,-0.6995,-0.7076,-0.7215,-0.7324,-0.7165,-0.6941,-0.6827,-0.6908,-0.7101,-0.7265,-0.7554,-0.7847,-0.8019,-0.8317,-0.8673,-0.8894,-0.9204,-0.955,-0.9684,-1.0009,-1.0269,-1.0269,-1.0561,-1.087,-1.1003,-1.1341,-1.1654,-1.1872,-1.2212,-1.2521,-1.2744,-1.295,-1.3103,-1.3103,-1.3277,-1.3541,-1.3902,-1.4112,-1.4359,-1.4695,-1.4893,-1.5118,-1.5381,-1.5681,-1.5951,-1.621,-1.6495,-1.6751,-1.6892,-1.7106,-1.7329,-1.7562,-1.77,-1.792,-1.822,-1.8356,-1.8545,-1.2305,-1.2305,-1.2268,-1.204,-1.1829,-1.1475,-1.0846,-1.0213,-0.953,-0.8808,-0.8295,-0.7894,-0.7588,-0.7356,-0.7248,-0.7198,-0.6896,-0.6679,-0.6602,-0.6451,-0.639,-0.6494,-0.6528,-0.6614,-0.6859,-0.6903,-0.6964,-0.7088,-0.6902,-0.6753,-0.6732,-0.6586,-0.6532,-0.6511,-0.6375,-0.63,-0.63,-0.63,-0.63,-0.63,-0.63,-0.63,-0.63,-0.6338,-0.6338,-0.6335,-0.6563,-0.6641,-0.6637,-0.6865,-0.6942,-0.698,-0.7019,-0.7253,-0.7561,-0.7561,-0.7723,-0.788,-0.7917,-0.7975,-0.7952,-0.7541,-0.7472,-0.7597,-0.7663,-0.7937,-0.8301,-0.8544,-0.8738,-0.899,-0.9428,-0.9588,-0.9684,-1.0015,-1.0371,-1.0618,-1.0656,-1.094,-1.1279,-1.1591,-1.1685,-1.1872,-1.2274,-1.2552,-1.2797,-1.3042,-1.3368,-1.3662,-1.386,-1.3731,-1.3872,-1.444,-1.4558,-1.4745,-1.5029,-1.5303,-1.5507,-1.5536,-1.6077,-1.6441,-1.6516,-1.6853,-1.7134,-1.739,-1.7507,-1.7717,-1.7963,-1.81,-1.8275,-1.8503,-1.8718,-1.8905,-1.2305,-1.2305,-1.2268,-1.204,-1.1681,-1.1249,-1.0803,-1.0067,-0.9344,-0.894,-0.8407,-0.7948,-0.7723,-0.7548,-0.7387,-0.724,-0.7129,-0.6988,-0.6641,-0.6563,-0.6542,-0.6494,-0.6583,-0.6732,-0.6869,-0.6991,-0.7068,-0.7095,-0.7048,-0.697,-0.6852,-0.6746,-0.6603,-0.6515,-0.6375,-0.63,-0.63,-0.63,-0.63,-0.63,-0.63,-0.63,-0.63,-0.649,-0.6563,-0.6563,-0.6753,-0.6865,-0.6865,-0.7061,-0.7257,-0.7407,-0.7569,-0.7799,-0.7987,-0.7987,-0.8118,-0.831,-0.8495,-0.8552,-0.8493,-0.8094,-0.799,-0.8092,-0.8529,-0.8569,-0.8544,-0.9022,-0.9268,-0.9428,-0.9696,-0.9951,-1.0206,-1.0428,-1.0618,-1.0807,-1.0965,-1.1279,-1.1622,-1.1934,-1.2251,-1.2436,-1.2529,-1.2972,-1.3359,-1.342,-1.3791,-1.4151,-1.4359,-1.435,-1.438,-1.4499,-1.4942,-1.5264,-1.5332,-1.5643,-1.5933,-1.6202,-1.6345,-1.663,-1.711,-1.7211,-1.7423,-1.7799,-1.792,-1.8084,-1.8302,-1.8464,-1.864,-1.8893,-1.8934,-1.9105,-1.2305,-1.2305,-1.2268,-1.2187,-1.1715,-1.1219,-1.0862,-1.0149,-0.9432,-0.8937,-0.8521,-0.8156,-0.7769,-0.7734,-0.7686,-0.7413,-0.737,-0.7257,-0.6949,-0.6718,-0.6649,-0.6762,-0.6737,-0.679,-0.6974,-0.7055,-0.7095,-0.7095,-0.7095,-0.7065,-0.7001,-0.6824,-0.663,-0.6518,-0.6375,-0.63,-0.63,-0.63,-0.63,-0.63,-0.6412,-0.6451,-0.6451,-0.6676,-0.6753,-0.6788,-0.7096,-0.7211,-0.7249,-0.7526,-0.7718,-0.7829,-0.8025,-0.825,-0.8441,-0.8513,-0.8742,-0.9051,-0.9127,-0.9321,-0.9432,-0.9243,-0.8974,-0.8798,-0.9147,-0.9248,-0.9288,-0.9545,-0.9671,-0.9817,-1.0149,-1.0339,-1.0523,-1.0814,-1.1028,-1.1279,-1.156,-1.1809,-1.2027,-1.2313,-1.259,-1.2858,-1.3042,-1.3398,-1.3731,-1.3992,-1.421,-1.4449,-1.4725,-1.4883,-1.4971,-1.4971,-1.5235,-1.5497,-1.5729,-1.6019,-1.6288,-1.6602,-1.6772,-1.7026,-1.7407,-1.7601,-1.781,-1.7991,-1.8247,-1.8491,-1.8706,-1.8786,-1.8934,-1.921,-1.921,-1.9489,-1.2305,-1.2305,-1.2285,-1.2225,-1.1739,-1.1205,-1.0889,-1.0211,-0.9499,-0.9003,-0.8705,-0.8375,-0.7947,-0.7906,-0.7868,-0.7638,-0.7534,-0.7443,-0.7288,-0.6949,-0.6795,-0.6987,-0.6864,-0.6856,-0.7068,-0.7095,-0.7095,-0.7095,-0.7095,-0.7095,-0.7095,-0.6892,-0.6678,-0.6566,-0.6419,-0.633,-0.63,-0.6338,-0.6377,-0.6377,-0.6563,-0.6676,-0.6676,-0.6903,-0.7019,-0.7057,-0.7446,-0.7638,-0.7714,-0.8025,-0.8217,-0.8327,-0.8479,-0.8665,-0.8932,-0.9079,-0.9387,-0.9733,-0.9771,-1.003,-1.0331,-1.0438,-1.0033,-0.9604,-0.9774,-0.9955,-1.0092,-1.022,-1.0265,-1.0419,-1.0813,-1.0894,-1.0942,-1.1284,-1.1631,-1.1968,-1.2351,-1.2523,-1.2711,-1.297,-1.3219,-1.3459,-1.3759,-1.4035,-1.4319,-1.4696,-1.4886,-1.5097,-1.5355,-1.5644,-1.5831,-1.59,-1.5732,-1.5768,-1.6124,-1.6392,-1.669,-1.7031,-1.7364,-1.7689,-1.7947,-1.8282,-1.8515,-1.8598,-1.8873,-1.9134,-1.939,-1.9416,-1.9578,-1.9803,-1.9803,-2.0132,-1.2305,-1.2305,-1.2238,-1.2013,-1.1585,-1.1088,-1.0642,-1.0021,-0.9458,-0.928,-0.8861,-0.849,-0.8446,-0.8032,-0.7764,-0.7929,-0.7702,-0.7488,-0.746,-0.7296,-0.7109,-0.7028,-0.6985,-0.7021,-0.7112,-0.7095,-0.7095,-0.7095,-0.7095,-0.7095,-0.7095,-0.695,-0.6837,-0.6685,-0.6573,-0.6429,-0.6303,-0.649,-0.6563,-0.6563,-0.6788,-0.6865,-0.6903,-0.7288,-0.7446,-0.7484,-0.7872,-0.8136,-0.8327,-0.8365,-0.8589,-0.8927,-0.8927,-0.9198,-0.9506,-0.9544,-0.9809,-1.018,-1.0368,-1.055,-1.0812,-1.1186,-1.0882,-1.0407,-1.0545,-1.0614,-1.0717,-1.1225,-1.1376,-1.1424,-1.179,-1.1789,-1.1772,-1.2096,-1.2491,-1.2898,-1.336,-1.3629,-1.386,-1.4253,-1.4449,-1.4612,-1.4815,-1.5226,-1.5547,-1.5579,-1.6151,-1.6592,-1.6633,-1.6904,-1.7246,-1.7554,-1.6831,-1.6316,-1.6374,-1.6712,-1.7222,-1.7839,-1.82,-1.8718,-1.9464,-1.9639,-1.9872,-2.0184,-2.0344,-2.0487,-2.0625,-2.0823,-2.0964,-2.1132,-2.1132,-2.1241,-1.2305,-1.2178,-1.2011,-1.1933,-1.1413,-1.0835,-1.0658,-1.012,-0.9632,-0.946,-0.9177,-0.8894,-0.8549,-0.8435,-0.8284,-0.8042,-0.8006,-0.7952,-0.7736,-0.7526,-0.7348,-0.727,-0.7219,-0.7282,-0.7375,-0.7526,-0.7588,-0.7588,-0.7588,-0.7588,-0.7588,-0.731,-0.7066,-0.6867,-0.6873,-0.6795,-0.6679,-0.6753,-0.6788,-0.6788,-0.6984,-0.7138,-0.7288,-0.7565,-0.7795,-0.8059,-0.8327,-0.8589,-0.878,-0.9013,-0.9203,-0.9387,-0.9609,-0.9836,-0.9992,-1.0218,-1.0513,-1.0775,-1.0962,-1.1186,-1.1409,-1.1669,-1.1673,-1.1584,-1.1505,-1.1458,-1.1486,-1.1844,-1.1957,-1.2051,-1.2289,-1.2557,-1.2826,-1.3016,-1.3287,-1.3631,-1.4057,-1.4288,-1.4453,-1.4756,-1.5074,-1.5334,-1.5398,-1.5753,-1.6064,-1.6329,-1.6614,-1.6898,-1.719,-1.744,-1.7719,-1.8058,-1.758,-1.739,-1.7747,-1.7943,-1.8313,-1.8971,-1.914,-1.9477,-1.9977,-2.0199,-2.0389,-2.0517,-2.0758,-2.097,-2.1112,-2.1168,-2.1281,-2.1409,-2.1409,-2.1613,-1.2198,-1.2024,-1.1866,-1.1692,-1.1194,-1.0738,-1.0621,-1.0193,-0.9798,-0.9626,-0.9428,-0.9177,-0.8802,-0.8712,-0.8648,0.0,-0.831,-0.8217,-0.8105,-0.7795,-0.7553,-0.7501,-0.7471,-0.7511,-0.7584,-0.7799,-0.79,-0.79,-0.79,-0.79,-0.79,-0.7696,-0.7447,-0.7116,-0.7119,-0.7032,-0.6903,-0.7019,-0.7096,-0.7096,-0.7334,-0.7526,-0.7676,-0.7949,-0.8217,-0.8518,-0.8818,-0.9079,-0.9306,-0.9652,-0.9809,-0.9884,-1.0255,-1.0406,-1.0519,-1.085,-1.1111,-1.1298,-1.1595,-1.1744,-1.1929,-1.2268,-1.2452,-1.2562,-1.2526,-1.2419,-1.232,-1.2542,-1.2741,-1.2927,-1.3002,-1.338,-1.3743,-1.3979,-1.4188,-1.4455,-1.4891,-1.5117,-1.5309,-1.5526,-1.5891,-1.6178,-1.6211,-1.6505,-1.6831,-1.709,-1.7347,-1.7604,-1.7933,-1.8249,-1.8522,-1.8803,-1.8709,-1.8654,-1.8769,-1.8928,-1.9265,-1.9861,-2.0051,-2.0328,-2.0772,-2.1026,-2.116,-2.1219,-2.1505,-2.1692,-2.1766,-2.1811,-2.1868,-2.197,-2.197,-2.2184,-1.1986,-1.1906,-1.1765,-1.1149,-1.0995,-1.0883,-1.0405,-1.0149,-0.9958,-0.9836,-0.9536,-0.9306,-0.9306,-0.8861,-0.8635,-0.913,-0.8534,-0.8154,-0.8642,-0.8178,-0.7755,-0.7696,-0.7707,-0.7673,-0.7584,-0.7799,-0.79,-0.79,-0.79,-0.79,-0.79,-0.8084,-0.7954,-0.7413,-0.72,-0.7032,-0.6903,-0.7288,-0.7484,-0.7484,-0.791,-0.8102,-0.8102,-0.8513,-0.8699,-0.8737,-0.9316,-0.9695,-0.9922,-1.0105,-1.0331,-1.0519,-1.07,-1.0925,-1.1111,-1.1335,-1.1521,-1.1744,-1.215,-1.2298,-1.2378,-1.2973,-1.3193,-1.3273,-1.3645,-1.3492,-1.3229,-1.3419,-1.392,-1.4339,-1.4126,-1.4247,-1.4496,-1.4908,-1.5146,-1.5429,-1.5974,-1.6359,-1.6629,-1.6855,-1.7054,-1.726,-1.7451,-1.7759,-1.7998,-1.7998,-1.863,-1.9088,-1.9088,-1.9561,-1.9944,-2.0063,-2.0387,-2.0137,-1.9077,-1.9406,-1.989,-2.0366,-2.0887,-2.1487,-2.2149,-2.2316,-2.2469,-2.2665,-2.2805,-2.2896,-2.2896,-2.3005,-2.3083,-2.3083,-2.3083,-2.3095,-1.1986,-1.1724,-1.1476,-1.1089,-1.0842,-1.0707,-1.055,-1.0333,-1.0142,-0.9989,-0.9766,-0.9574,-0.9338,-0.9049,-0.892,-0.916,-0.875,-0.8478,-0.868,-0.8403,-0.8085,-0.7806,-0.8006,-0.8218,-0.8264,-0.8624,-0.8863,-0.8863,-0.8863,-0.8761,-0.8588,-0.8535,-0.833,-0.7814,-0.7922,-0.7898,-0.7718,-0.7829,-0.791,-0.791,-0.8174,-0.8365,-0.8513,-0.8775,-0.9117,-0.9539,-0.9733,-0.9997,-1.0331,-1.0663,-1.085,-1.0925,-1.1298,-1.1446,-1.1558,-1.1892,-1.2077,-1.215,-1.2562,-1.2783,-1.2973,-1.3309,-1.3593,-1.384,-1.4145,-1.4036,-1.3912,-1.4325,-1.4577,-1.4804,-1.5002,-1.5223,-1.5407,-1.567,-1.5878,-1.6096,-1.6559,-1.6726,-1.6899,-1.722,-1.7564,-1.7769,-1.7837,-1.811,-1.8448,-1.8707,-1.8942,-1.9264,-1.9715,-1.9944,-2.0237,-2.0796,-2.0967,-2.0862,-2.0523,-2.0726,-2.1024,-2.1385,-2.1718,-2.2005,-2.2328,-2.2604,-2.2757,-2.286,-2.2969,-2.3047,-2.3047,-2.3078,-2.3108,-2.3108,-2.3108,-2.3108,0.0,-1.1563,-1.1295,-1.0929,-1.0727,-1.0593,-1.0593,-1.0428,-1.0238,-1.0047,-0.9894,-0.9702,-0.944,-0.9242,-0.9182,-0.9373,-0.9066,-0.8837,-0.8911,-0.8703,-0.8392,-0.8048,-0.8268,-0.8468,-0.8679,-0.9077,-0.9313,-0.9428,-0.9408,-0.9352,-0.9179,-0.9,-0.881,-0.8482,-0.8414,-0.8337,-0.8217,-0.8365,-0.8441,-0.8441,-0.8632,-0.8861,-0.9046,-0.9236,-0.9576,-1.003,-1.0255,-1.0475,0.0,-1.1149,-1.1335,-1.1372,-1.1781,-1.1929,-1.1966,-1.2378,-1.2562,-1.2673,-1.301,-1.3302,-1.3593,-1.3811,-1.4245,-1.4669,-1.4856,-1.4748,-1.4597,-1.5007,-1.5256,-1.539,-1.5674,-1.5859,-1.6079,-1.6351,-1.6491,-1.6621,-1.7047,-1.7185,-1.7314,-1.7642,-1.7906,-1.8144,-1.8178,-1.8482,-1.8808,-1.9075,-1.933,-1.9616,-2.0042,-2.0334,-2.07,-2.1158,-2.136,-2.1486,-2.158,-2.1663,-2.1788,-2.1999,-2.2247,-2.2463,-2.2574,-2.2787,-2.2909,-2.2969,-2.3047,-2.3108,-2.3108,-2.3108,-2.3108,-2.3108,-2.3108,-2.3108,0.0,-1.1389,-1.1283,-1.0734,-1.0593,-1.0593,-1.0593,-1.0434,0.0,-1.0015,-0.9894,-0.974,-0.9548,-0.9376,-0.9379,-0.9662,-0.9421,-0.923,-0.9299,-0.8975,-0.8659,-0.8457,-0.8453,-0.8604,-0.8879,-0.919,-0.9408,-0.9591,-0.9606,-0.9615,-0.9601,-0.9435,-0.9326,-0.935,-0.8807,-0.8518,-0.8479,-0.8851,-0.9036,-0.9036,-0.9279,-0.9473,-0.9657,-0.9846,-1.0067,-1.0293,-1.085,-1.1111,-1.1186,-1.1595,-1.1744,-1.1781,-1.2194,-1.2342,-1.2415,-1.2783,-1.3083,-1.3266,-1.3492,-1.3811,-1.4201,-1.4569,-1.507,-1.5576,-1.5761,-1.5576,-1.5311,-1.5497,-1.585,-1.6132,-1.6167,-1.6272,-1.6447,-1.6839,-1.6943,-1.7047,-1.747,-1.7623,-1.7784,-1.8008,-1.8202,-1.8405,-1.8516,-1.8875,-1.9131,-1.9164,-1.9715,-2.0139,-2.0161,-2.0764,-2.1221,-2.1265,-2.1643,-2.1999,-2.2197,-2.2228,-2.2216,-2.2216,-2.2537,-2.2769,-2.2878,-2.2946,-2.3032,-2.3158,-2.3208,-2.3221,-2.3221,-2.3221,-2.3221,-2.3221,-2.3221,-2.3208,0.0,0.0,-1.1283,-1.0734,-1.0593,-1.0561,0.0,-1.0339,-1.0206,-0.9894,-0.9836,-0.974,-0.9548,-0.9376,-0.9379,-0.9662,-0.9421,-0.9266,-0.9482,-0.9198,-0.8908,-0.888,-0.8994,-0.9132,-0.9192,-0.9557,-0.9761,-0.981,-0.9848,-0.9826,-0.9847,-0.9775,-0.9759,-0.9741,-0.9754,-0.9539,-0.9094,-0.9354,-0.9463,-0.9468,-0.9803,-0.9992,-1.0067,-1.0255,-1.055,-1.0887,-1.1037,-1.126,-1.1595,-1.2003,-1.2157,-1.2187,-1.2599,-1.2863,-1.301,-1.3273,-1.3492,-1.3717,-1.4072,-1.4317,-1.4605,-1.5292,-1.5718,-1.5991,-1.614,-1.6026,-1.5921,-1.6061,-1.6307,-1.6508,-1.6656,-1.6864,-1.7063,-1.7289,-1.7367,-1.747,-1.7803,-1.7906,-1.8032,-1.8313,-1.8674,-1.8931,-1.8942,-1.9241,-1.9572,-1.9813,-2.0009,-2.0302,-2.086,-2.1094,-2.1348,-2.1706,-2.1968,-2.2185,-2.2328,-2.2359,-2.2432,-2.2555,-2.2739,-2.2878,-2.2909,-2.3442,-2.3772,-2.3803,-2.4173,-2.4399,-2.4399,-2.4399,-2.4399,-2.4399,-2.4399,-2.4224,0.0,-1.1354,-1.1283,-1.0734,-1.053,-1.0434,-1.0333,0.0,-1.0085,-0.9836,-0.9804,-0.974,-0.9548,-0.9446,-0.9483,-0.98,-0.9596,-0.9485,-0.9594,-0.9316,-0.9122,-0.9122,-0.9307,-0.9456,-0.9556,-0.9955,-1.0274,-1.0344,-1.0375,-1.0377,-1.0361,-1.0241,-1.016,-1.0186,-1.0293,-1.0143,-0.9733,-0.9922,-0.9992,-1.003,-1.0218,-1.0438,-1.0625,-1.0738,-1.0999,-1.1372,-1.1484,-1.1706,-1.2003,-1.2305,-1.2489,-1.2636,-1.301,-1.3236,-1.3382,-1.3783,-1.4036,-1.4217,-1.4505,-1.4864,-1.5256,-1.5823,-1.6246,-1.6482,-1.6551,-1.6656,-1.6735,-1.663,-1.6795,-1.7038,-1.7151,-1.7254,-1.7382,-1.7666,-1.7735,-1.7813,-1.8144,-1.8313,-1.8448,-1.8707,-1.9008,-1.9241,-1.944,-1.966,-1.9955,-2.0269,-2.0506,-2.0752,-2.1242,-2.1652,-2.2027,-2.2357,-2.2794,-2.313,-2.3396,-2.3415,-2.3348,-2.3183,-2.353,-2.376,-2.376,-2.4154,-2.4381,-2.4381,-2.4637,-2.4788,-2.4788,-2.4788,-2.4852,-2.4936,-2.4936,-2.4836,-1.1353,-1.1224,-1.1181,-1.0637,-1.0364,-1.0244,-1.0244,-1.0079,-0.9926,-0.9772,-0.974,-0.9708,-0.9516,-0.9516,-0.9619,-0.9938,-0.9909,-0.9788,-0.9755,-0.9582,-0.9473,-0.9473,-0.962,-0.9807,-0.9958,-1.0368,-1.0651,-1.0828,-1.0852,-1.085,-1.0927,-1.0714,-1.0625,-1.0663,-1.0663,-1.0594,-1.0438,-1.0556,-1.0588,-1.0588,-1.0663,-1.085,-1.1186,-1.1186,-1.1409,-1.1781,-1.1966,-1.2187,-1.2415,-1.2636,-1.2826,-1.3046,-1.3455,-1.3637,-1.3746,-1.4289,-1.4605,-1.4784,-1.5007,-1.547,-1.6008,-1.6316,-1.6665,-1.6978,-1.6978,-1.7254,-1.7505,-1.7151,-1.7289,-1.7539,-1.7573,-1.7608,-1.771,-1.8008,-1.8076,-1.8178,-1.8516,-1.8741,-1.8908,-1.9175,-1.9341,-1.9539,-1.99,-2.0172,-2.0444,-2.078,-2.1181,-2.1548,-2.1728,-2.2415,-2.2958,-2.3164,-2.3725,-2.4222,-2.4573,-2.4681,-2.4519,-2.4034,-2.4498,-2.4825,-2.4933,-2.4913,-2.4983,-2.5071,-2.5071,-2.5071,-2.5104,-2.5104,-2.5189,-2.5383,-2.5383,-2.5429,-1.1102,-1.0955,-1.0814,-1.0251,-1.0079,-1.0021,-0.99,-0.9868,-0.9766,-0.958,-0.9548,-0.9548,-0.9516,-0.9516,-0.9619,-0.9938,-1.0202,-1.0353,-1.0357,-1.0331,-1.0331,-1.0331,-1.0331,-1.038,-1.0419,-1.0457,-1.0517,-1.0551,-1.0561,-1.0726,-1.1065,-1.1023,-1.1149,-1.1521,-1.1521,-1.1484,-1.1484,-1.1149,-1.0999,-1.0999,-1.1335,-1.1558,-1.1595,-1.1595,-1.1818,-1.2224,-1.2224,-1.2452,-1.2826,-1.32,-1.3382,-1.3455,-1.4036,-1.4317,-1.4461,-1.4721,-1.5043,-1.539,-1.578,-1.6272,-1.6735,-1.6804,-1.7081,-1.7401,-1.7401,-1.7642,-1.7906,-1.7837,-1.7759,-1.7716,-1.7872,-1.8042,-1.8202,-1.8381,-1.8414,-1.8516,-1.8908,-1.9042,-1.9208,-1.9671,-1.9889,-2.0053,-2.027,-2.0961,-2.1527,-2.1757,-2.2301,-2.2891,-2.3356,-2.3559,-2.3739,-2.4067,-2.4349,-2.4541,-2.4573,-2.5136,-2.5415,-2.5314,-2.4988,-2.4988,-2.546,-2.5473,-2.5711,-2.6235,-2.6248,-2.6303,-2.6405,-2.6405,-2.6506,-2.6721,-2.6721,-2.6532,-1.0928,-1.0742,-1.0542,-0.9792,-0.976,-0.9862,-0.9804,-0.9708,-0.9612,-0.9516,-0.9516,-0.9516,-0.9516,-0.9516,-0.9619,-0.9938,-1.0375,-1.0625,-1.0513,-1.0513,-1.0513,-1.0513,-1.0594,-1.07,-1.0812,-1.0925,-1.1037,-1.1149,-1.1149,-1.1223,-1.1409,-1.1409,-1.1521,-1.1706,-1.1706,-1.1706,-1.1706,-1.1632,-1.1521,-1.1446,-1.1595,-1.1744,-1.1855,-1.1966,-1.2187,-1.2489,-1.2562,-1.2863,-1.3236,-1.3419,-1.3674,-1.4036,-1.4353,-1.4677,-1.4955,-1.539,-1.578,-1.6123,-1.6412,-1.676,-1.7072,-1.7185,-1.7461,-1.7779,-1.7779,-1.8008,-1.8279,-1.8279,-1.8202,-1.8168,-1.8245,-1.8347,-1.8472,-1.8741,-1.8808,-1.8908,-1.9274,-1.9528,-1.9801,-2.0335,-2.071,-2.1117,-2.1575,-2.208,-2.2496,-2.2762,-2.3174,-2.3561,-2.386,-2.4247,-2.4597,-2.4884,-2.5236,-2.5523,-2.5611,-2.5891,-2.6097,-2.6097,-2.5837,-2.5812,-2.6084,-2.6097,-2.6257,-2.6589,-2.6624,-2.6692,-2.6863,-2.6863,-2.6977,-2.7146,-2.7248,-2.7226,-1.0612,-1.0402,-1.0234,-0.9435,-0.9472,-0.967,-0.9638,-0.9542,-0.9446,-0.9446,-0.9484,-0.9516,-0.9516,-0.9618,-0.9763,-1.0025,-1.052,-1.0812,-1.0663,-1.0625,-1.0663,-1.07,-1.085,-1.1037,-1.1223,-1.1372,-1.1521,-1.1706,-1.1706,-1.1706,-1.1781,-1.1781,-1.1781,-1.1855,-1.1855,-1.1855,-1.1855,-1.204,-1.2003,-1.1781,-1.1855,-1.2003,-1.215,-1.2342,-1.2562,-1.2826,-1.2973,-1.3266,-1.3637,-1.3746,-1.4036,-1.4461,-1.4784,-1.5106,-1.5524,-1.6096,-1.6447,-1.6716,-1.6934,-1.7176,-1.7339,-1.7564,-1.7803,-1.8076,-1.811,-1.8347,-1.865,-1.865,-1.8789,-1.8883,-1.8671,-1.864,-1.8805,-1.9277,-1.9431,-1.9563,-1.998,-2.0324,-2.0687,-2.1218,-2.1654,-2.2114,-2.2752,-2.3129,-2.347,-2.3706,-2.4049,-2.4335,-2.4502,-2.5004,-2.5419,-2.5644,-2.6043,-2.6339,-2.6499,-2.6499,-2.6499,-2.6499,-2.6499,-2.6499,-2.6499,-2.6521,-2.6589,-2.6679,-2.676,-2.6863,-2.7079,-2.7113,-2.7214,-2.7436,-2.757,-2.7723,-0.9984,-0.9852,-0.9731,-0.9148,-0.9177,-0.9274,-0.9113,-0.9177,-0.9306,-0.9306,-0.9414,-0.9516,-0.9516,-0.9913,-1.025,-1.0251,-1.0731,-1.1074,-1.1074,-1.1074,-1.1149,-1.1298,-1.1335,-1.1446,-1.1632,-1.1669,-1.1669,-1.1706,-1.1706,-1.1781,-1.1966,-1.1966,-1.2077,-1.2268,-1.2261,-1.2261,-1.2261,-1.2452,-1.2378,-1.1966,-1.2378,-1.2526,-1.2562,-1.2783,-1.3083,-1.3455,-1.3455,-1.3702,-1.4093,-1.4389,-1.4569,-1.4641,-1.5407,-1.5929,-1.6272,-1.6691,-1.6874,-1.6943,-1.7332,-1.7554,-1.7706,-1.7896,-1.811,-1.8303,-1.8414,-1.8741,-1.9075,-1.9075,-1.9588,-1.9999,-1.9256,-1.9142,-1.9423,-2.0056,-2.0366,-2.0665,-2.1315,-2.1634,-2.1945,-2.248,-2.2593,-2.2775,-2.3193,-2.3944,-2.4494,-2.4506,-2.5227,-2.5834,-2.602,-2.6092,-2.6208,-2.6402,-2.6474,-2.6499,-2.6499,-2.6499,-2.6499,-2.6499,-2.6499,-2.6499,-2.6499,-2.6624,-2.6679,-2.6679,-2.6875,-2.7079,-2.7268,-2.7403,-2.7556,-2.7776,-2.798,-2.8131,-0.9731,-0.9526,-0.9271,-0.8646,-0.856,-0.8689,-0.8952,-0.9049,-0.9145,-0.9274,-0.9338,-0.9408,-0.9484,-0.9943,-1.0333,-1.0465,-1.0948,-1.1335,-1.1446,-1.1484,-1.1484,-1.1595,-1.1595,-1.1669,-1.1855,-1.1892,-1.1929,-1.2077,-1.2077,-1.2114,-1.2187,-1.2194,-1.2231,-1.2305,-1.2415,-1.2489,-1.2489,-1.2673,-1.2709,-1.2562,-1.2709,-1.279,-1.2783,-1.3119,-1.3346,-1.3528,-1.3891,-1.4173,-1.4425,-1.4685,-1.5007,-1.5399,-1.6061,-1.6447,-1.6691,-1.6968,-1.721,-1.7442,-1.7701,-1.794,-1.809,-1.8245,-1.8539,-1.8859,-1.9213,-1.9578,-1.9936,-2.0347,-2.0777,-2.0924,-2.0236,-2.0288,-2.0681,-2.1174,-2.1355,-2.1548,-2.2068,-2.2263,-2.2594,-2.326,-2.3559,-2.3871,-2.4467,-2.4938,-2.5244,-2.5395,-2.5787,-2.6097,-2.6179,-2.6305,-2.643,-2.6499,-2.6499,-2.6499,-2.6499,-2.6499,-2.6499,-2.6499,-2.6499,-2.6521,-2.6624,-2.6692,-2.6829,-2.7066,-2.7235,-2.7403,-2.7623,-2.7802,-2.7967,-2.8137,-2.8327,-2.8476,-0.9371,-0.9136,-0.8885,-0.8285,-0.8139,-0.8236,-0.8598,-0.8765,-0.8894,-0.9119,-0.921,-0.9338,-0.9484,-0.9877,-1.0264,-1.0557,-1.0988,-1.1384,-1.1657,-1.1706,-1.1706,-1.1781,-1.1781,-1.1855,-1.2077,-1.2077,-1.215,-1.2298,-1.2305,-1.2305,-1.2305,-1.2378,-1.2331,-1.2237,-1.2419,-1.2487,-1.2384,-1.2642,-1.2785,-1.2785,-1.2892,-1.2999,-1.3083,-1.3528,-1.3746,-1.3855,-1.4281,-1.4605,-1.4892,-1.5114,-1.5541,-1.6184,-1.6551,-1.6864,-1.7116,-1.7304,-1.7545,-1.7818,-1.8032,-1.8202,-1.8414,-1.8617,-1.8977,-1.9412,-1.9905,-2.0355,-2.0812,-2.1357,-2.1774,-2.2004,-2.1603,-2.1532,-2.1697,-2.2189,-2.2373,-2.2533,-2.304,-2.3236,-2.3537,-2.4167,-2.447,-2.4787,-2.5405,-2.5641,-2.5828,-2.598,-2.6166,-2.6305,-2.6305,-2.6396,-2.6499,-2.6499,-2.6499,-2.6499,-2.6499,-2.6521,-2.6555,-2.6555,-2.6636,-2.6658,-2.6679,-2.6829,-2.7032,-2.7369,-2.7523,-2.7723,-2.7973,-2.8164,-2.8327,-2.8449,-2.8688,-2.8881,-0.8816,-0.8695,-0.8583,-0.8098,-0.7987,-0.7987,-0.7987,-0.8252,-0.8544,-0.877,-0.9055,-0.9338,-0.9484,-0.9733,-1.0059,-1.0526,-1.0827,-1.1166,-1.1625,-1.17,-1.1774,-1.1966,-1.2003,-1.2077,-1.2261,-1.2298,-1.2298,-1.2291,-1.2291,-1.2291,-1.2291,-1.2475,-1.2456,-1.2112,-1.2283,-1.2242,-1.1901,-1.2316,-1.2526,-1.2526,-1.2863,-1.3174,-1.3528,-1.3912,-1.4274,-1.4605,-1.4605,-1.4963,-1.5541,-1.5726,-1.6254,-1.6908,-1.6908,-1.7151,-1.7539,-1.7647,-1.7828,-1.8042,-1.8236,-1.8414,-1.8583,-1.8985,-1.943,-1.9906,-2.0465,-2.1073,-2.1662,-2.1838,-2.2542,-2.3255,-2.3466,-2.2867,-2.2386,-2.307,-2.3361,-2.3686,-2.4338,-2.4646,-2.4885,-2.5241,-2.5312,-2.5418,-2.5828,-2.6062,-2.6213,-2.6213,-2.6361,-2.6499,-2.6499,-2.6499,-2.6499,-2.6499,-2.6499,-2.6499,-2.6499,-2.6624,-2.6679,-2.6679,-2.6909,-2.6909,-2.6714,-2.71,-2.7369,-2.749,-2.7689,-2.7973,-2.8287,-2.8509,-2.867,-2.8835,-2.9139,-2.9418,-0.8167,-0.7948,-0.7745,-0.7342,-0.7237,-0.7302,-0.7591,-0.7922,-0.8214,-0.8511,-0.8958,-0.9306,-0.9344,-0.9661,-1.0031,-1.0447,-1.0754,-1.1067,-1.1425,-1.1686,-1.1853,-1.1925,-1.2105,-1.2151,-1.2017,-1.2033,-1.1911,-1.1662,-1.1683,-1.1718,-1.1858,-1.1935,-1.1957,-1.1964,-1.2281,-1.2409,-1.2316,-1.2654,-1.2931,-1.3073,-1.3307,-1.3533,-1.3734,-1.398,-1.4375,-1.4828,-1.5256,-1.5549,-1.5761,-1.6351,-1.67,-1.6943,-1.722,-1.7451,-1.7647,-1.7828,-1.8032,-1.8236,-1.8539,-1.8988,-1.9459,-1.9721,-2.039,-2.115,-2.165,-2.2236,-2.2825,-2.3389,-2.382,-2.415,-2.4376,-2.4224,-2.4083,-2.427,-2.4376,-2.4518,-2.4969,-2.5111,-2.5253,-2.5653,-2.5723,-2.5793,-2.6062,-2.6166,-2.6236,-2.6396,-2.6465,-2.6499,-2.6499,-2.6499,-2.6499,-2.6499,-2.6589,-2.6658,-2.6658,-2.6807,-2.6909,-2.6909,-2.7113,-2.7167,-2.7134,-2.7335,-2.7523,-2.7723,-2.8151,-2.8425,-2.8509,-2.8912,-2.9198,-2.9369,-2.956,-2.9761,-0.7807,-0.7593,-0.7399,-0.701,-0.6913,-0.6979,-0.7297,-0.7754,-0.8144,-0.8447,-0.8861,-0.921,-0.9274,-0.9539,-0.9912,-1.0421,-1.0646,-1.0895,-1.1341,-1.1583,-1.169,-1.169,-1.1844,-1.1884,-1.171,-1.169,-1.1617,-1.1409,-1.1464,-1.156,-1.1703,-1.184,-1.1913,-1.1928,-1.2262,-1.2435,-1.2432,-1.2693,-1.2928,-1.3098,-1.3348,-1.3623,-1.3938,-1.4255,-1.4645,-1.505,-1.579,-1.6175,-1.6289,-1.6795,-1.7107,-1.7245,-1.7486,-1.7725,-1.7954,-1.8066,-1.8269,-1.8569,-1.9012,-1.953,-1.9996,-2.053,-2.1218,-2.198,-2.2586,-2.3167,-2.3727,-2.4301,-2.4562,-2.4778,-2.4957,-2.5064,-2.5099,-2.5028,-2.4981,-2.5087,-2.5465,-2.5535,-2.5641,-2.5945,-2.6015,-2.6084,-2.627,-2.6339,-2.6374,-2.6499,-2.6499,-2.6499,-2.6499,-2.6499,-2.6521,-2.6555,-2.6658,-2.6726,-2.6794,-2.7011,-2.7146,-2.7214,-2.7403,-2.7628,-2.7964,-2.7754,-2.7789,-2.8118,-2.8457,-2.8716,-2.9004,-2.9543,-2.9954,-3.0202,-3.0617,-3.0888,-0.7519,-0.7419,-0.7324,-0.6943,-0.6848,-0.6942,-0.7138,-0.7684,-0.8204,-0.8414,-0.8732,-0.9017,-0.9242,-0.9376,-0.9691,-1.0357,-1.0468,-1.0651,-1.1242,-1.1335,-1.1349,-1.1349,-1.1375,-1.1382,-1.1355,-1.1349,-1.1376,-1.1349,-1.1519,-1.1621,-1.1655,-1.1959,-1.2092,-1.1999,-1.2218,-1.2339,-1.2344,-1.256,-1.2744,-1.2867,-1.3186,-1.3607,-1.4099,-1.4612,-1.5002,-1.5334,-1.6234,-1.6751,-1.6978,-1.7176,-1.7432,-1.7706,-1.774,-1.7988,-1.8303,-1.8337,-1.8539,-1.8903,-1.9603,-1.9996,-2.0376,-2.1344,-2.2035,-2.2598,-2.3359,-2.3893,-2.4381,-2.4754,-2.4992,-2.5182,-2.5312,-2.5488,-2.5571,-2.5418,-2.5382,-2.5453,-2.5828,-2.5945,-2.598,-2.6201,-2.6236,-2.6305,-2.6465,-2.6499,-2.6499,-2.6499,-2.6499,-2.6499,-2.6521,-2.6521,-2.6555,-2.6726,-2.6798,-2.6905,-2.7122,-2.7364,-2.7559,-2.7727,-2.7914,-2.8352,-2.9113,-2.8372,-2.8225,-2.875,-2.8814,-2.9169,-2.9771,-3.0429,-3.0935,-3.1249,-3.2014,-3.2434,-0.672,-0.6627,-0.6581,-0.6401,-0.6544,-0.6778,-0.6942,-0.733,-0.7749,-0.8052,-0.8376,-0.8705,-0.9017,-0.921,-0.9522,-1.0033,-1.011,-1.0258,-1.0703,-1.0942,-1.1089,-1.1089,-1.1255,-1.1336,-1.1109,-1.1089,-1.1055,-1.0948,-1.0967,-1.1127,-1.1376,-1.1606,-1.1767,-1.1851,-1.2289,-1.2546,-1.2529,-1.2942,-1.3208,-1.3359,-1.358,-1.3813,-1.403,-1.4316,-1.5018,-1.6096,-1.6597,-1.7047,-1.7392,-1.7545,-1.7638,-1.774,-1.8056,-1.8236,-1.8337,-1.8607,-1.8841,-1.9137,-1.9797,-2.0586,-2.1366,-2.1974,-2.2889,-2.3811,-2.3992,-2.4469,-2.4945,-2.5147,-2.5324,-2.5548,-2.5723,-2.5793,-2.5863,-2.598,-2.5875,-2.5828,-2.6097,-2.6131,-2.6201,-2.6396,-2.643,-2.6465,-2.6499,-2.6499,-2.6499,-2.6499,-2.6499,-2.6521,-2.6658,-2.6658,-2.6726,-2.6909,-2.7464,-2.7859,-2.8066,-2.8725,-2.9209,-2.9369,-2.9541,-2.9766,-3.0106,-2.949,-2.9396,-3.0004,-3.0574,-3.0951,-3.1082,-3.1646,-3.204,-3.2217,-3.255,-3.2752,-0.648,-0.6356,-0.6275,-0.6215,-0.6342,-0.6544,-0.6848,-0.7073,-0.7368,-0.7889,-0.8252,-0.8608,-0.8952,-0.9177,-0.9466,-0.9919,-0.9983,-1.0142,-1.053,-1.072,-1.0821,-1.0821,-1.0922,-1.0955,-1.0834,-1.0879,-1.0882,-1.0814,-1.0958,-1.1146,-1.1435,-1.1591,-1.184,-1.2182,-1.2467,-1.2744,-1.3033,-1.3268,-1.3511,-1.3731,-1.4001,-1.4249,-1.4476,-1.4822,-1.5522,-1.6565,-1.7008,-1.7358,-1.7623,-1.7794,-1.7886,-1.8022,-1.8303,-1.8438,-1.8573,-1.8841,-1.921,-1.9706,-2.0522,-2.1307,-2.2067,-2.2936,-2.3646,-2.4261,-2.455,-2.4897,-2.5218,-2.5382,-2.5571,-2.5793,-2.598,-2.605,-2.6084,-2.6305,-2.6188,-2.6097,-2.6305,-2.6339,-2.6361,-2.6499,-2.6499,-2.6499,-2.6499,-2.6499,-2.6499,-2.6499,-2.6555,-2.6712,-2.7081,-2.7223,-2.7476,-2.8036,-2.8438,-2.8769,-2.9082,-2.9568,-2.9929,-3.0123,-3.0295,-3.0624,-3.1186,-3.0985,-3.0914,-3.0928,-3.131,-3.1641,-3.1885,-3.2558,-3.2948,-3.3095,-3.3592,-3.39,-0.6349,-0.6204,-0.6097,-0.615,-0.6181,-0.6313,-0.6782,-0.6913,-0.711,-0.7857,-0.822,-0.8544,-0.8926,-0.9145,-0.9402,-0.9919,-0.9983,-1.0142,-1.053,-1.0593,-1.0593,-1.0593,-1.0593,-1.0624,-1.0618,-1.0744,-1.0839,-1.087,-1.1178,-1.1428,-1.1622,-1.184,-1.2151,-1.2598,-1.2713,-1.3011,-1.3511,-1.3593,-1.3812,-1.41,-1.4419,-1.4745,-1.5058,-1.5635,-1.6197,-1.6793,-1.7354,-1.7657,-1.7808,-1.8008,-1.8178,-1.8337,-1.8539,-1.8707,-1.8875,-1.9108,-1.9634,-2.0371,-2.1279,-2.1993,-2.2681,-2.3836,-2.4298,-2.4478,-2.4969,-2.5253,-2.5453,-2.5653,-2.5828,-2.598,-2.6201,-2.6236,-2.6305,-2.6465,-2.6361,-2.6305,-2.6465,-2.6499,-2.6499,-2.6499,-2.6499,-2.6499,-2.6499,-2.6609,-2.6706,-2.6706,-2.6886,-2.724,-2.7768,-2.802,-2.8459,-2.9258,-2.9508,-2.9737,-3.0111,-3.0365,-3.0593,-3.0835,-3.1041,-3.1515,-3.2325,-3.2559,-3.2422,-3.1966,-3.1952,-3.2165,-3.267,-3.3383,-3.378,-3.3976,-3.4651,-3.5082,-0.5916,-0.5769,-0.5711,-0.5892,-0.6083,-0.6313,-0.6782,-0.6913,-0.711,-0.7857,-0.8052,-0.8247,-0.8888,-0.9017,-0.9242,-0.9888,-0.9983,-1.0142,-1.053,-1.0593,-1.0593,-1.0593,-1.0593,-1.0656,-1.0776,-1.0776,-1.0926,-1.1209,-1.1435,-1.1622,-1.1778,-1.2212,-1.2529,-1.259,-1.3094,-1.342,-1.3511,-1.4082,-1.438,-1.4449,-1.4754,-1.5029,-1.5215,-1.6205,-1.6621,-1.66,-1.7532,-1.8032,-1.8236,-1.8381,-1.8448,-1.8516,-1.8875,-1.9042,-1.9108,-1.9407,-2.008,-2.0858,-2.1417,-2.2345,-2.3441,-2.4028,-2.4611,-2.517,-2.5241,-2.5535,-2.5875,-2.6062,-2.6131,-2.6201,-2.6396,-2.6465,-2.6465,-2.6499,-2.6499,-2.6465,-2.6499,-2.6499,-2.6499,-2.6499,-2.6499,-2.6499,-2.6499,-2.7015,-2.7437,-2.7437,-2.7997,-2.852,-2.8763,-2.898,-2.9218,-2.9544,-3.0277,-3.089,-3.1089,-3.1706,-3.2242,-3.2632,-3.2835,-3.3066,-3.3408,-3.3581,-3.3711,-3.3733,-3.3733,-3.3883,-3.4119,-3.4389,-3.4699,-3.4981,-3.5103,-3.5261,-0.562,-0.5525,-0.5557,-0.5822,-0.5954,-0.6185,-0.6782,-0.6913,-0.711,-0.7857,-0.8047,-0.8301,-0.8888,-0.9081,-0.9338,-0.9919,-0.9983,-1.0142,-1.053,-1.0593,-1.0593,-1.0593,-1.0688,-1.0744,-1.08,-1.0958,-1.1185,-1.1466,-1.1622,-1.1872,-1.2212,-1.2467,-1.2736,-1.3094,-1.3359,-1.3692,-1.4052,-1.435,-1.4627,-1.4902,-1.5108,-1.5313,-1.5537,-1.6544,-1.6939,-1.6831,-1.7836,-1.8347,-1.8438,-1.8707,-1.8841,-1.8875,-1.9241,-1.944,-1.9604,-2.0136,-2.0816,-2.1582,-2.2372,-2.3184,-2.3998,-2.4612,-2.5028,-2.5347,-2.5571,-2.5828,-2.6097,-2.6179,-2.627,-2.6396,-2.6499,-2.6499,-2.6499,-2.6499,-2.6738,-2.6987,-2.7091,-2.7021,-2.7075,-2.7483,-2.7546,-2.7582,-2.77,-2.801,-2.8211,-2.8211,-2.8679,-2.9165,-2.9572,-2.9876,-3.033,-3.0998,-3.1433,-3.1833,-3.2233,-3.2636,-3.3016,-3.3333,-3.3521,-3.3779,-3.404,-3.4108,-3.4312,-3.452,-3.4366,-3.438,-3.4563,-3.4865,-3.5063,-3.518,-3.5326,-3.5439,-0.5477,-0.5428,-0.5524,-0.5822,-0.5921,-0.6152,-0.6749,-0.6946,-0.7171,-0.7857,-0.8177,-0.8501,-0.892,-0.921,-0.9498,-0.9919,-1.0047,-1.0206,-1.0561,-1.0593,-1.0593,-1.0593,-1.0713,-1.0839,-1.087,-1.1178,-1.1466,-1.1654,-1.1872,-1.2182,-1.259,-1.2744,-1.3033,-1.348,-1.3662,-1.3983,-1.4499,-1.4647,-1.4922,-1.5332,-1.5459,-1.5604,-1.5799,-1.686,-1.7294,-1.7272,-1.8223,-1.865,-1.8674,-1.9075,-1.9241,-1.9274,-1.9594,-1.9835,-2.0053,-2.0808,-2.1541,-2.2249,-2.3224,-2.3977,-2.4575,-2.5135,-2.5382,-2.5571,-2.5875,-2.6131,-2.627,-2.627,-2.6361,-2.6499,-2.6499,-2.66,-2.67,-2.67,-2.7163,-2.7624,-2.7754,-2.7731,-2.7822,-2.8371,-2.8497,-2.8533,-2.8654,-2.8913,-2.9076,-2.9076,-2.9542,-3.0043,-3.0487,-3.0867,-3.1379,-3.2151,-3.2386,-3.2638,-3.3037,-3.3312,-3.357,-3.3779,-3.3951,-3.4191,-3.4501,-3.4549,-3.4635,-3.4902,-3.4702,-3.4683,-3.4831,-3.5096,-3.5213,-3.5294,-3.5439,-3.5504,-0.5477,-0.5488,-0.565,-0.5855,-0.605,-0.6313,-0.6782,-0.704,-0.7335,-0.7889,-0.8409,-0.8829,-0.8985,-0.9268,-0.9588,-0.9951,-1.0149,-1.0371,-1.0561,-1.0593,-1.0593,-1.0593,-1.0713,-1.087,-1.1059,-1.1404,-1.1654,-1.1771,-1.2282,-1.256,-1.259,-1.3155,-1.348,-1.3511,-1.4112,-1.4469,-1.4499,-1.5059,-1.5449,-1.5672,-1.5827,-1.5885,-1.5915,-1.7184,-1.775,-1.7802,-1.8671,-1.9075,-1.9108,-1.944,-1.9572,-1.9605,-1.9944,-2.0074,-2.0227,-2.1283,-2.207,-2.2754,-2.3503,-2.4425,-2.5241,-2.5276,-2.5688,-2.6166,-2.6166,-2.6327,-2.6499,-2.6499,-2.6499,-2.6499,-2.6499,-2.6889,-2.7278,-2.7278,-2.7824,-2.8337,-2.8373,-2.8494,-2.8651,-2.869,-2.869,-2.869,-2.869,-2.944,-3.0045,-3.0045,-3.0874,-3.1566,-3.1763,-3.1982,-3.22,-3.2381,-3.2909,-3.3241,-3.3276,-3.364,-3.402,-3.4346,-3.438,-3.4501,-3.4868,-3.4868,-3.4902,-3.4902,-3.5082,-3.5148,-3.518,-3.518,-3.5294,-3.5472,-3.5504,-3.5504,-0.5477,-0.5488,-0.565,-0.5855,-0.6119,-0.6416,-0.6815,-0.7171,-0.7526,-0.8042,-0.8474,-0.8867,-0.9145,-0.9466,-0.976,-0.9951,-1.0174,-1.0371,-1.0561,-1.0593,-1.0618,-1.0713,-1.087,-1.1122,-1.1404,-1.1622,-1.1903,-1.2274,-1.2498,-1.2775,-1.3155,-1.339,-1.3692,-1.4142,-1.438,-1.4677,-1.5059,-1.543,-1.5672,-1.5827,-1.6087,-1.6374,-1.6701,-1.7631,-1.8299,-1.8753,-1.9437,-1.9693,-1.9638,-1.9857,-1.9998,-2.014,-2.0399,-2.0837,-2.1392,-2.208,-2.2855,-2.3641,-2.4471,-2.5015,-2.5347,-2.5758,-2.6015,-2.6201,-2.6339,-2.643,-2.6499,-2.6499,-2.6751,-2.7014,-2.7014,-2.75,-2.8149,-2.8589,-2.9001,-2.9452,-2.9949,-2.9632,-2.9404,-3.0036,-3.0188,-3.0262,-3.0519,-3.0837,-3.1116,-3.1226,-3.1669,-3.2023,-3.2178,-3.2503,-3.2789,-3.2945,-3.3276,-3.3591,-3.3785,-3.4074,-3.4327,-3.4597,-3.4683,-3.4835,-3.5082,-3.5082,-3.5148,-3.5294,-3.5359,-3.5326,-3.518,-3.5326,-3.5439,-3.5504,-3.5504,-3.5504,-0.5477,-0.5557,-0.5719,-0.5855,-0.6218,-0.6581,-0.6909,-0.7302,-0.7722,-0.8209,-0.8603,-0.8958,-0.93,-0.9632,-0.9894,-0.9989,-1.0238,-1.0466,-1.0593,-1.0656,-1.0713,-1.0776,-1.1028,-1.1279,-1.156,-1.1809,-1.2151,-1.256,-1.2805,-1.3094,-1.348,-1.3713,-1.4112,-1.4715,-1.4775,-1.503,-1.5507,-1.5788,-1.5972,-1.6058,-1.6374,-1.6804,-1.7372,-1.8038,-1.8734,-1.9398,-2.006,-2.0248,-2.0074,-2.028,-2.0442,-2.0593,-2.085,-2.1403,-2.2138,-2.2759,-2.3475,-2.4339,-2.5131,-2.5488,-2.5676,-2.6062,-2.6236,-2.6339,-2.6465,-2.6499,-2.6499,-2.6499,-2.6924,-2.7422,-2.7422,-2.8073,-2.899,-2.9788,-3.0103,-3.0392,-3.1057,-3.0611,-3.0331,-3.1071,-3.1211,-3.1299,-3.1633,-3.1743,-3.1853,-3.2059,-3.23,-3.2516,-3.2682,-3.3002,-3.3297,-3.3466,-3.3709,-3.3971,-3.4162,-3.4433,-3.465,-3.4865,-3.4949,-3.5082,-3.5294,-3.5294,-3.5359,-3.5504,-3.5504,-3.5439,-3.5294,-3.5439,-3.5504,-3.5504,-3.5504,-3.5504,0.0,0.0,0.0,-0.5925,-0.6317,-0.6806,-0.7134,-0.7466,-0.7862,-0.8382,-0.8765,-0.9113,-0.9454,-0.9786,-0.9983,-1.0015,-1.0339,-1.0593,-1.0624,-1.0713,-1.0807,-1.08,-1.1122,-1.1404,-1.1591,-1.2027,-1.2406,-1.2621,-1.3186,-1.3511,-1.3541,-1.4172,-1.4715,-1.5186,-1.5342,-1.5507,-1.5711,-1.6173,-1.6413,-1.6431,-1.6697,-1.7198,-1.7856,-1.8471,-1.9094,-1.9776,-2.0561,-2.0743,-2.0464,-2.0775,-2.0935,-2.0967,-2.1273,-2.1745,-2.2334,-2.3193,-2.4008,-2.4719,-2.5401,-2.5875,-2.6213,-2.6213,-2.6339,-2.6499,-2.6499,-2.6499,-2.6499,-2.6512,-2.7041,-2.7646,-2.7685,-2.862,-2.9801,-3.0781,-3.1024,-3.1149,-3.1522,-3.1471,-3.1384,-3.1559,-3.1609,-3.1683,-3.189,-3.2109,-3.2277,-3.2431,-3.2775,-3.3108,-3.3276,-3.3501,-3.3675,-3.3882,-3.4225,-3.4414,-3.4414,-3.4702,-3.5001,-3.518,-3.5213,-3.5294,-3.5504,-3.5504,-3.5504,-3.5504,-3.5504,-3.5504,-3.5504,-3.5504,-3.5504,-3.5504,-3.5504,-3.5504,-0.5605,0.0,0.0,0.0,0.0,0.0,-0.733,-0.7694,-0.8052,-0.8608,-0.8861,-0.9145,-0.9632,-0.9862,-1.0047,-1.018,-1.0434,-1.0618,-1.0744,-1.0776,-1.0895,-1.1115,-1.1373,-1.1685,-1.2058,-1.2375,-1.2705,-1.3216,-1.342,-1.3713,-1.4201,-1.4715,-1.5108,-1.5332,-1.5517,-1.5817,-1.6202,-1.6355,-1.6534,-1.6825,-1.7395,-1.8021,-1.8692,-1.944,-2.0149,-2.0805,-2.1121,-2.1285,-2.1351,-2.1273,-2.1348,-2.1498,-2.1592,-2.2324,-2.3391,-2.3646,-2.4474,-2.5597,-2.5931,-2.6097,-2.6201,-2.6361,-2.6465,-2.6499,-2.6499,-2.6555,-2.6746,-2.7173,-2.7834,-2.8638,-2.9753,-3.0318,-3.0716,-3.1296,-3.1559,-3.1706,-3.1963,-3.2082,-3.2069,-3.2023,-3.2119,-3.225,-3.2431,-3.2646,-3.2824,-3.3016,-3.3276,-3.3521,-3.3709,-3.3868,-3.404,-3.4244,-3.4462,-3.465,-3.4735,-3.4968,-3.5148,-3.518,-3.5326,-3.5439,-3.5504,-3.5504,-3.5504,-3.5504,-3.5504,-3.5504,-3.5504,-3.5504,-3.5504,-3.5504,-3.5504,-3.5504,0.0,0.0,-0.6086,-0.635,0.0,0.0,-0.7493,-0.7922,-0.8344,-0.8797,-0.9049,-0.9338,-0.9798,-1.0021,-1.018,-1.0403,-1.0555,-1.0713,-1.0776,-1.087,-1.1059,-1.1404,-1.1591,-1.1872,-1.2375,-1.2621,-1.2981,-1.345,-1.3752,-1.4172,-1.4754,-1.5108,-1.5371,-1.5507,-1.5817,-1.6116,-1.6413,-1.6658,-1.6902,-1.7145,-1.7937,-1.8657,-1.931,-2.008,-2.0769,-2.1423,-2.1632,-2.18,-2.1917,-2.1913,-2.1925,-2.1941,-2.2218,-2.3027,-2.4029,-2.4247,-2.5049,-2.6027,-2.6166,-2.6236,-2.6339,-2.6465,-2.6521,-2.6589,-2.6589,-2.6857,-2.7283,-2.7637,-2.8479,-2.9606,-3.09,-3.1323,-3.1447,-3.178,-3.1986,-3.2191,-3.248,-3.266,-3.2682,-3.2444,-3.2538,-3.2704,-3.2931,-3.3108,-3.3333,-3.3536,-3.3709,-3.3868,-3.4088,-3.4244,-3.4414,-3.4601,-3.4783,-3.4949,-3.5001,-3.5213,-3.5326,-3.5326,-3.5439,-3.5504,-3.5504,-3.5504,-3.5504,-3.5504,-3.5504,-3.5504,-3.5504,-3.5504,-3.5504,-3.5504,-3.5504,-3.5504,0.0,0.0,0.0,-0.6416,-0.6843,0.0,-0.7661,-0.8155,-0.8608,-0.8958,-0.9268,-0.9588,-0.9951,-1.0149,-1.0371,-1.0593,-1.0713,-1.0807,-1.0839,-1.1028,-1.1279,-1.1591,-1.1778,-1.2089,-1.256,-1.2897,-1.3194,-1.3541,-1.4172,-1.4745,-1.5215,-1.5371,-1.5546,-1.5769,-1.6173,-1.6441,-1.6488,-1.7026,-1.7356,-1.7506,-1.8385,-1.9171,-1.9864,-2.0547,-2.119,-2.1761,-2.2104,-2.2259,-2.229,-2.2598,-2.2525,-2.2308,-2.2984,-2.368,-2.4394,-2.4936,-2.5592,-2.6236,-2.6236,-2.6339,-2.6499,-2.6521,-2.6589,-2.6726,-2.679,-2.7378,-2.7987,-2.8173,-2.9223,-3.0503,-3.1426,-3.1817,-3.2,-3.2241,-3.2408,-3.2596,-3.2988,-3.3227,-3.3276,-3.2881,-3.2988,-3.3143,-3.3347,-3.3536,-3.3709,-3.3931,-3.4074,-3.423,-3.4448,-3.4616,-3.4798,-3.4902,-3.5082,-3.5213,-3.5213,-3.5392,-3.5504,-3.5504,-3.5504,-3.5504,-3.5504,-3.5504,-3.5504,-3.5504,-3.5504,-3.5504,-3.5504,-3.5504,-3.5504,-3.5504,-3.5504,-3.5504,-0.6138,-0.6214,-0.6416,-0.6716,-0.7138,0.0,-0.8009,-0.8312,-0.8641,-0.9145,-0.9364,-0.9588,-0.9951,-1.0149,-1.0396,-1.0713,-1.0776,-1.087,-1.1028,-1.131,-1.156,-1.1747,-1.2158,-1.2529,-1.2744,-1.3155,-1.3549,-1.3881,-1.4517,-1.5049,-1.5332,-1.5546,-1.5817,-1.6259,-1.6355,-1.663,-1.711,-1.725,-1.7717,-1.8589,-1.9194,-1.9905,-2.0686,-2.1544,-2.1966,-2.2135,-2.2463,-2.2598,-2.2616,-2.2678,-2.2647,-2.2647,-2.3217,-2.3885,-2.4603,-2.5157,-2.5806,-2.643,-2.643,-2.6465,-2.6521,-2.6624,-2.6692,-2.6802,-2.748,-2.7963,-2.8547,-2.9795,-3.0827,-3.1619,-3.1996,-3.2191,-3.2395,-3.2739,-3.298,-3.3206,-3.3417,-3.364,-3.3744,-3.3675,-3.3709,-3.3744,-3.3793,-3.3902,-3.4074,-3.4278,-3.4462,-3.465,-3.4769,-3.4835,-3.4935,-3.5115,-3.518,-3.5261,-3.5439,-3.5472,-3.5504,-3.5504,-3.5504,-3.5504,-3.5504,-3.5504,-3.5504,-3.5504,-3.5504,-3.5504,-3.5504,-3.5504,-3.5504,-3.5504,-3.5504,-3.5504,-0.6342,-0.6416,-0.6646,-0.7106,-0.74,0.0,0.0,-0.8571,-0.8861,-0.93,-0.9588,-0.9817,-1.011,-1.0364,-1.0586,-1.0776,-1.1028,-1.1216,-1.1341,-1.1498,-1.1747,-1.2151,-1.2436,-1.2744,-1.3094,-1.3459,-1.3881,-1.4458,-1.4931,-1.5313,-1.5546,-1.5875,-1.6144,-1.6374,-1.6687,-1.6998,-1.7306,-1.7573,-1.8097,-1.8896,-1.9663,-2.0441,-2.117,-2.1964,-2.234,-2.2463,-2.2708,-2.28,-2.2824,-2.3189,-2.3331,-2.3393,-2.3876,-2.4486,-2.5186,-2.5736,-2.618,-2.6499,-2.6589,-2.6589,-2.6624,-2.6794,-2.7088,-2.7494,-2.7997,-2.8847,-2.9949,-3.1142,-3.178,-3.2228,-3.2516,-3.2731,-3.2931,-3.3227,-3.3452,-3.364,-3.3799,-3.4005,-3.4191,-3.4293,-3.4346,-3.4346,-3.4191,-3.4332,-3.4534,-3.4635,-3.475,-3.485,-3.5049,-3.5034,-3.5115,-3.5326,-3.5359,-3.5392,-3.5504,-3.5504,-3.5504,-3.5504,-3.5504,-3.5504,-3.5504,-3.5504,-3.5504,-3.5504,-3.5504,-3.5504,-3.5504,-3.5504,-3.5504,-3.5504,-3.5504,-3.5504,-0.6551,-0.6679,-0.697,-0.7391,-0.7694,-0.7992,0.0,0.0,0.0,-0.9492,-0.9817,-1.011,-1.0333,-1.0586,-1.0839,-1.0933,-1.131,-1.1654,-1.1778,-1.1778,-1.1996,-1.2537,-1.2713,-1.295,-1.345,-1.3761,-1.424,-1.5029,-1.5274,-1.5536,-1.5827,-1.6202,-1.6459,-1.6573,-1.7054,-1.7362,-1.7445,-1.7995,-1.8568,-1.9188,-2.0133,-2.0948,-2.1614,-2.2214,-2.2574,-2.2739,-2.2878,-2.2939,-2.2976,-2.3704,-2.4067,-2.4217,-2.4641,-2.5136,-2.5661,-2.6285,-2.6521,-2.6555,-2.6658,-2.6726,-2.6807,-2.7173,-2.7868,-2.8656,-2.8886,-2.9997,-3.1388,-3.2128,-3.248,-3.2668,-3.3037,-3.3262,-3.3466,-3.364,-3.3848,-3.4054,-3.4176,-3.4366,-3.4549,-3.4731,-3.485,-3.4868,-3.4534,-3.4702,-3.4902,-3.4935,-3.4968,-3.5034,-3.5213,-3.5261,-3.5326,-3.5472,-3.5504,-3.5504,-3.5504,-3.5504,-3.5504,-3.5504,-3.5504,-3.5504,-3.5504,-3.5504,-3.5504,-3.5504,-3.5504,-3.5504,-3.5504,-3.5504,-3.5504,-3.5504,-3.5504,-3.5504,-0.6885,-0.7106,-0.7423,-0.7489,-0.7954,-0.8479,-0.8705,0.0,-0.9492,-0.9734,0.0,-1.0339,-1.053,0.0,0.0,-1.1435,-1.156,-1.1809,-1.2406,-1.2498,-1.2498,-1.259,-1.3064,-1.342,-1.3472,-1.4052,-1.4677,-1.5303,-1.5381,-1.5652,-1.6288,-1.6384,-1.6658,-1.7194,-1.725,-1.7518,-1.8002,-1.8531,-1.9285,-2.0243,-2.096,-2.1638,-2.2292,-2.2659,-2.2848,-2.2878,-2.3017,-2.3078,-2.3115,-2.3722,-2.4293,-2.475,-2.5277,-2.5548,-2.5661,-2.6285,-2.6589,-2.6692,-2.6679,-2.6829,-2.7101,-2.7954,-2.9236,-3.049,-3.0867,-3.1482,-3.2182,-3.2761,-3.3051,-3.3241,-3.3452,-3.3675,-3.3848,-3.4005,-3.421,-3.438,-3.4597,-3.475,-3.4868,-3.4868,-3.5034,-3.5115,-3.4868,-3.4868,-3.4968,-3.5148,-3.518,-3.5261,-3.5439,-3.5472,-3.5472,-3.5504,-3.5504,-3.5504,-3.5504,-3.5504,-3.5504,-3.5504,-3.5504,-3.5504,-3.5504,-3.5504,-3.5504,-3.5504,-3.5504,-3.5504,-3.5504,-3.5504,-3.5504,-3.5504,-3.5504,-3.5504,-0.7309,-0.7428,-0.7694,-0.8019,-0.8284,-0.8608,-0.9113,-0.9364,-0.962,-1.0015,0.0,0.0,0.0,0.0,0.0,0.0,-1.1934,-1.2282,-1.2567,-1.2889,-1.3125,-1.3125,-1.3368,-1.3653,-1.4052,-1.4647,-1.5118,-1.5381,-1.5768,-1.6105,-1.6374,-1.6715,-1.7054,-1.7278,-1.7601,-1.7865,-1.8084,-1.8895,-1.9719,-2.0529,-2.1204,-2.1927,-2.2696,-2.2848,-2.2939,-2.3017,-2.3078,-2.3296,-2.3678,-2.4243,-2.4795,-2.5322,-2.5975,-2.6257,-2.6249,-2.6535,-2.6726,-2.6909,-2.6998,-2.7167,-2.7525,-2.894,-3.0137,-3.1172,-3.176,-3.2346,-3.2888,-3.3122,-3.3382,-3.3675,-3.3868,-3.404,-3.421,-3.4414,-3.4582,-3.4702,-3.4817,-3.4949,-3.5082,-3.5082,-3.5261,-3.5359,-3.5261,-3.5261,-3.5294,-3.5359,-3.5359,-3.5392,-3.5504,-3.5504,-3.5504,-3.5504,-3.5504,-3.5504,-3.5504,-3.5504,-3.5504,-3.5504,-3.5504,-3.5504,-3.5504,-3.5504,-3.5504,-3.5504,-3.5504,-3.5504,-3.5504,-3.5504,-3.5504,-3.5504,-3.5504,-3.5504,-0.7735,-0.7792,-0.8025,-0.8479,-0.8673,-0.8894,-0.939,-0.9652,-0.9907,-1.0301,-1.0555,0.0,0.0,0.0,-1.1654,-1.184,0.0,-1.2652,-1.2828,-1.3208,-1.3511,-1.3511,-1.3662,-1.4013,-1.4677,-1.5147,-1.5468,-1.5652,-1.6105,-1.6459,-1.663,-1.7054,-1.7362,-1.7518,-1.7904,-1.8235,-1.851,-1.9412,-2.0217,-2.0878,-2.1611,-2.2284,-2.2909,-2.2939,-2.3017,-2.3108,-2.3271,-2.3615,-2.4054,-2.4745,-2.5292,-2.5761,-2.643,-2.6782,-2.6863,-2.6794,-2.693,-2.7146,-2.7302,-2.7779,-2.8524,-2.996,-3.1037,-3.1891,-3.2473,-3.298,-3.3382,-3.3486,-3.3764,-3.4088,-3.421,-3.4414,-3.4582,-3.4716,-3.4883,-3.4968,-3.4968,-3.5148,-3.5294,-3.5294,-3.5392,-3.5504,-3.5504,-3.5504,-3.5504,-3.5504,-3.5504,-3.5504,-3.5504,-3.5504,-3.5504,-3.5504,-3.5504,-3.5504,-3.5504,-3.5504,-3.5504,-3.5504,-3.5504,-3.5504,-3.5504,-3.5504,-3.5504,-3.5504,-3.5504,-3.5504,-3.5504,-3.5504,-3.5537,-3.5539,-3.5537,-3.5537,-0.8197,-0.8312,-0.8517,-0.8738,-0.9145,-0.9486,-0.9486,-1.004,-1.0561,-1.0593,-1.0846,-1.1185,-1.1498,-1.1591,0.0,0.0,-1.2598,0.0,0.0,-1.348,-1.3511,-1.3511,-1.4073,-1.4706,-1.5323,-1.5381,-1.5652,-1.6316,-1.6384,-1.6658,-1.725,-1.7278,-1.7545,-1.8057,-1.8084,-1.8572,-1.9547,-2.0229,-2.0902,-2.1576,-2.2443,-2.2866,-2.2909,-2.3017,-2.3108,-2.3133,-2.3728,-2.3979,-2.4079,-2.5134,-2.5698,-2.594,-2.6498,-2.693,-2.7268,-2.7045,-2.7214,-2.7503,-2.749,-2.8731,-3.0405,-3.105,-3.2038,-3.3009,-3.3192,-3.3431,-3.3675,-3.3991,-3.423,-3.4414,-3.4631,-3.4783,-3.4902,-3.4902,-3.5049,-3.518,-3.518,-3.5359,-3.5504,-3.5504,-3.5504,-3.5504,-3.5504,-3.5504,-3.5504,-3.5504,-3.5504,-3.5504,-3.5504,-3.5504,-3.5504,-3.5504,-3.5504,-3.5504,-3.5504,-3.5504,-3.5504,-3.5504,-3.5504,-3.5504,-3.5504,-3.5504,-3.5504,-3.5504,-3.5504,-3.5504,-3.5504,-3.5504,-3.5587,-3.5688,-3.5554,-3.5572,-0.8668,-0.8797,-0.9055,-0.9242,-0.9466,-0.9792,-1.0136,-1.0428,-1.0688,-1.0996,-1.1247,-1.1498,-1.1716,-1.2027,0.0,0.0,0.0,-1.3277,0.0,-1.3872,-1.4291,-1.4577,-1.4813,-1.5079,-1.5381,-1.5671,-1.5999,-1.6374,-1.6772,-1.7082,-1.7278,-1.7629,-1.7893,-1.8084,-1.841,-1.8927,-1.9725,-2.0407,-2.1141,-2.1955,-2.2588,-2.2939,-2.3017,-2.3078,-2.3108,-2.3133,-2.3753,-2.4205,-2.4607,-2.5454,-2.6071,-2.646,-2.6921,-2.7235,-2.7436,-2.7369,-2.749,-2.7808,-2.8559,-2.9855,-3.1281,-3.1854,-3.257,-3.3276,-3.3605,-3.3917,-3.4142,-3.4278,-3.4501,-3.4735,-3.4802,-3.4968,-3.5115,-3.5115,-3.5261,-3.5392,-3.5392,-3.5439,-3.5504,-3.5504,-3.5504,-3.5504,-3.5504,-3.5504,-3.5504,-3.5504,-3.5504,-3.5504,-3.5504,-3.5504,-3.5504,-3.5504,-3.5504,-3.5504,-3.5504,-3.5504,-3.5504,-3.5504,-3.5504,-3.5554,-3.5621,-3.5621,-3.5686,-3.5829,-3.5829,-3.5829,-3.5829,-3.5829,-3.5846,-3.5894,-3.5846,-3.5861,-0.9127,-0.9247,-0.953,-0.9716,-0.9951,-1.018,-1.0593,-1.0807,-1.1028,-1.1341,-1.1654,-1.1903,-1.2058,-1.2406,-1.2744,0.0,0.0,0.0,0.0,-1.438,-1.4872,-1.5225,-1.5264,-1.5342,-1.5575,-1.5951,-1.6324,-1.6581,-1.7043,-1.739,-1.7573,-1.7893,-1.8177,-1.8329,-1.8868,-1.9485,-2.0141,-2.0897,-2.1637,-2.2387,-2.2765,-2.3017,-2.3108,-2.3108,-2.3221,-2.3446,-2.4042,-2.4639,-2.5244,-2.5919,-2.6464,-2.693,-2.7268,-2.7469,-2.7623,-2.7623,-2.7954,-2.8612,-2.9942,-3.1068,-3.2,-3.2623,-3.3182,-3.366,-3.3985,-3.4293,-3.4515,-3.4582,-3.4769,-3.5001,-3.5001,-3.5148,-3.5326,-3.5326,-3.5407,-3.5504,-3.5504,-3.5504,-3.5504,-3.5504,-3.5504,-3.5504,-3.5504,-3.5504,-3.5504,-3.5504,-3.5504,-3.5504,-3.5504,-3.5504,-3.5504,-3.5504,-3.5504,-3.5504,-3.5504,-3.5504,-3.5537,-3.5572,-3.5572,-3.5621,-3.5799,-3.5831,-3.5863,-3.6005,-3.6005,-3.6005,-3.6005,-3.6005,-3.6068,-3.6178,-3.6178,-3.6226]},{"header":{"parameterUnit":"m.s-1","parameterCategory":1,"la1":30.6,"la2":29.2853,"lo1":-89.7004,"lo2":-87.6739,"dx":0.0162,"dy":0.0183,"nx":112,"ny":82,"refTime":"2023-01-29T18:00:00:Z","depth":0,"parameterNumber":3,"parameterNumberName":"V-component_of_WINDS"},"data":[0.0,0.0,0.0,0.0,0.0,0.0,0.0,0.0,0.0,0.0,0.0,0.0,0.0,0.0,0.0,0.0,0.0,0.0,0.0,0.0,0.0,0.0,0.0,0.0,0.0,0.0,0.0,0.0,0.0,0.0,0.0,0.0,0.0,0.0,0.0,0.0,0.0,0.0,0.0,0.0,0.0,0.0,0.0,0.0,0.0,0.0,0.0,0.0,0.0,0.0,0.0,0.0,0.0,0.0,0.0,0.0,0.0,0.0,0.0,0.0,0.0,0.0,0.0,0.0,0.0,0.0,0.0,0.0,0.0,0.0,0.0,0.0,0.0,0.0,0.0,0.0,0.0,0.0,0.0,0.0,0.0,0.0,0.0,0.0,0.0,0.0,0.0,0.0,0.0,0.0,3.0038,3.011,2.9341,2.8496,2.7684,2.6756,2.5885,2.5055,0.0,0.0,0.0,0.0,0.0,0.0,0.0,0.0,0.0,0.0,0.0,0.0,0.0,0.0,0.0,0.0,0.0,0.0,0.0,0.0,0.0,0.0,0.0,0.0,0.0,0.0,0.0,0.0,0.0,0.0,0.0,0.0,0.0,0.0,0.0,0.0,0.0,0.0,0.0,0.0,0.0,0.0,0.0,0.0,0.0,0.0,0.0,0.0,0.0,0.0,0.0,0.0,0.0,0.0,0.0,0.0,0.0,0.0,0.0,0.0,0.0,0.0,0.0,0.0,0.0,0.0,0.0,0.0,0.0,0.0,0.0,0.0,0.0,0.0,0.0,0.0,0.0,0.0,0.0,0.0,0.0,0.0,0.0,0.0,0.0,0.0,0.0,0.0,0.0,0.0,0.0,0.0,0.0,0.0,0.0,0.0,0.0,0.0,0.0,0.0,0.0,0.0,0.0,0.0,3.0117,3.0183,2.94,2.856,2.7759,2.6886,2.5977,2.5069,0.0,0.0,0.0,0.0,0.0,0.0,0.0,0.0,0.0,0.0,0.0,0.0,0.0,0.0,0.0,0.0,0.0,0.0,0.0,0.0,0.0,0.0,0.0,0.0,0.0,0.0,0.0,0.0,0.0,0.0,0.0,0.0,0.0,0.0,0.0,0.0,0.0,0.0,0.0,0.0,0.0,0.0,0.0,0.0,0.0,0.0,0.0,0.0,0.0,0.0,0.0,0.0,0.0,0.0,0.0,0.0,0.0,0.0,0.0,0.0,0.0,0.0,0.0,0.0,0.0,0.0,0.0,0.0,0.0,0.0,0.0,0.0,0.0,0.0,0.0,0.0,0.0,0.0,0.0,0.0,0.0,0.0,0.0,0.0,0.0,0.0,0.0,0.0,0.0,0.0,0.0,0.0,0.0,0.0,0.0,0.0,0.0,0.0,0.0,0.0,0.0,0.0,0.0,3.0218,3.0232,3.024,2.9072,2.8128,2.772,2.6503,2.5544,2.5089,2.4966,0.0,0.0,0.0,0.0,0.0,0.0,0.0,0.0,0.0,0.0,0.0,0.0,0.0,0.0,0.0,0.0,0.0,0.0,0.0,0.0,0.0,0.0,0.0,0.0,0.0,0.0,0.0,0.0,0.0,0.0,0.0,0.0,0.0,0.0,0.0,0.0,0.0,0.0,0.0,0.0,0.0,0.0,0.0,0.0,0.0,0.0,0.0,0.0,0.0,0.0,0.0,0.0,0.0,0.0,0.0,0.0,0.0,0.0,0.0,0.0,0.0,0.0,0.0,0.0,0.0,0.0,0.0,0.0,0.0,0.0,0.0,0.0,0.0,0.0,0.0,0.0,0.0,0.0,0.0,0.0,0.0,0.0,0.0,0.0,0.0,0.0,0.0,0.0,0.0,0.0,0.0,0.0,0.0,0.0,0.0,0.0,0.0,0.0,0.0,0.0,0.0,0.0,3.0292,3.0292,3.0305,2.8803,2.7775,2.7725,2.618,2.5189,2.5125,2.5063,0.0,0.0,0.0,0.0,0.0,0.0,0.0,0.0,0.0,0.0,0.0,0.0,0.0,0.0,0.0,0.0,0.0,0.0,0.0,0.0,0.0,0.0,0.0,0.0,0.0,0.0,0.0,0.0,0.0,0.0,0.0,0.0,0.0,0.0,0.0,0.0,0.0,0.0,0.0,0.0,0.0,0.0,0.0,0.0,0.0,0.0,0.0,0.0,0.0,0.0,0.0,0.0,0.0,0.0,0.0,0.0,0.0,0.0,0.0,0.0,0.0,0.0,0.0,0.0,0.0,0.0,0.0,0.0,0.0,0.0,0.0,0.0,0.0,0.0,0.0,0.0,0.0,0.0,0.0,0.0,0.0,0.0,0.0,0.0,0.0,0.0,0.0,0.0,0.0,0.0,0.0,0.0,0.0,0.0,0.0,0.0,0.0,0.0,0.0,0.0,0.0,0.0,3.0292,3.0305,3.0298,2.8796,2.7792,2.7788,2.6203,2.5201,2.5185,2.5139,0.0,0.0,0.0,0.0,0.0,0.0,0.0,0.0,0.0,0.0,0.0,0.0,0.0,0.0,0.0,0.0,0.0,0.0,0.0,0.0,0.0,0.0,0.0,0.0,0.0,0.0,0.0,0.0,0.0,0.0,0.0,0.0,0.0,0.0,0.0,0.0,0.0,0.0,0.0,0.0,0.0,0.0,0.0,0.0,0.0,0.0,0.0,0.0,0.0,0.0,0.0,0.0,0.0,0.0,0.0,0.0,0.0,0.0,0.0,0.0,0.0,0.0,0.0,0.0,0.0,0.0,0.0,0.0,0.0,0.0,0.0,0.0,0.0,0.0,0.0,0.0,0.0,0.0,0.0,0.0,0.0,0.0,0.0,0.0,0.0,0.0,0.0,0.0,0.0,0.0,0.0,0.0,0.0,0.0,0.0,0.0,0.0,0.0,0.0,0.0,0.0,0.0,3.0368,3.0355,3.0367,2.8862,2.7857,2.78,2.62,2.5204,2.5201,0.0,0.0,0.0,0.0,0.0,0.0,0.0,0.0,0.0,0.0,0.0,0.0,0.0,0.0,0.0,0.0,0.0,0.0,0.0,0.0,0.0,0.0,0.0,0.0,0.0,0.0,0.0,0.0,0.0,0.0,0.0,0.0,0.0,0.0,0.0,0.0,0.0,0.0,0.0,0.0,0.0,0.0,0.0,0.0,0.0,0.0,0.0,0.0,0.0,0.0,0.0,0.0,0.0,0.0,0.0,0.0,0.0,0.0,0.0,0.0,0.0,0.0,0.0,0.0,0.0,0.0,0.0,0.0,0.0,0.0,0.0,0.0,0.0,0.0,0.0,0.0,0.0,0.0,0.0,0.0,0.0,0.0,0.0,0.0,0.0,0.0,0.0,0.0,0.0,0.0,0.0,0.0,0.0,0.0,0.0,0.0,0.0,0.0,0.0,0.0,0.0,0.0,3.0404,3.0404,3.0404,3.0404,2.9121,2.8154,2.7868,2.6466,2.5494,2.5223,0.0,0.0,0.0,0.0,0.0,0.0,0.0,0.0,0.0,0.0,0.0,0.0,0.0,0.0,0.0,0.0,0.0,0.0,0.0,0.0,0.0,0.0,0.0,0.0,0.0,0.0,0.0,0.0,0.0,0.0,0.0,0.0,0.0,0.0,0.0,0.0,0.0,0.0,0.0,0.0,0.0,0.0,0.0,0.0,0.0,0.0,0.0,0.0,0.0,0.0,0.0,0.0,0.0,0.0,0.0,0.0,0.0,0.0,0.0,0.0,0.0,0.0,0.0,0.0,0.0,0.0,0.0,0.0,0.0,0.0,0.0,0.0,0.0,0.0,0.0,0.0,0.0,0.0,0.0,0.0,0.0,0.0,0.0,0.0,0.0,0.0,0.0,0.0,0.0,0.0,0.0,0.0,0.0,0.0,0.0,0.0,0.0,0.0,0.0,0.0,0.0,0.0,3.0404,3.0404,3.0404,3.0404,2.9621,2.878,2.7972,2.7039,2.6137,0.0,0.0,0.0,0.0,0.0,0.0,0.0,0.0,0.0,0.0,0.0,0.0,0.0,0.0,0.0,0.0,0.0,0.0,0.0,0.0,0.0,0.0,0.0,0.0,0.0,0.0,0.0,0.0,0.0,0.0,0.0,0.0,0.0,0.0,0.0,0.0,0.0,0.0,0.0,0.0,0.0,0.0,0.0,0.0,0.0,0.0,0.0,0.0,0.0,0.0,0.0,0.0,0.0,0.0,0.0,0.0,0.0,0.0,0.0,0.0,0.0,0.0,0.0,0.0,0.0,0.0,0.0,0.0,0.0,0.0,0.0,0.0,0.0,0.0,0.0,0.0,0.0,0.0,0.0,0.0,0.0,0.0,0.0,0.0,0.0,0.0,0.0,0.0,0.0,0.0,0.0,0.0,0.0,0.0,0.0,0.0,0.0,0.0,0.0,0.0,0.0,0.0,0.0,3.0404,3.0404,3.0404,3.0404,2.9621,2.878,2.7972,2.7039,2.6137,2.525,0.0,0.0,0.0,0.0,0.0,0.0,0.0,0.0,0.0,0.0,0.0,0.0,0.0,0.0,0.0,0.0,0.0,0.0,0.0,0.0,0.0,0.0,0.0,0.0,0.0,0.0,0.0,0.0,0.0,0.0,0.0,0.0,0.0,0.0,0.0,0.0,0.0,0.0,0.0,0.0,0.0,0.0,0.0,0.0,0.0,0.0,0.0,0.0,0.0,0.0,0.0,0.0,0.0,0.0,0.0,0.0,0.0,0.0,0.0,0.0,0.0,0.0,0.0,0.0,0.0,0.0,0.0,0.0,0.0,0.0,0.0,0.0,0.0,0.0,0.0,0.0,0.0,0.0,0.0,0.0,0.0,0.0,0.0,0.0,0.0,0.0,0.0,0.0,0.0,0.0,0.0,0.0,0.0,0.0,0.0,0.0,0.0,0.0,0.0,0.0,0.0,0.0,3.0404,3.0404,3.0404,3.0404,2.9929,2.9275,2.8453,2.7533,2.6655,2.5773,0.0,0.0,0.0,0.0,0.0,0.0,0.0,0.0,0.0,0.0,0.0,0.0,0.0,0.0,0.0,0.0,0.0,0.0,0.0,0.0,0.0,0.0,0.0,0.0,0.0,0.0,0.0,0.0,0.0,0.0,0.0,0.0,0.0,0.0,0.0,0.0,0.0,0.0,0.0,0.0,0.0,0.0,0.0,0.0,0.0,0.0,0.0,0.0,0.0,0.0,0.0,0.0,0.0,0.0,0.0,0.0,0.0,0.0,0.0,0.0,0.0,0.0,0.0,0.0,0.0,0.0,0.0,0.0,0.0,0.0,0.0,0.0,0.0,0.0,0.0,0.0,0.0,0.0,0.0,0.0,0.0,0.0,0.0,0.0,0.0,0.0,0.0,0.0,0.0,0.0,0.0,0.0,0.0,0.0,0.0,0.0,0.0,0.0,0.0,0.0,0.0,0.0,3.0404,3.0404,3.0404,3.0404,3.0404,3.0038,2.9165,2.8378,2.7518,2.6565,0.0,0.0,0.0,0.0,0.0,0.0,0.0,0.0,0.0,0.0,0.0,0.0,0.0,0.0,0.0,0.0,0.0,0.0,0.0,0.0,0.0,0.0,0.0,0.0,0.0,0.0,0.0,0.0,0.0,0.0,0.0,0.0,0.0,0.0,0.0,0.0,0.0,0.0,0.0,0.0,0.0,0.0,0.0,0.0,0.0,0.0,0.0,0.0,0.0,0.0,0.0,0.0,0.0,0.0,0.0,0.0,0.0,0.0,0.0,0.0,2.9718,2.9709,0.0,0.0,0.0,0.0,0.0,0.0,0.0,0.0,0.0,0.0,0.0,0.0,0.0,0.0,0.0,0.0,0.0,0.0,0.0,0.0,0.0,0.0,0.0,0.0,0.0,0.0,0.0,0.0,0.0,0.0,0.0,0.0,0.0,0.0,0.0,0.0,0.0,0.0,0.0,0.0,3.0404,3.0404,3.0404,3.0404,3.0404,3.0038,2.9165,2.8877,2.8093,2.6603,2.6206,0.0,0.0,0.0,0.0,0.0,0.0,0.0,0.0,0.0,0.0,0.0,0.0,0.0,0.0,0.0,0.0,0.0,0.0,0.0,0.0,0.0,0.0,0.0,0.0,0.0,0.0,0.0,0.0,0.0,0.0,0.0,0.0,0.0,0.0,0.0,0.0,0.0,0.0,0.0,0.0,0.0,0.0,0.0,0.0,0.0,0.0,0.0,0.0,0.0,0.0,0.0,0.0,0.0,0.0,0.0,0.0,0.0,0.0,0.0,2.983,2.9822,0.0,0.0,0.0,0.0,0.0,0.0,0.0,0.0,0.0,0.0,0.0,0.0,0.0,0.0,0.0,0.0,0.0,0.0,0.0,0.0,0.0,0.0,0.0,0.0,0.0,0.0,0.0,0.0,0.0,0.0,0.0,0.0,0.0,0.0,0.0,0.0,0.0,0.0,0.0,0.0,3.0404,3.0404,3.0404,3.0404,3.0404,3.0206,2.9719,2.9255,2.8624,2.7763,2.7204,0.0,0.0,0.0,0.0,0.0,0.0,0.0,0.0,0.0,0.0,0.0,0.0,0.0,0.0,0.0,0.0,0.0,0.0,0.0,0.0,0.0,0.0,0.0,0.0,0.0,0.0,0.0,0.0,0.0,0.0,0.0,0.0,0.0,0.0,0.0,0.0,0.0,0.0,0.0,0.0,0.0,0.0,0.0,0.0,0.0,0.0,0.0,0.0,0.0,0.0,0.0,0.0,0.0,2.9885,2.991,2.9945,2.9991,3.0022,3.003,2.9972,2.998,3.0022,3.0095,0.0,0.0,0.0,0.0,0.0,0.0,0.0,0.0,0.0,0.0,0.0,0.0,0.0,0.0,0.0,0.0,0.0,0.0,0.0,0.0,0.0,0.0,3.0404,3.0404,3.0404,3.0404,3.0404,0.0,0.0,0.0,0.0,0.0,0.0,0.0,0.0,0.0,0.0,0.0,3.0404,3.0404,3.0404,3.0404,3.0398,3.0367,3.031,2.964,2.9142,2.8989,2.824,2.7402,0.0,0.0,0.0,0.0,0.0,0.0,0.0,0.0,0.0,0.0,0.0,0.0,0.0,0.0,0.0,0.0,0.0,0.0,0.0,0.0,0.0,0.0,0.0,0.0,0.0,0.0,0.0,0.0,0.0,0.0,0.0,0.0,2.9283,2.9291,0.0,0.0,0.0,0.0,0.0,0.0,0.0,0.0,0.0,0.0,0.0,0.0,0.0,2.9816,2.9868,2.9868,2.991,2.9964,2.9991,3.0014,3.0072,3.0087,3.0083,3.0087,3.0142,0.0,3.0095,3.0169,0.0,0.0,0.0,0.0,0.0,0.0,0.0,0.0,0.0,0.0,0.0,0.0,0.0,0.0,0.0,0.0,0.0,0.0,0.0,0.0,0.0,0.0,3.0404,3.0404,3.0404,3.0404,3.0404,3.0404,3.0404,3.0404,3.0404,3.0404,0.0,0.0,0.0,0.0,0.0,0.0,3.0404,3.0404,3.0404,3.0404,3.0348,3.031,3.031,3.0145,2.971,2.8957,2.8729,2.8213,2.729,2.7129,0.0,0.0,0.0,0.0,0.0,0.0,0.0,0.0,0.0,0.0,0.0,0.0,0.0,0.0,0.0,0.0,0.0,0.0,0.0,0.0,0.0,0.0,0.0,0.0,0.0,0.0,0.0,0.0,0.0,2.9307,2.938,2.9404,2.9463,2.954,0.0,0.0,0.0,0.0,0.0,0.0,0.0,0.0,0.0,2.9899,2.9951,2.9975,3.0018,3.0018,3.0033,3.0065,3.0068,3.0098,3.0161,3.0157,3.0185,3.02,3.024,3.0252,3.0206,3.0233,3.0266,3.0272,0.0,0.0,0.0,0.0,3.0292,3.0292,3.0292,3.0292,3.0292,3.0292,0.0,0.0,0.0,0.0,0.0,0.0,0.0,3.0348,3.0379,3.0404,3.0404,3.0404,3.0404,3.0404,3.0404,3.0404,3.0404,3.0404,3.0404,3.0404,3.0404,3.0404,0.0,0.0,0.0,3.0404,3.0404,3.0404,3.0398,3.0348,3.0316,3.0273,3.0248,3.0214,3.002,2.9603,2.9483,2.9,2.8104,2.7955,2.7451,0.0,0.0,0.0,0.0,0.0,0.0,0.0,0.0,0.0,0.0,0.0,0.0,0.0,0.0,0.0,0.0,0.0,0.0,0.0,0.0,0.0,0.0,0.0,0.0,0.0,0.0,0.0,0.0,2.9412,2.9491,2.955,2.9598,2.9655,0.0,0.0,0.0,0.0,0.0,0.0,2.9953,2.9991,3.003,3.003,3.0061,3.0102,3.011,3.0125,3.0132,3.014,3.013,3.0185,3.0239,3.0233,3.0241,3.0292,3.0299,3.0305,3.0305,3.0305,3.0305,3.0305,3.0311,3.0337,3.0337,3.0337,3.0337,3.0337,3.0337,3.0337,3.0337,3.0337,3.0337,3.0337,3.0337,0.0,0.0,0.0,0.0,3.0404,3.0404,3.0404,3.0404,3.0404,3.0404,3.0404,3.0404,3.0404,3.0404,3.0404,3.0404,3.0404,3.0404,3.0404,0.0,3.0404,3.0404,3.0379,3.0373,3.0373,3.0361,3.0317,3.0286,3.0254,3.0207,3.0173,3.0142,3.0038,2.9972,2.9599,2.89,2.8761,2.8259,2.7298,0.0,0.0,0.0,0.0,0.0,0.0,0.0,0.0,0.0,0.0,0.0,0.0,0.0,0.0,0.0,0.0,0.0,0.0,0.0,0.0,0.0,0.0,0.0,0.0,0.0,0.0,0.0,0.0,0.0,2.9673,2.9691,0.0,0.0,0.0,0.0,2.9972,3.0046,3.0087,3.0087,3.0095,3.0095,3.0095,3.0095,3.0091,3.0101,3.0164,3.0199,3.02,3.0266,3.0286,3.0286,3.0286,3.0305,3.0292,3.0311,3.0304,3.0304,3.0304,3.0304,3.0304,3.0367,3.0398,3.0398,3.0398,3.0398,3.0398,3.0398,3.0398,3.0398,3.0398,3.0398,3.0398,3.0398,3.0398,0.0,0.0,3.0404,3.0404,3.0404,3.0404,3.0404,3.0404,3.0404,3.0404,3.0404,3.0404,3.0404,3.0404,3.0404,3.0404,3.0404,0.0,3.0404,3.0404,3.0404,3.0373,3.031,3.031,3.0298,3.0299,3.0241,3.0207,3.0192,3.013,3.0057,2.9913,2.9897,2.9822,2.9645,2.958,2.9072,2.8068,2.7914,0.0,0.0,0.0,0.0,0.0,0.0,0.0,0.0,0.0,0.0,0.0,0.0,0.0,0.0,0.0,0.0,0.0,0.0,0.0,0.0,0.0,0.0,0.0,0.0,0.0,0.0,0.0,0.0,2.9818,2.9823,0.0,2.9959,3.0007,3.0038,3.0053,3.0083,3.0121,3.0169,3.0171,3.0173,3.0239,3.0239,3.0226,3.0233,3.0246,3.026,3.0266,3.0286,3.0305,3.0305,3.0305,3.0317,3.0355,3.0367,3.0354,3.0354,3.0354,3.0354,3.0373,3.0398,3.0404,3.0404,3.0404,3.0404,3.0404,3.0404,3.0404,3.0404,3.0404,3.0404,3.0404,3.0404,3.0404,3.0404,3.0404,3.0404,3.0404,3.0404,3.0404,3.0404,3.0404,3.0404,3.0404,3.0404,3.0404,3.0404,3.0404,3.0404,3.0404,3.0404,3.0404,3.0404,3.0404,3.0348,3.0336,3.031,3.0305,3.0286,3.0233,3.0213,3.0178,3.0147,3.0026,2.9945,2.9897,2.9825,2.9756,2.9711,2.9502,2.9213,2.881,2.8677,2.8349,0.0,0.0,0.0,0.0,0.0,0.0,0.0,0.0,0.0,0.0,0.0,0.0,0.0,0.0,0.0,0.0,0.0,0.0,0.0,0.0,0.0,0.0,0.0,0.0,0.0,2.9763,2.9805,2.9918,2.994,2.9988,3.0068,3.0117,3.0147,3.0169,3.0171,3.0192,3.0219,3.0221,3.0241,3.0312,3.0292,3.0292,3.0292,3.0305,3.0311,3.0311,3.0318,3.0336,3.0342,3.0342,3.0367,3.0404,3.0404,3.0404,3.0404,3.0404,3.0404,3.0404,3.0404,3.0404,3.0404,3.0404,3.0404,3.0404,3.0404,3.0404,3.0404,3.0404,3.0404,3.0404,3.0404,3.0404,3.0404,3.0404,3.0404,3.0404,3.0404,3.0404,3.0404,3.0404,3.0404,3.0404,3.0404,3.0404,3.0404,3.0404,3.0404,3.0404,3.0404,3.0379,3.0373,3.0373,3.0329,3.0286,3.0273,3.0279,3.0233,3.0171,3.0142,3.0106,3.0038,2.9924,2.9857,2.9832,2.9738,2.9636,2.9569,2.9394,2.9249,2.9134,2.897,2.8724,2.8458,0.0,0.0,0.0,0.0,0.0,0.0,0.0,0.0,0.0,0.0,0.0,0.0,0.0,0.0,0.0,0.0,0.0,0.0,0.0,0.0,0.0,0.0,0.0,2.9912,2.9899,2.994,3.0007,3.0053,3.0132,3.0204,3.0192,3.0239,3.0305,3.0292,3.0292,3.0292,3.0292,3.0292,3.0292,3.0292,3.0292,3.0292,3.0292,3.031,3.031,3.0373,3.0404,3.0404,3.0404,3.0404,3.0404,3.0404,3.0404,3.0404,3.0404,3.0404,3.0404,3.0404,3.0404,3.0404,3.0404,3.0404,3.0404,3.0404,3.0404,3.0404,3.0404,3.0404,3.0404,3.0404,3.0404,3.0404,3.0404,3.0404,3.0404,3.0404,3.0404,3.0404,3.0404,3.0404,3.0404,3.0404,3.0404,3.0404,3.0398,3.0398,3.0398,3.0404,3.0342,3.0304,3.0304,3.0292,0.0,3.0214,3.0206,3.0171,3.0101,3.0034,2.9964,2.9897,2.9832,2.9764,2.9711,2.9626,2.9511,2.9304,2.9293,2.9195,2.8994,2.8724,2.8458,2.8196,0.0,0.0,0.0,0.0,0.0,0.0,0.0,0.0,0.0,0.0,0.0,0.0,0.0,0.0,0.0,0.0,0.0,0.0,0.0,0.0,0.0,2.9883,2.9888,2.9899,2.9972,3.0068,3.0135,3.015,3.0204,3.0279,3.0266,3.0273,3.0305,3.0292,3.0305,3.0292,3.0292,3.0317,3.038,3.038,3.038,3.038,3.0367,3.0373,3.0373,3.0398,3.0404,3.0404,3.0404,3.0404,3.0404,3.0404,3.0404,3.0404,3.0404,3.0404,3.0404,3.0404,3.0404,3.0404,3.0404,3.0404,3.0404,3.0404,3.0404,3.0404,3.0404,3.0404,3.0404,3.0404,3.0404,3.0404,3.0404,3.0404,3.0404,3.0404,3.0404,3.0404,3.0404,3.0404,3.0398,3.0342,3.0336,3.0329,3.0324,3.0337,3.0324,3.0336,3.0311,3.0305,3.0305,3.0253,3.0213,3.0199,3.0169,3.0076,2.998,2.9948,2.9872,2.9751,2.9746,2.9683,2.9569,2.9453,2.9351,2.9225,2.9127,2.8975,2.8712,2.8463,2.8277,0.0,0.0,0.0,0.0,0.0,0.0,0.0,0.0,0.0,0.0,0.0,0.0,0.0,0.0,0.0,0.0,0.0,0.0,0.0,0.0,0.0,0.0,2.998,3.0026,3.0026,3.0091,3.0169,3.0199,3.0219,3.0253,3.0311,3.0292,3.0318,3.0349,3.033,3.0343,3.0342,3.0342,3.0367,3.0404,3.0404,3.0404,3.0404,3.0404,3.0404,3.0404,3.0404,3.0404,3.0404,3.0404,3.0404,3.0404,3.0404,3.0404,3.0404,3.0404,3.0404,3.0404,0.0,0.0,0.0,0.0,3.0404,3.0404,3.0404,3.0404,3.0404,3.0404,3.0404,3.0404,3.0404,3.0404,3.0404,3.0404,3.0404,3.0404,3.0404,3.0404,3.0379,3.0354,3.0367,3.0342,3.0311,3.0305,3.0299,3.0292,3.0286,0.0,3.026,3.0266,3.0266,3.0266,3.0211,3.0154,3.0121,3.0061,2.9983,2.9874,2.9832,2.9771,2.9664,2.9579,0.0,0.0,0.0,2.9171,2.9044,2.8905,0.0,0.0,0.0,2.814,2.7996,2.7789,0.0,0.0,2.7417,2.7277,0.0,0.0,0.0,0.0,0.0,0.0,0.0,0.0,0.0,0.0,0.0,0.0,0.0,0.0,0.0,0.0,3.0072,3.0192,3.0218,3.0301,3.0315,3.0221,3.0254,3.0292,3.031,3.031,3.0342,3.0404,3.0404,3.0404,3.0404,3.0404,0.0,0.0,0.0,3.0404,3.0404,3.0404,3.0404,3.0404,3.0404,3.0404,3.0404,3.0404,3.0404,3.0404,3.0404,3.0404,3.0404,3.0404,3.0404,3.0404,3.0404,3.0404,3.0404,3.0404,3.0404,3.0404,3.0404,0.0,0.0,3.0404,3.0404,3.0404,3.0404,3.0404,3.0404,3.0404,3.0404,3.0404,3.0398,3.0398,3.0373,3.031,3.0298,3.0292,3.0292,3.0279,3.0299,3.0273,3.0219,3.0197,3.0171,3.0171,3.0197,3.019,3.0132,3.0065,2.9999,2.9924,2.9847,2.9799,2.9729,0.0,2.956,2.9402,2.9272,2.928,2.9127,2.8964,2.8773,2.8637,2.8471,2.8286,2.8196,2.8011,2.7701,2.7672,2.7491,2.7197,2.7197,2.7119,0.0,0.0,0.0,0.0,0.0,0.0,0.0,0.0,0.0,0.0,0.0,0.0,0.0,0.0,0.0,3.0121,3.0171,3.0225,3.0266,3.09,3.1072,3.0362,3.0292,3.0329,3.0373,3.0379,3.0398,3.0404,3.0404,3.0404,3.0404,3.0404,3.0404,3.0404,3.0404,3.0404,3.0404,3.0404,3.0404,3.0404,3.0404,0.0,3.0404,3.0404,3.0404,3.0404,3.0404,3.0404,3.0404,3.0404,3.0404,3.0404,3.0404,3.0404,3.0404,3.0404,3.0404,3.0404,3.0404,3.0404,3.0404,3.0404,3.0404,3.0404,3.0404,3.0404,0.0,3.0404,3.0404,3.0398,3.0342,3.0316,3.0323,3.0292,3.0299,3.0292,3.0227,3.0226,3.0199,3.0145,3.0128,3.011,3.0053,3.0076,3.011,3.0053,2.998,2.9932,2.991,2.9815,2.9726,2.9719,2.9608,2.9492,2.9373,2.9278,2.916,2.9067,2.8834,2.8675,2.8637,2.8411,2.8264,2.8223,2.7936,2.776,2.7701,2.743,2.726,2.7197,2.7197,2.7086,0.0,0.0,0.0,0.0,0.0,0.0,0.0,0.0,0.0,0.0,0.0,3.1374,3.0686,0.0,3.0183,3.0713,3.0858,3.1071,3.1539,3.1981,3.1924,3.104,3.1341,3.1603,3.1654,3.1654,3.1654,3.1654,3.1654,3.1654,3.1654,3.1654,3.1654,3.1654,3.1654,3.1654,3.1654,3.1654,3.1654,3.1654,3.1231,3.1058,3.1038,3.0596,3.0404,3.0404,3.0404,3.0404,3.0404,3.0404,3.0404,3.0404,3.0404,3.0404,3.0404,3.0404,3.0404,3.0404,3.0404,3.0404,3.0404,3.0404,3.0404,3.0404,3.0404,3.0404,3.0404,3.0404,3.0373,3.0342,3.031,3.0292,3.0292,3.0247,3.0253,3.0226,3.0166,3.0157,3.0121,3.0057,3.0019,2.9991,2.9951,2.9916,2.9907,2.9943,2.9866,2.9806,2.98,2.971,2.9608,2.9512,2.9434,2.9343,2.9214,2.9089,2.894,2.8798,2.8612,2.8458,2.8393,2.8209,2.8039,2.795,2.7748,2.7567,2.7461,2.7276,2.7151,2.7055,2.6989,2.6908,0.0,0.0,0.0,0.0,0.0,0.0,0.0,3.3678,3.2988,3.2281,3.1572,3.0868,3.0083,3.0175,3.0596,3.1322,3.1672,3.2102,3.2807,3.3045,3.2885,3.2193,3.2571,3.2891,3.2891,3.2891,3.2891,3.2891,3.2891,3.2891,3.2891,3.2891,3.2891,3.2891,3.2891,3.2891,3.2891,3.2891,3.2891,3.2891,3.2237,3.1929,3.191,3.1212,3.0885,3.0885,3.0712,3.0558,3.0404,3.0404,3.0404,3.0404,3.0404,3.0404,3.0404,3.0404,3.0404,3.0404,3.0404,3.0404,3.0404,3.0404,3.0404,3.0404,3.0404,3.0398,3.0379,3.0379,3.0336,3.0298,3.0286,3.028,3.026,3.02,3.0185,3.0157,3.0094,3.0076,3.0057,2.9991,2.9916,2.9866,2.987,2.9754,2.9727,2.9834,2.9754,2.9673,2.9645,2.9569,2.9491,2.9312,2.927,2.9174,2.9021,2.8846,2.87,2.8549,2.8437,2.8304,2.8168,2.8011,2.785,2.7686,2.7569,2.7417,2.7197,2.7133,2.7022,2.6859,2.6725,2.6674,3.3807,3.3807,3.3815,3.3959,3.3998,3.4049,0.0,3.3713,3.3018,3.2331,3.16,3.0886,3.019,3.0726,3.1322,3.1544,3.2237,3.2788,3.2878,3.3564,3.4032,3.391,3.3314,3.2891,3.2891,3.2891,3.2891,3.2891,3.2891,3.2891,3.2891,3.2891,3.2891,3.2891,3.2891,3.2891,3.2891,3.2891,3.2891,3.2891,3.2814,3.2776,3.2756,3.266,3.2622,3.2583,3.1852,3.1115,3.0404,3.0404,3.0404,3.0404,3.0404,3.0404,3.0404,3.0404,3.0404,3.0404,3.0404,3.0404,3.0404,3.0404,3.0404,3.0404,3.0404,3.0367,3.031,3.031,3.0305,3.0286,3.0234,3.02,3.0192,3.0123,3.0113,3.0095,3.003,2.9964,2.9924,2.9901,2.9806,2.9717,2.9719,2.9664,2.9636,2.9701,2.9655,2.956,2.9443,2.9373,2.9312,2.9304,2.9152,2.8929,2.8675,2.8637,2.8536,2.8353,2.8246,2.8154,2.8042,2.7836,2.7686,2.76,2.7371,2.7228,2.7197,2.6907,2.6741,2.6725,2.6589,2.6537,3.3807,3.3807,3.3829,3.3972,3.3998,3.4061,3.4305,3.3392,3.246,3.2287,3.1269,3.0492,3.0738,3.1149,3.1809,3.2881,3.3356,3.3794,3.4346,3.4737,3.4968,3.4968,3.4641,3.4404,3.4404,3.4404,3.4404,3.4404,3.4404,3.4404,3.4404,3.4404,3.4404,3.4404,3.4404,3.4404,3.4404,3.4404,3.4404,3.4404,3.3891,3.3667,3.3641,3.3122,3.2891,3.2872,3.2545,3.1929,3.1154,3.1154,3.0865,3.0404,3.0404,3.0404,3.0404,3.0404,3.0404,3.0404,3.0404,3.0404,3.0404,3.0404,3.0404,3.0379,3.0348,3.0316,3.0304,3.0299,3.0273,3.0245,3.0213,3.0164,3.0113,3.0068,3.0003,2.9983,2.9943,2.9857,2.9779,2.9792,2.9701,2.9626,2.954,2.9463,2.9433,2.946,2.9451,2.9402,2.9339,2.9254,2.9138,2.901,2.8858,2.8687,2.8497,2.8406,2.83,2.8178,2.8025,2.7879,2.7836,2.7552,2.74,2.7371,2.7166,2.7039,2.6907,2.6775,2.6657,2.6589,2.6415,2.6345,3.3807,3.3807,3.3829,3.3972,3.3998,3.4074,3.434,3.3153,3.2058,3.226,3.1219,3.046,3.1164,3.1801,3.2623,3.3897,3.4323,3.4723,3.5404,3.55,3.55,3.55,3.55,3.55,3.55,3.55,3.55,3.55,3.55,3.55,3.55,3.55,3.55,3.55,3.55,3.55,3.55,3.55,3.55,3.5481,3.4853,3.4564,3.4545,3.3891,3.3487,3.3256,3.3256,3.2795,3.2025,3.2025,3.1525,3.075,3.075,3.0615,3.0404,3.0404,3.0404,3.0404,3.0404,3.0404,3.0404,3.0404,3.0398,3.0348,3.031,3.0292,3.0267,3.0273,3.0219,3.0164,3.015,3.0091,3.003,2.9983,2.9907,2.983,2.9834,2.9745,2.9664,2.9617,2.956,2.9491,2.9401,2.932,2.9267,2.9218,2.9232,2.9225,2.9218,2.9078,2.8929,2.8761,2.8625,2.8484,2.8358,2.8223,2.8099,2.7996,2.7792,2.7642,2.7567,2.7338,2.7165,2.7119,2.699,2.6842,2.6674,2.6607,2.6503,2.6398,2.6203,2.6096,3.3807,3.3807,3.3829,3.3972,3.3998,3.4074,3.434,3.3153,3.2058,3.226,3.1682,3.1197,3.1278,3.2787,3.4038,3.4096,3.4863,3.5462,3.55,3.55,3.55,3.55,3.55,3.55,3.55,3.55,3.55,3.55,3.55,3.55,3.55,3.55,3.55,3.55,3.55,3.55,3.55,3.55,3.55,3.55,3.5462,3.5462,3.5462,3.5423,3.4968,3.4167,3.4167,3.366,3.2852,3.2852,3.2391,3.166,3.166,3.1135,3.0404,3.0404,3.0404,3.0404,3.0404,3.0404,3.0404,3.0404,3.0367,3.031,3.0304,3.0254,3.0207,3.0199,3.0157,3.0087,3.0011,2.9956,2.9907,2.9893,2.9798,2.9699,2.9701,2.9645,2.955,2.9433,2.9353,2.9301,2.9304,2.9251,2.9156,2.9028,2.9017,2.9017,2.9017,2.8846,2.8682,2.8612,2.8484,2.8358,2.8227,2.8085,2.7925,2.773,2.7644,2.7496,2.7228,2.7197,2.7103,2.6909,2.6792,2.6674,2.6589,2.6345,2.6203,2.6203,2.6007,2.5805,3.3807,3.3807,3.3829,3.3972,3.3998,3.4074,3.434,3.3153,3.2058,3.226,3.1719,3.1406,3.2039,3.3226,3.4261,3.4817,3.524,3.55,3.55,3.55,3.55,3.55,3.55,3.55,3.55,3.55,3.55,3.55,3.55,3.55,3.55,3.55,3.55,3.55,3.55,3.55,3.55,3.55,3.55,3.55,3.55,3.55,3.55,3.55,3.5346,3.5064,3.5064,3.4564,3.3763,3.3763,3.3256,3.2506,3.2506,3.1987,3.125,3.125,3.0873,3.0342,3.0379,3.0373,3.0342,3.0342,3.0317,3.0286,3.026,3.0221,3.0192,3.0157,3.0057,2.9953,2.9948,2.9847,2.9761,2.9774,2.971,2.9626,2.9579,2.9482,2.9384,2.9343,2.927,2.9211,2.9119,2.9085,2.8987,2.8761,2.8773,2.8785,2.8737,2.865,2.8523,2.8358,2.8291,2.815,2.7893,2.7836,2.7719,2.7509,2.7402,2.726,2.7133,2.6956,2.6842,2.6758,2.664,2.6486,2.6328,2.6239,2.6096,2.5864,2.5749,2.5619,3.3807,3.3807,3.3829,3.3972,3.3998,3.4074,3.434,3.3153,3.2058,3.226,3.1946,3.1824,3.2477,3.3658,3.4702,3.5212,3.5412,3.55,3.55,3.55,3.55,3.55,3.55,3.5615,3.5904,3.5923,3.5808,3.5519,3.55,3.55,3.55,3.55,3.55,3.55,3.55,3.55,3.55,3.55,3.55,3.55,3.55,3.55,3.55,3.55,3.55,3.55,3.55,3.5173,3.4661,3.4661,3.4141,3.3353,3.3353,3.2865,3.2122,3.2122,3.1546,3.0733,3.0457,3.0329,3.0305,3.0305,3.0273,3.0272,3.0207,3.0185,3.0154,3.0057,2.998,2.988,2.9841,2.9763,2.9682,2.9636,2.956,2.9472,2.9443,2.9343,2.9259,2.9228,2.9171,2.9089,2.8975,2.8893,2.8798,2.8625,2.8562,2.8523,2.8497,2.8432,2.8327,2.814,2.8053,2.7922,2.7672,2.7582,2.7461,2.7324,2.7166,2.7054,2.6956,2.6775,2.6607,2.6521,2.645,2.6292,2.6096,2.6023,2.5879,2.5661,2.5489,2.5355,3.3807,3.3807,3.3829,3.3972,3.3998,3.4074,3.434,3.3153,3.2058,3.226,3.2325,3.2393,3.2572,3.4033,3.5243,3.5289,3.5412,3.55,3.55,3.55,3.55,3.55,3.5538,3.5865,3.6635,3.6731,3.6442,3.5692,3.5596,3.5558,3.5558,3.5519,3.55,3.55,3.55,3.55,3.55,3.55,3.55,3.55,3.55,3.55,3.55,3.55,3.55,3.55,3.55,3.55,3.55,3.55,3.5,3.4257,3.4257,3.3737,3.2954,3.2954,3.2409,3.1532,3.0708,3.0375,3.0286,3.0286,3.024,3.0185,3.0178,3.0147,3.0053,2.994,2.9907,2.9866,2.9729,2.9701,2.9645,2.9512,2.9394,2.9293,2.9293,2.9246,2.9167,2.9119,2.904,2.897,2.8905,2.8724,2.8574,2.8574,2.8371,2.8223,2.8286,2.8237,2.8126,2.8014,2.7806,2.7657,2.7587,2.7355,2.7181,2.7181,2.699,2.6826,2.6674,2.6623,2.6468,2.6185,2.6168,2.6078,2.5879,2.5675,2.5578,2.5559,2.5243,2.5048,3.3807,3.3807,3.3829,3.3972,3.3998,3.4074,3.434,3.3153,3.2058,3.226,3.1844,3.1667,3.245,3.3554,3.4538,3.5185,3.5372,3.5446,3.5493,3.55,3.55,3.55,3.6038,3.6462,3.6673,3.7296,3.7584,3.7373,3.675,3.6385,3.6385,3.5827,3.55,3.55,3.55,3.55,3.55,3.55,3.55,3.55,3.55,3.55,3.55,3.55,3.55,3.55,3.55,3.55,3.55,3.5453,3.5285,3.5093,3.5045,3.4513,3.3796,3.3796,3.3238,3.2467,3.2178,3.1266,3.0221,3.0219,3.0185,3.0128,3.0076,2.9996,2.994,2.991,2.9825,2.9747,2.972,2.956,2.9394,2.9363,2.9299,2.9232,2.9232,2.9134,2.9051,2.904,2.8846,2.8687,2.8675,2.851,2.8353,2.8318,2.8196,2.8154,2.8223,2.8053,2.7879,2.7792,2.7644,2.7478,2.7324,2.7181,2.7037,2.6841,2.6792,2.6657,2.6418,2.6346,2.6222,2.6045,2.5901,2.5789,2.5691,2.5508,2.5355,2.5158,2.5064,2.4926,3.3807,3.3807,3.3834,3.3934,3.3972,3.3969,3.3822,3.2858,3.1954,3.177,3.1382,3.1404,3.2412,3.3366,3.4297,3.5163,3.535,3.5412,3.5453,3.5467,3.5635,3.5981,3.6423,3.7,3.7777,3.8277,3.8719,3.9065,3.7969,3.7276,3.7276,3.6481,3.6038,3.6038,3.5673,3.55,3.55,3.55,3.55,3.55,3.55,3.55,3.55,3.55,3.55,3.55,3.5467,3.546,3.5453,3.5379,3.5364,3.5357,3.5315,3.5005,3.4573,3.4573,3.4018,3.323,3.3206,3.2321,3.115,3.0795,3.0377,3.0011,2.9972,2.988,2.9805,2.9799,2.9738,2.9636,2.955,2.9414,2.9283,2.9259,2.9171,2.91,2.91,2.9017,2.8881,2.8852,2.87,2.8574,2.8484,2.834,2.8205,2.8126,2.8011,2.794,2.794,2.7836,2.7686,2.7507,2.74,2.7293,2.7136,2.7006,2.6858,2.6708,2.6555,2.6417,2.6259,2.6081,2.5917,2.5826,2.5661,2.5511,2.5375,2.5278,2.5123,2.4906,2.4806,2.4666,3.3807,3.3807,3.382,3.3881,3.3873,3.3685,3.3133,3.2393,3.1663,3.1101,3.0959,3.1225,3.2224,3.3179,3.4101,3.499,3.527,3.5391,3.5405,3.5453,3.5782,3.6596,3.6788,3.7507,3.915,3.94,3.9746,4.0458,3.9142,3.8296,3.818,3.7353,3.6808,3.6692,3.5923,3.55,3.55,3.55,3.55,3.55,3.55,3.55,3.55,3.5493,3.5493,3.5474,3.5412,3.5398,3.5379,3.5315,3.53,3.5293,3.5285,3.5258,3.5193,3.5193,3.4658,3.3961,3.3952,3.3377,3.2498,3.1713,3.0826,3.0051,3.0034,2.9882,2.9681,2.9673,2.9617,2.9521,2.9343,2.9291,2.9259,2.9189,2.9085,2.8975,2.8982,2.8876,2.8724,2.86,2.8562,2.8484,2.8313,2.8191,2.8081,2.7968,2.7792,2.7627,2.7572,2.7615,2.7522,2.7228,2.7165,2.7086,2.6975,2.6775,2.6657,2.664,2.6364,2.6184,2.6114,2.5828,2.5642,2.554,2.5413,2.5243,2.5068,2.497,2.4866,2.4722,2.4559,2.4416,3.3807,3.3807,3.382,3.3881,3.3449,3.3019,3.3003,3.1927,3.0924,3.0921,3.0443,3.0323,3.1267,3.2213,3.3152,3.4063,3.4845,3.5331,3.5398,3.5412,3.5734,3.6596,3.7334,3.818,3.9207,3.99,4.0342,4.0496,4.0227,3.9785,3.9111,3.8257,3.745,3.6712,3.5923,3.55,3.55,3.55,3.55,3.55,3.55,3.55,3.55,3.5446,3.5412,3.5412,3.5357,3.5315,3.5315,3.5297,3.5277,3.5226,3.5231,3.5181,3.5119,3.5119,3.4988,3.4783,3.4718,3.414,3.3289,3.2463,3.1603,3.0871,3.0753,3.0255,2.9673,2.9511,2.9394,2.9343,2.9296,2.9211,2.9123,2.9044,2.8975,2.8905,2.8846,2.8724,2.8587,2.8458,2.8345,2.8264,2.8223,2.7979,2.7774,2.7745,2.7585,2.7402,2.7293,2.7276,2.726,2.7197,2.6956,2.6775,2.6758,2.6623,2.6451,2.631,2.6221,2.6041,2.5728,2.5637,2.547,2.5185,2.5123,2.5005,2.4846,2.4726,2.4569,2.44,2.4343,2.4234,3.3807,3.3807,3.382,3.3829,3.3313,3.2699,3.2346,3.147,3.0611,3.0291,2.9964,3.0045,3.1014,3.1908,3.2803,3.3786,3.4674,3.5277,3.5339,3.5383,3.5873,3.7163,3.7723,3.8507,3.9804,4.0265,4.0496,4.0496,4.0496,4.0323,3.9958,3.87,3.7603,3.6731,3.5923,3.55,3.55,3.55,3.55,3.55,3.546,3.5453,3.5453,3.5372,3.5357,3.533,3.527,3.5246,3.5239,3.522,3.5179,3.5134,3.511,3.5038,3.4992,3.4955,3.4898,3.484,3.482,3.4485,3.4009,3.3615,3.2636,3.1591,3.1512,3.0851,3.0144,3.0044,2.9654,2.9235,2.9163,2.9096,2.901,2.8923,2.8822,2.8724,2.8612,2.851,2.8419,2.8318,2.8196,2.8053,2.7968,2.7777,2.7615,2.7461,2.7371,2.7246,2.712,2.6989,2.694,2.694,2.6791,2.6641,2.6504,2.6399,2.6257,2.6059,2.595,2.5784,2.5505,2.5371,2.5201,2.5048,2.4886,2.4706,2.4544,2.4482,2.4343,2.4151,2.4151,2.4228,3.3807,3.3807,3.3752,3.3587,3.3035,3.2312,3.1512,3.0854,3.0242,2.968,2.9626,2.9945,3.0727,3.1564,3.2458,3.3415,3.4339,3.5018,3.5231,3.5339,3.6005,3.7698,3.7959,3.8635,4.0342,4.0496,4.0496,4.0496,4.0496,4.0496,4.0496,3.9084,3.7873,3.7,3.6173,3.5673,3.55,3.5493,3.5486,3.5486,3.5412,3.5372,3.5372,3.5308,3.5285,3.5278,3.5218,3.5176,3.516,3.511,3.5066,3.502,3.4983,3.4917,3.485,3.4792,3.473,3.4655,3.4645,3.455,3.4461,3.4409,3.347,3.2293,3.2222,3.1573,3.0832,3.0769,3.0239,2.9628,2.9507,2.9331,2.9168,2.9016,2.8878,2.8804,2.8833,2.8801,2.8719,2.8625,2.851,2.8376,2.821,2.8074,2.7952,2.7712,2.7632,2.7518,2.7419,2.7233,2.7079,2.7061,2.6775,2.6504,2.6312,2.6169,2.6072,2.6038,2.5864,2.5738,2.575,2.5513,2.5368,2.5307,2.5103,2.488,2.4706,2.4685,2.4557,2.4401,2.4401,2.4586,3.3807,3.3807,3.3623,3.2894,3.2156,3.1421,3.0688,2.995,2.9436,2.9431,2.956,2.9729,2.9823,3.0644,3.1579,3.2403,3.3361,3.4309,3.5095,3.5269,3.5944,3.769,3.7917,3.8585,4.0335,4.0496,4.0496,4.0496,4.0496,4.0496,4.0496,3.9669,3.8777,3.7911,3.7038,3.6231,3.5519,3.5446,3.5412,3.5412,3.533,3.5315,3.5308,3.5231,3.5218,3.5209,3.5145,3.5065,3.502,3.5011,3.4936,3.4831,3.4831,3.4781,3.4718,3.4708,3.4634,3.4506,3.445,3.4374,3.4293,3.4173,3.3615,3.3007,3.2943,3.2305,3.157,3.1372,3.1256,3.1176,3.1018,3.0412,2.979,2.9659,2.9516,2.9575,3.0183,3.0255,3.0151,2.9967,2.9873,2.9793,2.9715,2.9484,2.9316,2.9299,2.8988,2.8738,2.8737,2.8555,2.835,2.816,2.7,2.6239,2.6203,2.5919,2.5959,2.651,2.6358,2.6425,2.6851,2.6724,2.6551,2.6364,2.6216,2.6104,2.6045,2.5887,2.5773,2.5635,2.5635,2.5596,3.3807,3.3458,3.2999,3.2674,3.1679,3.0703,3.0413,2.9813,2.9318,2.9332,2.9443,2.955,2.9692,3.0415,3.1325,3.2255,3.3189,3.4105,3.5075,3.522,3.5717,3.6968,3.7574,3.8358,3.9553,4.012,4.0447,4.0447,4.0447,4.0447,4.0447,3.9684,3.8835,3.7978,3.7083,3.6223,3.5391,3.5357,3.533,3.533,3.5312,3.5281,3.5231,3.5212,3.5162,3.5082,3.502,3.4936,3.4889,3.4849,3.48,3.473,3.4649,3.4586,3.4561,3.4495,3.4386,3.4305,3.4245,3.4173,3.4099,3.4011,3.3782,3.3524,3.353,3.2926,3.2213,3.2104,3.1665,3.119,3.1097,3.0695,3.0308,3.0205,3.0108,3.0083,3.0231,3.0209,3.0131,3.0005,2.9825,2.9692,2.9659,2.9472,2.9281,2.9157,2.8995,2.8831,2.868,2.8529,2.8357,2.8142,2.7729,2.7363,2.7133,2.6981,2.6896,2.6844,2.6772,2.6746,2.6814,2.6623,2.6452,2.6378,2.6214,2.607,2.5955,2.5909,2.5816,2.5685,2.5685,2.5871,3.3513,3.3036,3.2491,3.2014,3.1072,3.0219,2.9991,2.9603,2.9283,2.9299,2.9343,2.9443,2.9598,3.0133,3.0923,0.0,3.2872,3.374,3.4931,3.5162,3.5534,3.6463,3.7346,3.8194,3.9016,3.9889,4.0407,4.0407,4.0407,4.0407,4.0407,3.9591,3.8764,3.7932,3.7057,3.6178,3.5308,3.5285,3.527,3.527,3.5261,3.522,3.5168,3.5127,3.5066,3.4974,3.4879,3.4792,3.4732,3.4658,3.4634,3.4612,3.4484,3.4439,3.4404,3.4281,3.4197,3.4136,3.4036,3.3985,3.3921,3.382,3.3753,3.3712,3.3726,3.3328,3.2843,3.278,3.2242,3.1598,3.1293,3.1048,3.0868,3.0762,3.0688,3.0649,3.07,3.0655,3.0538,3.0472,3.0283,3.0108,3.0091,2.993,2.9748,2.96,2.945,2.9298,2.9121,2.8923,2.8726,2.8543,2.8604,2.8384,2.7696,2.7541,2.7449,2.7336,2.7221,2.7161,2.7193,2.6972,2.6842,2.6796,2.6616,2.649,2.6404,2.6341,2.6294,2.6183,2.6183,2.6437,3.2821,3.2601,3.2216,3.0632,3.021,3.0001,2.928,2.9163,2.9229,2.9291,2.9349,2.9402,2.9402,2.956,3.0237,3.1842,3.227,3.3012,3.4661,3.5075,3.5531,3.6402,3.7258,3.8142,3.9016,3.9889,4.0407,4.0407,4.0407,4.0407,4.0407,3.9513,3.8663,3.7915,3.7041,3.6178,3.5308,3.5231,3.5209,3.5209,3.5136,3.5092,3.5092,3.4955,3.4889,3.4879,3.4769,3.4666,3.4602,3.4528,3.4461,3.4404,3.4328,3.4257,3.4197,3.4124,3.4061,3.3985,3.3842,3.3788,3.378,3.3577,3.3491,3.3481,3.3352,3.3393,3.3477,3.3422,3.3196,3.2782,3.1916,3.1627,3.1535,3.1342,3.1228,3.1372,3.2039,3.202,3.1859,3.1784,3.1656,3.1543,3.1483,3.131,3.1173,3.1173,3.0777,3.0472,3.0472,3.0194,2.9919,2.9815,2.9595,2.896,2.7628,2.7206,2.7314,2.8031,2.7718,2.7751,2.835,2.8244,2.8122,2.7989,2.785,2.7775,2.7775,2.766,2.757,2.757,2.757,2.7585,3.2821,3.221,3.1531,3.0467,2.9787,2.9317,2.9083,2.9078,2.9145,2.9218,2.9294,2.9357,2.9392,2.9482,3.0113,3.1813,3.2232,3.293,3.4652,3.5001,3.5196,3.5579,3.6875,3.8048,3.8877,3.9719,4.0186,4.0186,4.0186,3.9929,3.9347,3.8499,3.7964,3.7774,3.6873,3.5999,3.5179,3.5134,3.5136,3.5136,3.5056,3.5011,3.4955,3.487,3.4782,3.4689,3.4655,3.458,3.4461,3.434,3.4281,3.4257,3.4136,3.4086,3.4049,3.3934,3.3868,3.3842,3.3712,3.3629,3.3577,3.3466,3.3331,3.3208,3.3122,3.3168,3.3178,3.3044,3.2934,3.2768,3.2355,3.2187,3.2121,3.195,3.1847,3.1847,3.1895,3.1874,3.1783,3.1632,3.1443,3.1327,3.1288,3.1131,3.0932,3.0753,3.0609,3.0384,3.007,2.9919,2.9722,2.9357,2.9259,2.9046,2.864,2.8397,2.8348,2.8443,2.8239,2.8165,2.8259,2.8039,2.7915,2.7855,2.774,2.765,2.765,2.7625,2.76,2.76,2.76,2.76,0.0,3.177,3.114,3.0026,2.9372,2.9005,2.9005,2.9044,2.9112,2.9178,2.9251,2.9315,2.938,2.9423,3.0034,3.1771,3.2144,3.2836,3.4613,3.4908,3.5125,3.5566,3.6537,3.7613,3.8747,3.9317,3.9744,4.0038,3.9761,3.9333,3.8792,3.767,3.7053,3.7109,3.6263,3.5579,3.5066,3.5011,3.4992,3.4992,3.4946,3.4888,3.4821,3.4771,3.4678,3.455,3.4484,3.4397,0.0,3.4185,3.4124,3.4111,3.3972,3.3921,3.3908,3.378,3.3712,3.3671,3.3563,3.3448,3.3331,3.3241,3.3057,3.285,3.2787,3.2836,3.2882,3.274,3.2625,3.254,3.2404,3.2336,3.2249,3.209,3.2018,3.1929,3.1726,3.1651,3.1559,3.1421,3.1249,3.1112,3.1092,3.0912,3.0692,3.0526,3.0342,3.0135,2.9853,2.9655,2.9425,2.9121,2.8998,2.8905,2.8834,2.8748,2.8653,2.8541,2.8348,2.8177,2.8063,2.789,2.779,2.774,2.765,2.76,2.76,2.76,2.76,2.76,2.76,2.76,0.0,3.1397,3.0999,2.939,2.9005,2.9005,2.9005,2.9062,0.0,2.9189,2.9251,2.9323,2.9386,2.9401,2.9973,3.1725,3.2062,3.2727,3.4552,3.4859,3.5221,3.6093,3.6254,3.6901,3.8461,3.8649,3.8998,3.9758,3.9071,3.8565,3.8509,3.6979,3.606,3.5993,3.5325,3.4974,3.4983,3.4851,3.4783,3.4783,3.478,3.4747,3.4676,3.4623,3.4539,3.4473,3.4281,3.4197,3.4173,3.4036,3.3985,3.3972,3.3847,3.3793,3.3766,3.3629,3.3534,3.3462,3.3393,3.3241,3.3055,3.2916,3.269,3.2473,3.2405,3.2473,3.2556,3.2489,3.2318,3.2179,3.2161,3.2108,3.2019,3.1837,3.1781,3.1726,3.1517,3.1387,3.1274,3.119,3.1055,3.0935,3.0892,3.0651,3.0468,3.0447,3.007,2.9788,2.975,2.938,2.9075,2.9068,2.8787,2.8541,2.8411,2.8387,2.8372,2.8372,2.8143,2.793,2.7815,2.7836,2.7816,2.766,2.772,2.7735,2.7735,2.7735,2.7735,2.7735,2.7735,2.772,0.0,0.0,3.0999,2.939,2.9005,2.9017,0.0,2.9096,2.9123,2.9251,2.9291,2.9323,2.9386,2.9401,2.9973,3.1725,3.2062,3.2717,3.4482,3.4781,3.4917,3.5125,3.5741,3.629,3.6698,3.7291,3.7743,3.7932,3.774,3.7322,3.6589,3.6163,3.5641,3.4977,3.473,3.4689,3.4849,3.4759,3.471,3.4728,3.4615,3.4561,3.4539,3.4484,3.4374,3.4269,3.4221,3.4148,3.4036,3.3895,3.386,3.3829,3.3698,3.3619,3.3563,3.3481,3.3393,3.3322,3.3152,3.3026,3.29,3.2608,3.2405,3.2249,3.2196,3.2232,3.2284,3.2214,3.209,3.1966,3.1911,3.1801,3.1673,3.1595,3.1574,3.1517,3.1308,3.1249,3.1154,3.1012,3.0773,3.0593,3.0609,3.0422,3.021,3.0006,2.9875,2.9677,2.9312,2.9167,2.8982,2.874,2.8565,2.8396,2.8259,2.8235,2.8201,2.8103,2.7955,2.7815,2.779,2.8186,2.8393,2.8368,2.8873,2.9142,2.9142,2.9142,2.9142,2.9142,2.9142,2.8805,0.0,3.1409,3.0999,2.939,2.9028,2.9062,2.9078,0.0,2.9186,2.9291,2.9302,2.9323,2.9386,2.9399,2.9961,3.1683,3.201,3.2674,3.4451,3.4769,3.4801,3.4801,3.5196,3.5601,3.5979,3.6357,3.6735,3.7141,3.6788,3.634,3.5837,3.5424,3.5,3.4525,3.4473,3.4517,3.4655,3.4602,3.4561,3.455,3.4495,3.4409,3.4351,3.4316,3.4233,3.4111,3.4074,3.3998,3.3895,3.3807,3.3739,3.3684,3.3563,3.3495,3.3437,3.3274,3.3168,3.3091,3.2965,3.2805,3.2625,3.2353,3.2143,3.2001,3.1965,3.1911,3.1892,3.1946,3.1838,3.1709,3.167,3.1614,3.1521,3.1385,3.1346,3.1325,3.1112,3.1012,3.0932,3.0753,3.0568,3.0422,3.0295,3.013,2.9935,2.97,2.956,2.9364,2.9036,2.9195,2.9231,2.9005,2.911,2.9144,2.8956,2.8915,2.8768,2.8374,2.8544,2.8632,2.8632,2.8914,2.9056,2.9056,2.9427,2.9606,2.9606,2.9606,2.9552,2.9456,2.9456,2.9208,3.1949,3.1477,3.1036,2.9425,2.9067,2.913,2.913,2.9167,2.924,2.9312,2.9323,2.9334,2.9396,2.9396,2.9938,3.164,3.216,3.2911,3.4446,3.4697,3.4747,3.4747,3.4687,3.4918,3.5606,3.5571,3.5813,3.6555,3.5916,3.5488,3.5464,3.4773,3.4351,3.434,3.434,3.4381,3.4409,3.4393,3.4363,3.4363,3.434,3.4281,3.4173,3.4173,3.4099,3.3972,3.3908,3.3829,3.3766,3.3684,3.3633,3.3549,3.3408,3.3334,3.3289,3.306,3.29,3.282,3.274,3.2524,3.2284,3.2108,3.1928,3.1763,3.1763,3.1614,3.1498,3.167,3.1595,3.1479,3.146,3.144,3.1383,3.119,3.1151,3.1092,3.0892,3.0733,3.063,3.0464,3.0359,3.0231,2.9995,2.9907,2.9816,2.9608,2.949,2.932,2.9163,2.9477,2.9651,2.9515,2.9893,3.0046,2.981,2.9873,2.9678,2.9091,2.939,2.9651,2.9714,2.9756,2.9774,2.9879,2.9879,2.9879,2.9851,2.9851,2.9754,2.9589,2.9589,2.9446,3.2016,3.1592,3.1186,2.9562,2.9167,2.9207,2.9269,2.928,2.9294,2.9376,2.9386,2.9386,2.9396,2.9396,2.9938,3.164,3.3112,3.4128,3.4413,3.4461,3.4461,3.4461,3.4461,3.4487,3.4618,3.4607,3.467,3.4782,3.4678,3.4545,3.4438,3.4308,3.4185,3.4061,3.4061,3.4074,3.4074,3.4185,3.4233,3.4233,3.4124,3.4049,3.4036,3.4036,3.3959,3.3815,3.3815,3.3753,3.3633,3.3509,3.3437,3.3408,3.3168,3.3026,3.2963,3.287,3.2724,3.254,3.2353,3.2108,3.1892,3.1855,3.1707,3.1555,3.1555,3.1421,3.1249,3.1288,3.131,3.1312,3.1269,3.1171,3.1055,3.0972,3.0952,3.0892,3.063,3.0547,3.0443,3.0146,2.9979,2.987,2.977,3.0005,3.0179,3.0014,3.0415,3.0585,3.0232,3.0222,3.0181,2.992,2.9868,2.9837,2.981,3.0156,3.0355,3.0235,2.9846,2.9846,3.0342,3.0357,3.0642,3.1197,3.1212,3.1139,3.1053,3.1053,3.0966,3.0807,3.0807,3.0454,3.2076,3.1644,3.1279,2.9697,2.9275,2.9262,2.9302,2.9334,2.9365,2.9396,2.9396,2.9396,2.9396,2.9396,2.9938,3.164,3.3284,3.4351,3.4386,3.4386,3.4386,3.4386,3.4381,3.4328,3.4293,3.4257,3.4221,3.4185,3.4185,3.4161,3.4099,3.4099,3.4061,3.3998,3.3998,3.3998,3.3998,3.4023,3.4061,3.4086,3.4036,3.3985,3.3947,3.3908,3.3829,3.3739,3.3712,3.3619,3.3495,3.3422,3.3319,3.3168,3.3011,3.2868,3.2721,3.254,3.2353,3.2161,3.2037,3.1856,3.169,3.1651,3.15,3.1344,3.1344,3.119,3.1032,3.1032,3.1055,3.1075,3.1052,3.0992,3.0895,3.0733,3.0692,3.063,3.0401,3.0215,3.0201,3.0433,3.0274,3.0158,3.0457,3.06,3.0611,3.0413,3.0544,3.0567,3.0334,3.0551,3.0647,3.0389,3.0681,3.0824,3.0726,3.0924,3.1032,3.1032,3.0791,3.0761,3.1017,3.1032,3.1153,3.1409,3.138,3.1322,3.1176,3.1176,3.1102,3.0955,3.0866,3.0571,3.2182,3.1778,3.1381,2.9812,2.937,2.9326,2.9336,2.9368,2.9399,2.9399,2.9407,2.9396,2.9396,2.9712,3.0384,3.1674,3.3238,3.4293,3.434,3.4351,3.434,3.4328,3.4281,3.4221,3.4161,3.4111,3.4061,3.3998,3.3998,3.3998,3.3972,3.3972,3.3972,3.3947,3.3947,3.3947,3.3947,3.3881,3.3895,3.3972,3.3947,3.3895,3.3842,3.3793,3.3712,3.3633,3.3577,3.3462,3.3334,3.3289,3.3168,3.2963,3.282,3.2673,3.2455,3.2197,3.2019,3.1857,3.1764,3.1634,3.1523,3.1443,3.1308,3.1151,3.1131,3.0992,3.081,3.081,3.0887,3.0966,3.0844,3.0794,3.0762,3.07,3.0648,3.0634,3.062,3.0417,3.0384,3.0872,3.0711,3.0648,3.1029,3.1115,3.1005,3.0825,3.0782,3.0731,3.0598,3.0946,3.1112,3.0902,3.1383,3.167,3.1511,3.1511,3.1511,3.1511,3.1511,3.1511,3.1511,3.1467,3.1409,3.1307,3.1263,3.1176,3.1014,3.0984,3.0895,3.0672,3.0552,3.0387,3.2403,3.1974,3.1582,2.9922,2.9443,2.9412,2.9463,2.9443,2.9402,2.9402,2.9409,2.9396,2.9396,3.0623,3.1663,3.1786,3.315,3.4209,3.4209,3.4209,3.4185,3.4136,3.4124,3.4086,3.4023,3.4011,3.4011,3.3998,3.3998,3.3972,3.3908,3.3908,3.3868,3.382,3.3802,3.3802,3.3802,3.3753,3.378,3.3908,3.378,3.3726,3.3712,3.3629,3.3534,3.3408,3.3408,3.3286,3.3101,3.2995,3.2916,3.2884,3.2575,3.2301,3.2108,3.1893,3.1818,3.1781,3.1593,3.1426,3.1295,3.1232,3.1131,3.0995,3.0952,3.0733,3.0526,3.0526,3.0896,3.1166,3.0667,3.0485,3.0561,3.1106,3.1138,3.1222,3.1751,3.17,3.1486,3.1227,3.1169,3.1061,3.0848,3.1135,3.1351,3.1366,3.1644,3.1832,3.1705,3.1722,3.1652,3.1465,3.1481,3.1511,3.1511,3.1511,3.1511,3.1511,3.1511,3.1511,3.1511,3.138,3.1307,3.1307,3.119,3.1014,3.0821,3.0702,3.0538,3.0312,3.0203,3.0036,3.246,3.2031,3.1679,3.003,2.9608,2.957,2.9512,2.9482,2.9453,2.9412,2.9392,2.939,2.9407,3.0716,3.1801,3.1737,3.3079,3.4124,3.4086,3.4074,3.4074,3.4036,3.4036,3.4011,3.3947,3.3934,3.3921,3.3868,3.3868,3.3855,3.3829,3.3847,3.3834,3.3807,3.3766,3.3739,3.3739,3.3671,3.3657,3.3712,3.3657,3.3647,3.3629,3.352,3.3452,3.3378,3.3229,3.3088,3.2979,3.2886,3.274,3.2558,3.2214,3.2019,3.1893,3.1746,3.1615,3.1466,3.1366,3.123,3.1098,3.1052,3.0855,3.0775,3.1199,3.1179,3.1068,3.1407,3.1616,3.1613,3.1013,3.1166,3.1469,3.154,3.1512,3.1499,3.159,3.1501,3.1457,3.165,3.1549,3.1535,3.1743,3.1847,3.1879,3.1784,3.1845,3.187,3.1828,3.1698,3.1568,3.1511,3.1511,3.1511,3.1511,3.1511,3.1511,3.1511,3.1511,3.1467,3.138,3.1322,3.1205,3.0999,3.0851,3.0702,3.0477,3.0341,3.0189,2.9976,2.9851,2.9682,3.2545,3.2125,3.1769,3.0132,2.9726,2.9699,2.9617,2.9589,2.955,2.9481,2.9433,2.9392,2.9407,3.0511,3.1474,3.1665,3.2839,3.3778,3.3974,3.3998,3.3998,3.3972,3.3972,3.3947,3.3868,3.3868,3.3842,3.3788,3.3807,3.3807,3.3807,3.378,3.3652,3.3395,3.3328,3.3177,3.2903,3.2826,3.277,3.277,3.2728,3.3001,3.3534,3.3378,3.3289,3.3244,3.3042,3.29,3.2771,3.2691,3.249,3.2196,3.1965,3.1801,3.1688,3.1542,3.1408,3.1254,3.1154,3.1055,3.0952,3.0831,3.0817,3.0915,3.1319,3.1495,3.1593,3.1888,3.2054,3.2015,3.158,3.1699,3.1941,3.1911,3.1878,3.1884,3.1931,3.1836,3.1809,3.207,3.1962,3.194,3.2226,3.2163,3.2038,3.194,3.1813,3.1698,3.1698,3.1597,3.1511,3.1511,3.1511,3.1511,3.1511,3.1467,3.1438,3.1438,3.1395,3.1351,3.1307,3.1205,3.1029,3.0732,3.0568,3.0387,3.0129,3.0005,2.9851,2.9654,2.9449,2.9261,3.276,3.2307,3.1893,3.0223,2.9808,2.9808,2.9808,2.9756,2.9673,2.9607,2.9501,2.9392,2.9407,3.0065,3.0843,3.1573,3.2358,3.313,3.3881,3.3979,3.3954,3.3908,3.3895,3.3868,3.3802,3.3788,3.3788,3.377,3.377,3.377,3.377,3.3703,3.3314,3.2504,3.2419,3.1996,3.1206,3.1066,3.1003,3.1003,3.0864,3.1708,3.3378,3.3178,3.3024,3.29,3.29,3.2739,3.249,3.2422,3.2161,3.18,3.18,3.167,3.1479,3.1351,3.1271,3.1171,3.1035,3.0952,3.0851,3.0605,3.1019,3.155,3.1214,3.1537,3.1965,3.1774,3.2045,3.2377,3.2224,3.1911,3.1749,3.2269,3.2301,3.2378,3.2966,3.3005,3.28,3.2453,3.2398,3.2315,3.2038,3.1898,3.1799,3.1799,3.1626,3.1511,3.1511,3.1511,3.1511,3.1511,3.1511,3.1511,3.1511,3.138,3.1307,3.1307,3.1161,3.1161,3.1278,3.0969,3.0732,3.0598,3.0417,3.0129,2.9808,2.9651,2.9495,2.9279,2.8949,2.872,3.2908,3.2479,3.2106,3.0435,2.9999,2.9983,2.9891,2.9825,2.9746,2.9683,2.9531,2.9402,2.9411,3.0068,3.0646,3.0775,3.1455,3.2028,3.2151,3.266,3.3015,3.2989,3.3485,3.3613,3.3018,3.2949,3.2724,3.2149,3.21,3.2087,3.2036,3.2028,3.1874,3.1579,3.1478,3.1302,3.1066,3.093,3.0836,3.0797,3.0697,3.1216,3.2257,3.2151,3.2382,3.2821,3.2625,3.2508,3.2405,3.209,3.191,3.1781,3.1632,3.1483,3.1351,3.1271,3.1154,3.1035,3.0855,3.1062,3.1369,3.1181,3.1472,3.1955,3.2326,3.2353,3.2372,3.2714,3.2861,3.2861,3.2718,3.2588,3.2547,3.2724,3.2718,3.2685,3.2614,3.2578,3.2468,3.2178,3.2122,3.2066,3.1898,3.1813,3.1756,3.1597,3.1539,3.1511,3.1511,3.1511,3.1511,3.1511,3.1409,3.1351,3.1351,3.1249,3.1161,3.1161,3.0984,3.091,3.094,3.0762,3.0568,3.0387,2.9991,2.9758,2.9651,2.923,2.8944,2.8798,2.8546,2.8365,3.2995,3.2564,3.2208,3.0514,3.0095,3.008,2.9964,2.9849,2.9745,2.9701,2.956,2.9433,2.9412,2.98,3.0171,3.0371,3.081,3.1199,3.1372,3.1825,3.2118,3.2118,3.254,3.2651,3.2173,3.2118,3.1916,3.1452,3.139,3.1334,3.1302,3.125,3.1034,3.0672,3.0541,3.0301,2.9922,2.9813,2.9733,2.968,2.9546,2.9894,3.0673,3.128,3.1767,3.2182,3.2196,3.2179,3.2143,3.1838,3.1671,3.1596,3.1464,3.1329,3.1176,3.1134,3.1015,3.0905,3.1025,3.1255,3.1539,3.1614,3.198,3.2433,3.2634,3.2704,3.2807,3.3066,3.3043,3.2881,3.2746,3.2664,3.2636,3.2691,3.2703,3.2621,3.2302,3.2247,3.2163,3.1968,3.1912,3.1855,3.1727,3.167,3.1641,3.1511,3.1511,3.1511,3.1511,3.1511,3.1467,3.1438,3.1351,3.1292,3.1234,3.1073,3.0955,3.0895,3.0702,3.0684,3.0854,3.0622,3.0326,3.0021,2.9727,2.9477,2.9194,2.9095,2.8926,2.8723,2.8739,2.8678,3.3062,3.2624,3.2205,3.0529,3.011,3.0068,3.0022,2.9847,2.9708,2.971,2.9598,2.9492,2.9423,2.9401,2.9606,3.0187,3.0293,3.0498,3.1097,3.125,3.1286,3.1286,3.136,3.1378,3.1305,3.1286,3.1256,3.1182,3.112,3.1082,3.1069,3.0953,3.0503,2.9699,2.9588,2.9157,2.8304,2.8209,2.8126,2.8071,2.7879,2.8132,2.8827,3.0379,3.1102,3.1179,3.1689,3.1839,3.1763,3.1634,3.1449,3.1295,3.1276,3.1157,3.0995,3.0975,3.0855,3.0771,3.1371,3.1539,3.1527,3.1943,3.2514,3.2957,3.2447,3.2735,3.3176,3.2924,3.2718,3.2523,3.2398,3.2259,3.2219,3.2315,3.2342,3.2287,3.2038,3.1968,3.194,3.1784,3.1756,3.1698,3.1539,3.1511,3.1511,3.1511,3.1511,3.1511,3.1467,3.1467,3.1438,3.1292,3.1308,3.1294,3.1132,3.0997,3.0877,3.0726,3.0529,3.0604,3.1016,3.0559,3.0135,2.9771,2.9708,2.936,2.875,2.9193,2.9228,2.8949,2.9271,2.9332,3.3214,3.2754,3.2345,3.0607,3.0138,3.0106,3.0068,2.9956,2.983,2.979,2.9701,2.9626,2.9492,2.9433,2.9415,2.9451,2.9466,2.9477,2.9505,3.0063,3.0467,3.0467,3.1029,3.1146,3.0522,3.0467,3.0167,2.9478,2.9429,2.9369,2.9253,2.9183,2.9034,2.8789,2.8604,2.8429,2.8223,2.7993,2.7847,2.7774,2.7689,2.7704,2.7836,2.8872,2.9875,3.0837,3.1545,3.1726,3.1538,3.1408,3.1334,3.1276,3.1117,3.1035,3.0975,3.0814,3.0671,3.0626,3.1226,3.1624,3.1976,3.2579,3.2994,3.3228,3.3098,3.2917,3.273,3.2551,3.2413,3.2262,3.2122,3.2066,3.201,3.194,3.2025,3.2038,3.187,3.1841,3.1784,3.1597,3.1568,3.1539,3.1511,3.1511,3.1511,3.1511,3.1511,3.1467,3.1351,3.1351,3.1292,3.1161,3.1455,3.1628,3.1445,3.1693,3.1806,3.1632,3.1472,3.1367,3.1312,3.0739,3.064,3.1003,3.0441,3.0086,2.995,2.964,2.9359,2.9136,2.9116,2.8977,3.3142,3.2509,3.1908,3.0546,3.0161,3.0138,3.011,3.0038,2.9967,2.9834,2.9756,2.9655,2.9512,2.9443,2.9351,2.9222,2.92,2.9145,2.9028,2.9354,2.9629,2.9629,3.0008,3.0099,2.9666,2.9587,2.9398,2.8923,2.8827,2.8755,2.8662,2.86,2.8497,2.8353,2.825,2.8126,2.795,2.7818,2.7701,2.7615,2.7478,2.7373,2.7297,2.8549,2.966,3.0588,3.1325,3.1557,3.1387,3.1291,3.1215,3.1137,3.0995,3.0915,3.0834,3.0671,3.0742,3.1006,3.1526,3.2039,3.2563,3.2985,3.3226,3.324,3.3027,3.2742,3.2496,3.2342,3.2219,3.2066,3.194,3.1883,3.1855,3.1698,3.1769,3.187,3.1698,3.167,3.1626,3.1511,3.1511,3.1511,3.1511,3.1511,3.1511,3.1511,3.1438,3.1484,3.1708,3.1664,3.1678,3.1759,3.2003,3.2021,3.1737,3.1847,3.1885,3.1674,3.1509,3.1436,3.1459,3.1053,3.0847,3.0861,3.0501,3.0158,2.9929,2.9834,2.9666,2.9473,2.9589,2.9534,3.3048,3.2101,3.1187,3.04,3.0214,3.0187,3.0125,3.0095,3.0049,2.9842,2.9765,2.9673,2.954,2.9453,2.9372,2.9222,2.92,2.9145,2.9028,2.9005,2.9005,2.9005,2.9005,2.8994,2.8975,2.8929,2.8893,2.8881,2.8743,2.8644,2.8587,2.8497,2.8367,2.8213,2.814,2.7982,2.7701,2.7639,2.7552,2.745,2.7261,2.7086,2.7026,2.8648,2.9676,3.0218,3.1067,3.1368,3.1237,3.119,3.1092,3.0975,3.0855,3.0753,3.0651,3.0506,3.082,3.1368,3.1846,3.2377,3.2924,3.3186,3.3214,3.3081,3.2687,3.2468,3.2287,3.2178,3.2038,3.194,3.1784,3.1756,3.1698,3.1539,3.1626,3.1698,3.1539,3.1511,3.1511,3.1511,3.1511,3.1511,3.1511,3.1571,3.1617,3.1617,3.1618,3.1753,3.2226,3.2162,3.2167,3.2423,3.2486,3.2382,3.2008,3.1929,3.1819,3.1584,3.1382,3.1378,3.1558,3.1373,3.1037,3.0468,3.0454,3.0258,2.9741,3.0059,3.0084,2.9862,3.0188,3.0228,3.3128,3.1706,3.0445,3.0312,3.0234,3.0187,3.0125,3.0095,3.0049,2.9842,2.979,2.9737,2.9531,2.9492,2.9423,2.9232,2.92,2.9145,2.9028,2.9005,2.9005,2.9005,2.9005,2.8982,2.8917,2.8917,2.8839,2.8731,2.8662,2.8587,2.8523,2.834,2.8223,2.8196,2.7922,2.7745,2.7701,2.7415,2.726,2.7246,2.7104,2.6975,2.696,2.8352,2.9081,2.934,3.0675,3.1154,3.1035,3.0972,3.0932,3.0892,3.0651,3.0547,3.0506,3.0316,3.0555,3.107,3.1753,3.2135,3.2412,3.3072,3.2958,3.2508,3.2453,3.2247,3.2025,3.1898,3.1841,3.1784,3.1597,3.1539,3.1539,3.1511,3.1511,3.1539,3.1511,3.1511,3.1511,3.1511,3.1511,3.1511,3.1511,3.1841,3.2124,3.2124,3.2492,3.2737,3.2654,3.254,3.2379,3.2241,3.2468,3.2481,3.2264,3.2618,3.2667,3.2278,3.2126,3.2001,3.1842,3.1659,3.1436,3.1182,3.1182,3.1048,3.0788,3.0693,3.043,3.0075,3.0114,3.0049,3.1872,3.0936,3.0355,3.0305,3.0279,3.0233,3.0125,3.0095,3.0049,2.9842,2.9771,2.9681,2.9531,2.9472,2.9392,2.9222,2.92,2.9145,2.9028,2.9005,2.9005,2.9005,2.897,2.8929,2.8887,2.8827,2.8761,2.865,2.8587,2.8484,2.834,2.825,2.8109,2.7922,2.7774,2.7612,2.743,2.7276,2.7151,2.7023,2.6908,2.6792,2.6776,2.8156,2.8829,2.9006,3.0432,3.0992,3.0915,3.0753,3.0671,3.0651,3.0422,3.0295,3.0259,3.0495,3.0933,3.1475,3.195,3.2428,3.2804,3.281,3.2617,3.237,3.2219,3.2038,3.187,3.1828,3.1727,3.1597,3.1511,3.1511,3.1511,3.1511,3.1795,3.2019,3.1931,3.199,3.2124,3.2392,3.2467,3.2437,3.2361,3.2507,3.2669,3.2669,3.2702,3.282,3.3059,3.289,3.2739,3.2809,3.2907,3.2821,3.2374,3.2494,3.2444,3.2119,3.195,3.1706,3.1397,3.1323,3.1099,3.081,3.1011,3.1024,3.0849,3.0508,3.0279,3.0113,2.9972,2.9869,3.0865,3.0398,3.0361,3.0305,3.0286,3.024,3.0132,3.0087,3.0014,2.9842,2.9736,2.9645,2.9522,2.9433,2.9341,2.9222,2.9178,2.9123,2.9017,2.9005,2.9005,2.9005,2.894,2.8893,2.8881,2.8743,2.865,2.8574,2.8484,2.8353,2.8196,2.8126,2.795,2.7716,2.7627,2.7444,2.7197,2.7117,2.6989,2.6826,2.6708,2.6623,2.6622,2.799,2.8641,2.8745,3.0179,3.081,3.0773,3.0526,3.0422,3.0401,3.0172,3.0038,3.0011,3.0561,3.1124,3.1702,3.2038,3.2552,3.2985,3.2535,3.2342,3.2219,3.2025,3.1841,3.1727,3.1727,3.1626,3.1511,3.1511,3.163,3.175,3.175,3.2228,3.2631,3.2495,3.2541,3.272,3.3072,3.3145,3.3114,3.3035,3.3042,3.3081,3.3081,3.2954,3.3002,3.3417,3.3173,3.3067,3.322,3.31,3.2852,3.2395,3.2169,3.1927,3.1706,3.1522,3.1261,3.0861,3.0836,3.071,3.0406,3.0634,3.0685,3.0546,3.0241,3.0075,3.0011,2.9869,2.9792,3.0865,3.0348,3.0298,3.0299,3.0241,3.0187,3.0125,3.0046,2.9975,2.9834,2.9692,2.9569,2.9502,2.9394,2.9291,2.9211,2.9163,2.9085,2.9017,2.9005,2.9005,2.9005,2.894,2.8881,2.881,2.8675,2.8574,2.8505,2.8331,2.8209,2.8196,2.7893,2.7716,2.7701,2.74,2.7213,2.7197,2.6891,2.6691,2.6606,2.6537,2.6502,2.6553,2.7769,2.8337,2.842,2.988,3.0526,3.0506,3.0295,3.021,3.0189,2.9919,2.9832,2.9847,3.0185,3.0728,3.1318,3.1834,3.2193,3.2453,3.2425,3.215,3.1813,3.1813,3.1655,3.1511,3.1511,3.1511,3.1511,3.1511,3.1974,3.2437,3.2437,3.2795,3.3179,3.3148,3.3069,3.296,3.3004,3.3004,3.3004,3.3004,3.3203,3.3369,3.3369,3.3619,3.3776,3.3618,3.3409,3.3199,3.3023,3.2552,3.2241,3.2205,3.1853,3.1447,3.1061,3.1024,3.0861,3.0444,3.0444,3.0406,3.0406,3.0228,3.0152,3.0113,3.0113,3.0011,2.983,2.9792,2.9792,3.0865,3.0348,3.0298,3.0299,3.0246,3.0185,3.0117,3.0014,2.9907,2.9753,2.9673,2.9578,2.9453,2.9351,2.9275,2.9211,2.9134,2.9085,2.9017,2.9005,2.8975,2.894,2.8881,2.8785,2.8675,2.8587,2.8471,2.8313,2.8237,2.8112,2.7893,2.776,2.7612,2.7384,2.726,2.7101,2.6891,2.6725,2.6606,2.6537,2.638,2.6525,2.6989,2.7742,2.8312,2.8739,2.9646,3.0108,3.0167,3.0,2.993,2.9858,2.9681,2.9758,3.006,3.0672,3.1171,3.1659,3.2109,3.2307,3.237,3.2094,3.1912,3.1784,3.167,3.1568,3.1511,3.1511,3.1809,3.2123,3.2123,3.2557,3.3031,3.34,3.3509,3.3583,3.3926,3.3789,3.3677,3.3875,3.3897,3.3831,3.3599,3.3653,3.3661,3.3559,3.3518,3.3452,3.3248,3.2931,3.2646,3.2516,3.2205,3.1877,3.1643,3.136,3.1112,3.0811,3.0685,3.0482,3.0228,3.0228,3.0152,3.0011,2.9934,2.9972,3.0113,2.9972,2.9869,2.9792,2.9792,2.9792,3.0865,3.0355,3.0305,3.0299,3.0226,3.015,3.0076,2.9983,2.9857,2.9727,2.9636,2.9531,2.9384,2.9318,2.9251,2.9218,2.9112,2.9051,2.9005,2.8982,2.894,2.8917,2.8822,2.8724,2.8612,2.851,2.8367,2.8209,2.8099,2.7922,2.7716,2.758,2.74,2.7103,2.707,2.6907,2.6657,2.6537,2.645,2.6398,2.6203,2.644,2.7073,2.7643,2.8237,2.8827,2.9393,2.9738,2.9902,2.9716,2.9605,2.9547,2.9366,2.9595,3.0123,3.0757,3.1295,3.1719,3.2167,3.2259,3.2135,3.1898,3.1756,3.167,3.1539,3.1511,3.1511,3.1511,3.1945,3.2393,3.2393,3.2942,3.357,3.4041,3.4025,3.3977,3.4192,3.4147,3.4057,3.4206,3.421,3.4157,3.3848,3.3744,3.364,3.3417,3.3157,3.2945,3.2753,3.2431,3.2155,3.2036,3.178,3.1471,3.1235,3.0936,3.0723,3.0508,3.0381,3.0228,3.0011,3.0011,2.9934,2.9792,2.9792,2.9869,3.0011,2.9869,2.9792,2.9792,2.9792,2.9792,0.0,0.0,0.0,3.0305,3.0206,3.0079,3.0003,2.9943,2.9861,2.9719,2.9589,2.9463,2.9314,2.9246,2.92,2.9189,2.9096,2.9005,2.8994,2.894,2.8905,2.8887,2.8785,2.8675,2.86,2.8419,2.8277,2.8182,2.7879,2.7701,2.7686,2.7369,2.7103,2.6909,2.6775,2.6657,2.6606,2.6328,2.6202,2.6168,2.6021,2.6232,2.6851,2.745,2.8043,2.864,2.9093,2.9418,2.9637,2.9396,2.9282,2.9259,2.9013,2.932,2.9977,3.0431,3.0937,3.1497,3.2005,3.2025,3.1799,3.1799,3.167,3.1511,3.1511,3.1511,3.1511,3.1525,3.1871,3.2227,3.2272,3.3142,3.4056,3.4336,3.438,3.4293,3.3951,3.3971,3.4025,3.3917,3.3896,3.3827,3.3605,3.3396,3.3206,3.3002,3.2632,3.2322,3.2205,3.2,3.1817,3.1596,3.1224,3.0986,3.0986,3.0634,3.0292,3.0113,3.0075,3.0011,2.9792,2.9792,2.9792,2.9792,2.9792,2.9792,2.9792,2.9792,2.9792,2.9792,2.9792,2.9792,3.0803,0.0,0.0,0.0,0.0,0.0,2.9956,2.9885,2.979,2.9655,2.956,2.9453,2.9318,2.9262,2.9178,2.9152,2.9062,2.8975,2.8929,2.8917,2.8851,2.8767,2.8687,2.8562,2.8406,2.8291,2.8122,2.7864,2.7745,2.758,2.7353,2.7103,2.6908,2.6758,2.6674,2.652,2.631,2.6238,2.6079,2.5846,2.6219,2.6717,2.7324,2.7828,2.8379,2.8967,2.9004,2.9029,2.9053,2.9013,2.8982,2.892,2.885,2.9424,3.0279,3.0402,3.1044,3.1822,3.1879,3.187,3.1784,3.1626,3.1539,3.1511,3.1511,3.1438,3.1455,3.1886,3.2375,3.2945,3.363,3.4043,3.4263,3.4079,3.3917,3.3779,3.3536,3.3368,3.3353,3.3452,3.3333,3.3178,3.3002,3.2789,3.261,3.2444,3.2205,3.195,3.178,3.1582,3.1397,3.1174,3.0962,3.0723,3.0596,3.033,3.0152,3.0113,2.9972,2.9869,2.9792,2.9792,2.9792,2.9792,2.9792,2.9792,2.9792,2.9792,2.9792,2.9792,2.9792,2.9792,0.0,0.0,3.0253,3.0199,0.0,0.0,2.9916,2.9825,2.971,2.9579,2.9482,2.9392,2.9283,2.9207,2.9152,2.9074,2.8998,2.894,2.8917,2.8881,2.881,2.8675,2.86,2.8484,2.8291,2.8182,2.7996,2.773,2.7582,2.7369,2.7104,2.6908,2.6759,2.6657,2.652,2.6363,2.6202,2.6023,2.5842,2.5659,2.616,2.6707,2.7322,2.7828,2.839,2.8951,2.8771,2.8668,2.8628,2.8558,2.8573,2.8659,2.889,2.9473,3.0276,3.0551,3.1211,3.1927,3.1813,3.1756,3.167,3.1539,3.1467,3.1409,3.1409,3.1515,3.1664,3.2004,3.2617,3.3317,3.4018,3.4108,3.402,3.3709,3.3486,3.3262,3.298,3.2803,3.2753,3.3016,3.2895,3.2704,3.2503,3.2322,3.2119,3.1963,3.178,3.1582,3.1373,3.1174,3.0986,3.0748,3.0571,3.0381,3.0292,3.0075,2.9972,2.9972,2.9869,2.9792,2.9792,2.9792,2.9792,2.9792,2.9792,2.9792,2.9792,2.9792,2.9792,2.9792,2.9792,2.9792,0.0,0.0,0.0,3.0185,3.0091,0.0,2.9893,2.9783,2.9655,2.9531,2.9394,2.9291,2.9211,2.9163,2.9085,2.9005,2.894,2.8905,2.8893,2.8822,2.8724,2.86,2.8523,2.8393,2.8209,2.8056,2.7896,2.7686,2.7369,2.7086,2.6893,2.6759,2.6657,2.6571,2.6328,2.6184,2.6132,2.5784,2.561,2.565,2.6014,2.6509,2.7091,2.7704,2.8248,2.8747,2.8484,2.8363,2.8339,2.8094,2.8128,2.8424,2.896,2.9505,3.0057,3.0725,3.1324,3.1756,3.1756,3.167,3.1511,3.1467,3.1409,3.1292,3.1367,3.1634,3.1984,3.2055,3.2742,3.3508,3.3774,3.3675,3.3501,3.3241,3.3051,3.281,3.2417,3.2228,3.2205,3.2525,3.2417,3.2286,3.2132,3.1963,3.178,3.1572,3.136,3.1161,3.0949,3.0761,3.0584,3.0406,3.0228,3.0075,3.0075,2.9895,2.9792,2.9792,2.9792,2.9792,2.9792,2.9792,2.9792,2.9792,2.9792,2.9792,2.9792,2.9792,2.9792,2.9792,2.9792,2.9792,3.0681,3.0207,3.0185,3.014,3.0022,0.0,2.9761,2.9719,2.9645,2.9453,2.9363,2.9291,2.9211,2.9163,2.9055,2.894,2.8917,2.8881,2.8822,2.8712,2.8612,2.8536,2.8384,2.8223,2.8126,2.7893,2.7704,2.7539,2.7231,2.6941,2.6758,2.6657,2.652,2.6274,2.6238,2.6041,2.5728,2.5635,2.5718,2.5941,2.654,2.7085,2.7576,2.8077,2.8369,2.846,2.8177,2.8094,2.8054,2.8005,2.8029,2.8155,2.8799,2.9364,2.9912,3.0518,3.1097,3.1568,3.1568,3.1539,3.1467,3.138,3.1322,3.1382,3.1752,3.1745,3.1774,3.2515,3.313,3.3539,3.3423,3.3262,3.3037,3.2668,3.248,3.2277,3.2059,3.1853,3.1743,3.1817,3.178,3.1743,3.172,3.1545,3.136,3.1136,3.0962,3.0723,3.0558,3.0482,3.0368,3.019,3.0113,3.0049,2.9869,2.983,2.9792,2.9792,2.9792,2.9792,2.9792,2.9792,2.9792,2.9792,2.9792,2.9792,2.9792,2.9792,2.9792,2.9792,2.9792,2.9792,3.0659,3.0185,3.0135,3.003,2.9959,0.0,0.0,2.9645,2.956,2.9384,2.9291,2.9235,2.9156,2.9067,2.8987,2.8917,2.8822,2.8749,2.87,2.8637,2.8536,2.8367,2.8264,2.8126,2.7922,2.7748,2.7539,2.7263,2.7006,2.6792,2.6657,2.6486,2.6345,2.6203,2.6005,2.5803,2.5597,2.5391,2.5548,2.6009,2.6512,2.7003,2.7527,2.8049,2.8275,2.8177,2.798,2.7905,2.7936,2.8193,2.8303,2.8378,2.9094,2.9704,3.0216,3.0876,3.1269,3.1511,3.1409,3.1409,3.138,3.1234,3.1368,3.1559,3.1715,3.1898,3.2186,3.2888,3.3198,3.3227,3.2945,3.2731,3.2503,3.2228,3.2023,3.1853,3.1656,3.1434,3.1261,3.1149,3.1061,3.1061,3.1261,3.1048,3.0823,3.071,3.0609,3.0495,3.0267,3.0254,3.019,2.9972,2.9934,2.9895,2.9792,2.9792,2.9792,2.9792,2.9792,2.9792,2.9792,2.9792,2.9792,2.9792,2.9792,2.9792,2.9792,2.9792,2.9792,2.9792,2.9792,2.9792,3.0655,3.0128,3.0042,2.9921,2.9885,2.9827,0.0,0.0,0.0,2.9322,2.9235,2.9156,2.9078,2.8987,2.8893,2.8858,2.8712,2.8574,2.8523,2.8523,2.8432,2.8241,2.814,2.8011,2.773,2.76,2.7355,2.6975,2.6792,2.664,2.6537,2.631,2.615,2.6078,2.5766,2.5559,2.5502,2.5286,2.5498,2.611,2.6476,2.6933,2.7479,2.7926,2.8063,2.7955,2.7815,2.7765,2.7811,2.8374,2.8682,2.8861,2.9627,3.0156,3.0582,3.1256,3.1467,3.1438,3.1351,3.1292,3.1249,3.1191,3.1568,3.1965,3.1731,3.2168,3.2788,3.3052,3.298,3.2739,3.2395,3.2191,3.2036,3.1853,3.1633,3.141,3.1248,3.1011,3.0836,3.066,3.0495,3.0444,3.0823,3.0634,3.0406,3.0368,3.033,3.0254,3.0075,3.0049,2.9972,2.983,2.9792,2.9792,2.9792,2.9792,2.9792,2.9792,2.9792,2.9792,2.9792,2.9792,2.9792,2.9792,2.9792,2.9792,2.9792,2.9792,2.9792,2.9792,2.9792,2.9792,3.0582,3.003,2.9913,2.9897,2.9816,2.9692,2.9626,0.0,2.9322,2.9304,0.0,2.9096,2.9028,0.0,0.0,2.8662,2.8612,2.851,2.8277,2.8237,2.8237,2.8196,2.7936,2.7745,2.7698,2.743,2.7101,2.6775,2.6708,2.6572,2.6257,2.622,2.6023,2.5672,2.5635,2.5429,2.5064,2.5622,2.6062,2.6441,2.6949,2.751,2.8088,2.7919,2.784,2.7815,2.7675,2.7625,2.767,2.8334,2.8951,2.9562,3.0191,3.0447,3.0582,3.1256,3.1409,3.1322,3.1307,3.1205,3.1176,3.1388,3.2046,3.2697,3.2314,3.2672,3.3108,3.2618,3.2408,3.2241,3.2023,3.1817,3.1633,3.1434,3.1211,3.1024,3.0811,3.0609,3.0444,3.0444,3.0254,3.019,3.0444,3.0444,3.033,3.0152,3.0113,3.0049,2.9869,2.983,2.983,2.9792,2.9792,2.9792,2.9792,2.9792,2.9792,2.9792,2.9792,2.9792,2.9792,2.9792,2.9792,2.9792,2.9792,2.9792,2.9792,2.9792,2.9792,2.9792,2.9792,2.9792,3.0443,2.9932,2.9885,2.9799,2.9747,2.9655,2.9463,2.9363,2.928,2.9189,0.0,0.0,0.0,0.0,0.0,0.0,2.8458,2.8331,2.8227,2.8039,2.7908,2.7908,2.7792,2.7609,2.743,2.7117,2.6858,2.6708,2.6504,2.6346,2.6203,2.5987,2.5766,2.5616,2.5371,2.5162,2.5005,2.5477,2.5932,2.6394,2.6957,2.7505,2.7965,2.784,2.7765,2.7675,2.7625,2.7824,2.8218,2.8891,2.9549,3.0178,3.0751,3.0948,3.1006,3.1275,3.1292,3.1161,3.1058,3.091,3.0907,3.1444,3.2037,3.2563,3.2674,3.2701,3.2602,3.2336,3.2096,3.1817,3.1582,3.1397,3.1211,3.0986,3.0798,3.0634,3.0533,3.0381,3.0228,3.0228,3.0049,2.9934,3.0049,3.0049,3.0011,2.9934,2.9934,2.9895,2.9792,2.9792,2.9792,2.9792,2.9792,2.9792,2.9792,2.9792,2.9792,2.9792,2.9792,2.9792,2.9792,2.9792,2.9792,2.9792,2.9792,2.9792,2.9792,2.9792,2.9792,2.9792,2.9792,2.9792,3.0318,2.9859,2.9818,2.9692,2.9636,2.955,2.9334,2.927,2.9185,2.9089,2.8998,0.0,0.0,0.0,2.8574,2.8497,0.0,2.8168,2.8067,2.7847,2.7701,2.7701,2.7627,2.7428,2.7101,2.6841,2.6657,2.6572,2.6346,2.615,2.6041,2.5766,2.5559,2.5429,2.5158,2.5041,2.513,2.5528,2.5993,2.6543,2.7108,2.7519,2.779,2.7765,2.7675,2.76,2.7794,2.8143,2.8667,2.949,3.0076,3.0498,3.1083,3.1219,3.1176,3.1234,3.1117,3.0955,3.0791,3.0784,3.0924,3.164,3.2069,3.2382,3.2686,3.248,3.2096,3.1986,3.1693,3.1373,3.1211,3.0986,3.0798,3.0647,3.0457,3.033,3.033,3.0152,3.0011,3.0011,2.9895,2.9792,2.9792,2.9792,2.9792,2.9792,2.9792,2.9792,2.9792,2.9792,2.9792,2.9792,2.9792,2.9792,2.9792,2.9792,2.9792,2.9792,2.9792,2.9792,2.9792,2.9792,2.9792,2.9792,2.9792,2.9792,2.9792,2.9792,2.9753,2.9689,2.9753,2.9753,3.0196,2.9719,2.9701,2.9617,2.9453,2.9304,2.9304,2.916,2.9017,2.9005,2.8912,2.8761,2.8637,2.86,0.0,0.0,2.8213,0.0,0.0,2.7716,2.7701,2.7701,2.7398,2.7085,2.6741,2.6708,2.6572,2.6239,2.622,2.6023,2.5635,2.5616,2.541,2.5025,2.5005,2.5156,2.5474,2.6008,2.6573,2.7185,2.7591,2.78,2.779,2.7675,2.76,2.763,2.8278,2.8577,2.8697,2.9953,3.0423,3.0372,3.1025,3.1117,3.0821,3.1043,3.0895,3.0612,3.0598,3.0945,3.1485,3.2083,3.2319,3.2367,3.2264,3.2073,3.1817,3.1421,3.1161,3.0986,3.0773,3.0571,3.0406,3.0406,3.0267,3.0113,3.0113,2.9934,2.9792,2.9792,2.9792,2.9792,2.9792,2.9792,2.9792,2.9792,2.9792,2.9792,2.9792,2.9792,2.9792,2.9792,2.9792,2.9792,2.9792,2.9792,2.9792,2.9792,2.9792,2.9792,2.9792,2.9792,2.9792,2.9792,2.9792,2.9792,2.9792,2.9792,2.9663,2.9419,2.9702,2.965,3.0105,2.9579,2.9501,2.9423,2.9351,2.9265,2.9127,2.9044,2.897,2.8834,2.8737,2.8637,2.8549,2.8419,0.0,0.0,0.0,2.7836,0.0,2.7522,2.7307,2.72,2.7071,2.6925,2.6708,2.6539,2.6365,2.6203,2.595,2.5747,2.5616,2.5352,2.5143,2.5005,2.4766,2.4891,2.5361,2.5944,2.6459,2.6931,2.7523,2.7765,2.7675,2.7625,2.76,2.763,2.8308,2.8846,2.9325,3.0067,3.0593,3.0981,3.097,3.0851,3.0672,3.0732,3.0598,3.0414,3.0492,3.1119,3.1832,3.1647,3.1867,3.2205,3.189,3.1559,3.1286,3.1136,3.0861,3.0596,3.052,3.033,3.019,3.019,3.0049,2.9895,2.9895,2.9869,2.9792,2.9792,2.9792,2.9792,2.9792,2.9792,2.9792,2.9792,2.9792,2.9792,2.9792,2.9792,2.9792,2.9792,2.9792,2.9792,2.9792,2.9792,2.9792,2.9792,2.9792,2.9702,2.956,2.956,2.9482,2.9339,2.9339,2.9339,2.9339,2.9339,2.9287,2.9197,2.9287,2.93,2.9969,2.9441,2.933,2.9249,2.9211,2.9152,2.9005,2.8905,2.8822,2.87,2.8574,2.8471,2.8406,2.8277,2.8126,0.0,0.0,0.0,0.0,2.726,2.7039,2.6842,2.6842,2.6775,2.664,2.6417,2.6188,2.6026,2.5749,2.554,2.5391,2.5143,2.4962,2.4826,2.4813,2.5053,2.5606,2.6153,2.666,2.7158,2.7555,2.7675,2.76,2.76,2.7735,2.8004,2.8652,2.9298,2.9886,3.0415,3.0849,3.1117,3.0821,3.0642,3.0477,3.0477,3.044,3.0415,3.0737,3.1272,3.1722,3.1504,3.1626,3.1803,3.1485,3.1149,3.0874,3.0798,3.0558,3.0292,3.0292,3.0152,2.9972,2.9972,2.9908,2.9792,2.9792,2.9792,2.9792,2.9792,2.9792,2.9792,2.9792,2.9792,2.9792,2.9792,2.9792,2.9792,2.9792,2.9792,2.9792,2.9792,2.9792,2.9792,2.9792,2.9792,2.9753,2.965,2.965,2.956,2.9314,2.9275,2.9236,2.9091,2.9091,2.9091,2.9091,2.9091,2.9013,2.8907,2.8907,2.8816]}]]